Time,TemperatureF,DewpointF,PressureIn,WindDirection,WindDirectionDegrees,WindSpeedMPH,WindSpeedGustMPH,Humidity,HourlyPrecipIn,Conditions,Clouds,dailyrainin,SoftwareType,DateUTC
2013-06-02 00:00:00,52.9,41.5,29.91,NNE,22,0.0,0.0,65,0.00,,,85.23,VWS V14.01,2013-06-01 23:00:00,
2013-06-02 00:01:00,52.9,41.5,29.91,NNE,22,0.0,0.0,65,0.00,,,85.23,VWS V14.01,2013-06-01 23:01:00,
2013-06-02 00:02:00,52.9,41.5,29.91,NNE,22,0.0,0.0,65,0.00,,,85.23,VWS V14.01,2013-06-01 23:02:00,
2013-06-02 00:03:00,52.7,41.3,29.91,NNE,22,0.0,4.5,65,0.00,,,85.23,VWS V14.01,2013-06-01 23:03:00,
2013-06-02 00:04:00,52.7,41.3,29.91,NNE,22,0.0,0.0,65,0.00,,,85.23,VWS V14.01,2013-06-01 23:04:00,
2013-06-02 00:05:00,52.7,41.3,29.91,NNE,22,0.0,0.0,65,0.00,,,85.23,VWS V14.01,2013-06-01 23:05:00,
2013-06-02 00:06:00,52.7,41.3,29.91,NNE,22,0.0,1.3,65,0.00,,,85.23,VWS V14.01,2013-06-01 23:06:00,
2013-06-02 00:07:00,52.5,41.1,29.91,NNE,22,0.0,0.0,65,0.00,,,85.23,VWS V14.01,2013-06-01 23:07:00,
2013-06-02 00:08:00,52.5,41.1,29.91,NNE,22,0.0,0.0,65,0.00,,,85.23,VWS V14.01,2013-06-01 23:08:00,
2013-06-02 00:09:00,52.5,41.1,29.91,NNE,22,0.0,0.0,65,0.00,,,85.23,VWS V14.01,2013-06-01 23:09:00,
2013-06-02 00:10:00,52.3,40.9,29.91,NNE,22,0.0,0.0,65,0.00,,,85.23,VWS V14.01,2013-06-01 23:10:00,
2013-06-02 00:11:00,52.3,41.3,29.91,NNE,22,0.0,0.0,66,0.00,,,85.23,VWS V14.01,2013-06-01 23:11:00,
2013-06-02 00:12:00,52.3,41.3,29.91,NNE,22,0.0,0.0,66,0.00,,,85.23,VWS V14.01,2013-06-01 23:12:00,
2013-06-02 00:13:00,52.3,41.3,29.91,NNE,22,0.0,0.0,66,0.00,,,85.23,VWS V14.01,2013-06-01 23:13:00,
2013-06-02 00:14:00,52.2,41.2,29.91,NNE,22,0.0,0.0,66,0.00,,,85.23,VWS V14.01,2013-06-01 23:14:00,
2013-06-02 00:15:00,52.2,41.2,29.91,NNE,22,0.0,0.0,66,0.00,,,85.23,VWS V14.01,2013-06-01 23:15:00,
2013-06-02 00:16:00,52.0,41.0,29.91,NNE,22,0.0,0.0,66,0.00,,,85.23,VWS V14.01,2013-06-01 23:16:00,
2013-06-02 00:17:00,52.0,41.0,29.91,North,0,0.0,0.0,66,0.00,,,85.23,VWS V14.01,2013-06-01 23:17:00,
2013-06-02 00:18:00,52.0,41.4,29.91,NNW,337,0.0,0.0,67,0.00,,,85.23,VWS V14.01,2013-06-01 23:18:00,
2013-06-02 00:19:00,52.0,41.4,29.91,NNW,337,0.0,0.0,67,0.00,,,85.23,VWS V14.01,2013-06-01 23:19:00,
2013-06-02 00:20:00,51.8,40.8,29.91,NNW,337,0.0,0.0,66,0.00,,,85.23,VWS V14.01,2013-06-01 23:20:00,
2013-06-02 00:21:00,51.8,40.8,29.91,NNW,337,0.0,0.0,66,0.00,,,85.23,VWS V14.01,2013-06-01 23:21:00,
2013-06-02 00:22:00,51.6,41.0,29.91,NNW,337,0.0,0.0,67,0.00,,,85.23,VWS V14.01,2013-06-01 23:22:00,
2013-06-02 00:23:00,51.6,41.0,29.91,NNW,337,0.0,0.0,67,0.00,,,85.23,VWS V14.01,2013-06-01 23:23:00,
2013-06-02 00:24:00,51.6,41.0,29.91,NNW,337,0.0,0.0,67,0.00,,,85.23,VWS V14.01,2013-06-01 23:24:00,
2013-06-02 00:25:00,51.6,41.0,29.91,NNW,337,0.0,0.0,67,0.00,,,85.23,VWS V14.01,2013-06-01 23:25:00,
2013-06-02 00:26:00,51.4,40.8,29.91,NNW,337,0.0,0.0,67,0.00,,,85.23,VWS V14.01,2013-06-01 23:26:00,
2013-06-02 00:27:00,51.4,40.8,29.91,NNW,337,0.0,0.0,67,0.00,,,85.23,VWS V14.01,2013-06-01 23:27:00,
2013-06-02 00:28:00,51.4,41.2,29.91,NNW,337,0.0,0.0,68,0.00,,,85.23,VWS V14.01,2013-06-01 23:28:00,
2013-06-02 00:29:00,51.4,41.2,29.91,NNW,337,0.0,0.0,68,0.00,,,85.23,VWS V14.01,2013-06-01 23:29:00,
2013-06-02 00:30:00,51.3,41.1,29.91,NNW,337,0.0,0.0,68,0.00,,,85.23,VWS V14.01,2013-06-01 23:30:00,
2013-06-02 00:31:00,51.3,41.1,29.91,NNW,337,0.0,0.0,68,0.00,,,85.23,VWS V14.01,2013-06-01 23:31:00,
2013-06-02 00:32:00,51.1,40.9,29.91,NNW,337,0.0,0.0,68,0.00,,,85.23,VWS V14.01,2013-06-01 23:32:00,
2013-06-02 00:33:00,51.1,40.9,29.91,NNW,337,0.0,0.0,68,0.00,,,85.23,VWS V14.01,2013-06-01 23:33:00,
2013-06-02 00:34:00,50.9,40.7,29.91,NNW,337,0.0,0.0,68,0.00,,,85.23,VWS V14.01,2013-06-01 23:34:00,
2013-06-02 00:35:00,50.9,41.1,29.91,NNW,337,0.0,0.0,69,0.00,,,85.23,VWS V14.01,2013-06-01 23:35:00,
2013-06-02 00:36:00,50.9,41.1,29.91,NNW,337,0.0,0.0,69,0.00,,,85.23,VWS V14.01,2013-06-01 23:36:00,
2013-06-02 00:37:00,50.9,41.1,29.91,NNW,337,0.0,0.0,69,0.00,,,85.23,VWS V14.01,2013-06-01 23:37:00,
2013-06-02 00:38:00,50.7,40.9,29.92,NNW,337,0.0,0.0,69,0.00,,,85.23,VWS V14.01,2013-06-01 23:38:00,
2013-06-02 00:39:00,50.7,40.9,29.91,NNW,337,0.0,0.0,69,0.00,,,85.23,VWS V14.01,2013-06-01 23:39:00,
2013-06-02 00:40:00,50.7,40.9,29.92,NNW,337,0.0,0.0,69,0.00,,,85.23,VWS V14.01,2013-06-01 23:40:00,
2013-06-02 00:41:00,50.5,40.7,29.92,NNW,337,0.0,0.0,69,0.00,,,85.23,VWS V14.01,2013-06-01 23:41:00,
2013-06-02 00:42:00,50.5,40.7,29.91,NNW,337,0.0,0.0,69,0.00,,,85.23,VWS V14.01,2013-06-01 23:42:00,
2013-06-02 00:43:00,50.5,40.7,29.91,NNW,337,0.0,0.0,69,0.00,,,85.23,VWS V14.01,2013-06-01 23:43:00,
2013-06-02 00:44:00,50.5,40.7,29.91,NNW,337,0.0,0.0,69,0.00,,,85.23,VWS V14.01,2013-06-01 23:44:00,
2013-06-02 00:45:00,50.4,40.6,29.91,NNW,337,0.0,0.0,69,0.00,,,85.23,VWS V14.01,2013-06-01 23:45:00,
2013-06-02 00:46:00,50.4,40.6,29.91,NNW,337,0.0,0.0,69,0.00,,,85.23,VWS V14.01,2013-06-01 23:46:00,
2013-06-02 00:47:00,50.4,41.0,29.91,NNW,337,0.0,0.0,70,0.00,,,85.23,VWS V14.01,2013-06-01 23:47:00,
2013-06-02 00:48:00,50.2,40.8,29.91,NNW,337,0.0,0.0,70,0.00,,,85.23,VWS V14.01,2013-06-01 23:48:00,
2013-06-02 00:49:00,50.2,40.8,29.91,NNW,337,0.0,0.0,70,0.00,,,85.23,VWS V14.01,2013-06-01 23:49:00,
2013-06-02 00:50:00,50.2,40.8,29.91,NNW,337,0.0,0.0,70,0.00,,,85.23,VWS V14.01,2013-06-01 23:50:00,
2013-06-02 00:51:00,50.2,40.8,29.91,NNW,337,0.0,0.0,70,0.00,,,85.23,VWS V14.01,2013-06-01 23:51:00,
2013-06-02 00:52:00,50.2,40.8,29.91,NNW,337,0.0,0.0,70,0.00,,,85.23,VWS V14.01,2013-06-01 23:52:00,
2013-06-02 00:53:00,50.2,40.8,29.91,NNW,337,0.0,0.0,70,0.00,,,85.23,VWS V14.01,2013-06-01 23:53:00,
2013-06-02 00:54:00,49.8,40.8,29.91,NNW,337,0.0,0.0,71,0.00,,,85.23,VWS V14.01,2013-06-01 23:54:00,
2013-06-02 00:55:00,49.8,40.8,29.91,NNW,337,0.0,0.0,71,0.00,,,85.23,VWS V14.01,2013-06-01 23:55:00,
2013-06-02 00:56:00,49.8,40.8,29.91,North,0,0.0,0.0,71,0.00,,,85.23,VWS V14.01,2013-06-01 23:56:00,
2013-06-02 00:57:00,49.8,40.8,29.91,North,0,0.0,0.0,71,0.00,,,85.23,VWS V14.01,2013-06-01 23:57:00,
2013-06-02 00:58:00,49.8,40.8,29.91,North,0,0.0,0.0,71,0.00,,,85.23,VWS V14.01,2013-06-01 23:58:00,
2013-06-02 00:59:00,49.8,40.8,29.92,North,0,0.0,0.0,71,0.00,,,85.23,VWS V14.01,2013-06-01 23:59:00,
2013-06-02 01:00:00,49.8,40.8,29.91,North,0,0.0,0.0,71,0.00,,,85.23,VWS V14.01,2013-06-02 00:00:00,
2013-06-02 01:01:00,49.8,40.8,29.92,North,0,0.0,0.0,71,0.00,,,85.23,VWS V14.01,2013-06-02 00:01:00,
2013-06-02 01:02:00,49.6,40.6,29.92,North,0,0.0,0.0,71,0.00,,,85.23,VWS V14.01,2013-06-02 00:02:00,
2013-06-02 01:03:00,49.6,40.6,29.92,North,0,0.0,0.0,71,0.00,,,85.23,VWS V14.01,2013-06-02 00:03:00,
2013-06-02 01:04:00,49.6,41.0,29.92,North,0,0.0,0.0,72,0.00,,,85.23,VWS V14.01,2013-06-02 00:04:00,
2013-06-02 01:05:00,49.6,41.0,29.92,North,0,0.0,0.0,72,0.00,,,85.23,VWS V14.01,2013-06-02 00:05:00,
2013-06-02 01:06:00,49.6,41.0,29.92,North,0,0.0,0.0,72,0.00,,,85.23,VWS V14.01,2013-06-02 00:06:00,
2013-06-02 01:07:00,49.6,41.0,29.92,North,0,0.0,0.0,72,0.00,,,85.23,VWS V14.01,2013-06-02 00:07:00,
2013-06-02 01:08:00,49.6,41.0,29.92,North,0,0.0,0.0,72,0.00,,,85.23,VWS V14.01,2013-06-02 00:08:00,
2013-06-02 01:09:00,49.6,41.0,29.92,North,0,0.0,0.0,72,0.00,,,85.23,VWS V14.01,2013-06-02 00:09:00,
2013-06-02 01:10:00,49.6,41.0,29.92,North,0,0.0,0.0,72,0.00,,,85.23,VWS V14.01,2013-06-02 00:10:00,
2013-06-02 01:11:00,49.5,40.9,29.92,North,0,0.0,0.0,72,0.00,,,85.23,VWS V14.01,2013-06-02 00:11:00,
2013-06-02 01:12:00,49.3,40.7,29.92,North,0,0.0,0.0,72,0.00,,,85.23,VWS V14.01,2013-06-02 00:12:00,
2013-06-02 01:13:00,49.3,40.7,29.92,North,0,0.0,0.0,72,0.00,,,85.23,VWS V14.01,2013-06-02 00:13:00,
2013-06-02 01:14:00,49.3,40.7,29.92,North,0,0.0,0.0,72,0.00,,,85.23,VWS V14.01,2013-06-02 00:14:00,
2013-06-02 01:15:00,49.3,40.7,29.92,North,0,0.0,0.0,72,0.00,,,85.23,VWS V14.01,2013-06-02 00:15:00,
2013-06-02 01:16:00,49.3,41.0,29.92,North,0,0.0,0.0,73,0.00,,,85.23,VWS V14.01,2013-06-02 00:16:00,
2013-06-02 01:17:00,49.3,41.0,29.92,North,0,0.0,0.0,73,0.00,,,85.23,VWS V14.01,2013-06-02 00:17:00,
2013-06-02 01:18:00,49.3,41.0,29.92,North,0,0.0,0.0,73,0.00,,,85.23,VWS V14.01,2013-06-02 00:18:00,
2013-06-02 01:19:00,49.3,41.0,29.92,North,0,0.0,0.0,73,0.00,,,85.23,VWS V14.01,2013-06-02 00:19:00,
2013-06-02 01:20:00,49.3,41.0,29.92,North,0,0.0,0.0,73,0.00,,,85.23,VWS V14.01,2013-06-02 00:20:00,
2013-06-02 01:21:00,49.3,41.0,29.92,North,0,0.0,0.0,73,0.00,,,85.23,VWS V14.01,2013-06-02 00:21:00,
2013-06-02 01:22:00,49.3,41.0,29.92,North,0,0.0,0.0,73,0.00,,,85.23,VWS V14.01,2013-06-02 00:22:00,
2013-06-02 01:23:00,49.3,41.0,29.92,North,0,0.0,0.0,73,0.00,,,85.23,VWS V14.01,2013-06-02 00:23:00,
2013-06-02 01:24:00,49.3,41.0,29.92,North,0,0.0,0.0,73,0.00,,,85.23,VWS V14.01,2013-06-02 00:24:00,
2013-06-02 01:25:00,49.1,40.8,29.92,North,0,0.0,0.0,73,0.00,,,85.23,VWS V14.01,2013-06-02 00:25:00,
2013-06-02 01:26:00,49.1,40.8,29.91,North,0,0.0,0.0,73,0.00,,,85.23,VWS V14.01,2013-06-02 00:26:00,
2013-06-02 01:27:00,49.1,40.8,29.91,North,0,0.0,0.0,73,0.00,,,85.23,VWS V14.01,2013-06-02 00:27:00,
2013-06-02 01:28:00,49.1,40.8,29.92,North,0,0.0,0.0,73,0.00,,,85.23,VWS V14.01,2013-06-02 00:28:00,
2013-06-02 01:29:00,49.1,40.8,29.92,North,0,0.0,0.0,73,0.00,,,85.23,VWS V14.01,2013-06-02 00:29:00,
2013-06-02 01:30:00,49.1,40.8,29.92,North,0,0.0,0.0,73,0.00,,,85.23,VWS V14.01,2013-06-02 00:30:00,
2013-06-02 01:31:00,49.1,40.8,29.92,North,0,0.0,0.0,73,0.00,,,85.23,VWS V14.01,2013-06-02 00:31:00,
2013-06-02 01:32:00,49.1,40.8,29.92,North,0,0.0,0.0,73,0.00,,,85.23,VWS V14.01,2013-06-02 00:32:00,
2013-06-02 01:33:00,48.9,40.6,29.92,North,0,0.0,0.0,73,0.00,,,85.23,VWS V14.01,2013-06-02 00:33:00,
2013-06-02 01:34:00,48.9,40.6,29.92,North,0,0.0,0.0,73,0.00,,,85.23,VWS V14.01,2013-06-02 00:34:00,
2013-06-02 01:35:00,48.9,40.6,29.92,North,0,0.0,0.0,73,0.00,,,85.23,VWS V14.01,2013-06-02 00:35:00,
2013-06-02 01:36:00,48.9,40.6,29.92,North,0,0.0,0.0,73,0.00,,,85.23,VWS V14.01,2013-06-02 00:36:00,
2013-06-02 01:37:00,48.9,40.6,29.92,North,0,0.0,0.0,73,0.00,,,85.23,VWS V14.01,2013-06-02 00:37:00,
2013-06-02 01:38:00,48.9,40.6,29.92,North,0,0.0,0.0,73,0.00,,,85.23,VWS V14.01,2013-06-02 00:38:00,
2013-06-02 01:39:00,48.7,40.5,29.92,North,0,0.0,0.0,73,0.00,,,85.23,VWS V14.01,2013-06-02 00:39:00,
2013-06-02 01:40:00,48.7,40.5,29.92,North,0,0.0,0.0,73,0.00,,,85.23,VWS V14.01,2013-06-02 00:40:00,
2013-06-02 01:41:00,48.7,40.5,29.92,North,0,0.0,0.0,73,0.00,,,85.23,VWS V14.01,2013-06-02 00:41:00,
2013-06-02 01:42:00,48.7,40.5,29.92,North,0,0.0,0.0,73,0.00,,,85.23,VWS V14.01,2013-06-02 00:42:00,
2013-06-02 01:43:00,48.7,40.5,29.92,North,0,0.0,0.0,73,0.00,,,85.23,VWS V14.01,2013-06-02 00:43:00,
2013-06-02 01:44:00,48.7,40.5,29.92,North,0,0.0,0.0,73,0.00,,,85.23,VWS V14.01,2013-06-02 00:44:00,
2013-06-02 01:45:00,48.7,40.8,29.92,North,0,0.0,0.0,74,0.00,,,85.23,VWS V14.01,2013-06-02 00:45:00,
2013-06-02 01:46:00,48.6,40.7,29.92,North,0,0.0,0.0,74,0.00,,,85.23,VWS V14.01,2013-06-02 00:46:00,
2013-06-02 01:47:00,48.6,40.7,29.91,North,0,0.0,0.0,74,0.00,,,85.23,VWS V14.01,2013-06-02 00:47:00,
2013-06-02 01:48:00,48.6,40.7,29.91,North,0,0.0,0.0,74,0.00,,,85.23,VWS V14.01,2013-06-02 00:48:00,
2013-06-02 01:49:00,48.4,40.5,29.91,North,0,0.0,0.0,74,0.00,,,85.23,VWS V14.01,2013-06-02 00:49:00,
2013-06-02 01:50:00,48.4,40.5,29.92,North,0,0.0,0.0,74,0.00,,,85.23,VWS V14.01,2013-06-02 00:50:00,
2013-06-02 01:51:00,48.4,40.5,29.92,North,0,0.0,0.0,74,0.00,,,85.23,VWS V14.01,2013-06-02 00:51:00,
2013-06-02 01:52:00,48.4,40.5,29.92,North,0,0.0,0.0,74,0.00,,,85.23,VWS V14.01,2013-06-02 00:52:00,
2013-06-02 01:53:00,48.4,40.5,29.92,North,0,0.0,0.0,74,0.00,,,85.23,VWS V14.01,2013-06-02 00:53:00,
2013-06-02 01:54:00,48.4,40.8,29.92,North,0,0.0,0.0,75,0.00,,,85.23,VWS V14.01,2013-06-02 00:54:00,
2013-06-02 01:55:00,48.4,40.8,29.92,North,0,0.0,0.0,75,0.00,,,85.23,VWS V14.01,2013-06-02 00:55:00,
2013-06-02 01:56:00,48.2,40.7,29.92,North,0,0.0,0.0,75,0.00,,,85.23,VWS V14.01,2013-06-02 00:56:00,
2013-06-02 01:57:00,48.2,40.7,29.92,North,0,0.0,0.0,75,0.00,,,85.23,VWS V14.01,2013-06-02 00:57:00,
2013-06-02 01:58:00,48.2,40.7,29.92,North,0,0.0,0.0,75,0.00,,,85.23,VWS V14.01,2013-06-02 00:58:00,
2013-06-02 01:59:00,48.2,40.7,29.92,North,0,0.0,0.0,75,0.00,,,85.23,VWS V14.01,2013-06-02 00:59:00,
2013-06-02 02:00:00,48.2,40.7,29.92,North,0,0.0,0.0,75,0.00,,,85.23,VWS V14.01,2013-06-02 01:00:00,
2013-06-02 02:01:00,48.0,40.5,29.92,North,0,0.0,0.0,75,0.00,,,85.23,VWS V14.01,2013-06-02 01:01:00,
2013-06-02 02:02:00,48.0,40.5,29.92,North,0,0.0,0.0,75,0.00,,,85.23,VWS V14.01,2013-06-02 01:02:00,
2013-06-02 02:03:00,48.0,40.5,29.92,North,0,0.0,0.0,75,0.00,,,85.23,VWS V14.01,2013-06-02 01:03:00,
2013-06-02 02:04:00,48.0,40.5,29.92,North,0,0.0,0.0,75,0.00,,,85.23,VWS V14.01,2013-06-02 01:04:00,
2013-06-02 02:05:00,48.0,40.5,29.92,North,0,0.0,0.0,75,0.00,,,85.23,VWS V14.01,2013-06-02 01:05:00,
2013-06-02 02:06:00,48.0,40.5,29.92,North,0,0.0,0.0,75,0.00,,,85.23,VWS V14.01,2013-06-02 01:06:00,
2013-06-02 02:07:00,47.8,40.3,29.92,North,0,0.0,0.0,75,0.00,,,85.23,VWS V14.01,2013-06-02 01:07:00,
2013-06-02 02:08:00,47.8,40.3,29.92,North,0,0.0,0.0,75,0.00,,,85.23,VWS V14.01,2013-06-02 01:08:00,
2013-06-02 02:09:00,47.8,40.3,29.92,North,0,0.0,0.0,75,0.00,,,85.23,VWS V14.01,2013-06-02 01:09:00,
2013-06-02 02:10:00,47.8,40.3,29.93,North,0,0.0,0.0,75,0.00,,,85.23,VWS V14.01,2013-06-02 01:10:00,
2013-06-02 02:11:00,47.8,40.3,29.92,North,0,0.0,0.0,75,0.00,,,85.23,VWS V14.01,2013-06-02 01:11:00,
2013-06-02 02:12:00,47.7,40.2,29.92,North,0,0.0,0.0,75,0.00,,,85.23,VWS V14.01,2013-06-02 01:12:00,
2013-06-02 02:13:00,47.7,40.2,29.92,North,0,0.0,0.0,75,0.00,,,85.23,VWS V14.01,2013-06-02 01:13:00,
2013-06-02 02:14:00,47.5,40.0,29.93,North,0,0.0,0.0,75,0.00,,,85.23,VWS V14.01,2013-06-02 01:14:00,
2013-06-02 02:15:00,47.5,40.0,29.93,North,0,0.0,0.0,75,0.00,,,85.23,VWS V14.01,2013-06-02 01:15:00,
2013-06-02 02:16:00,47.5,40.3,29.93,North,0,0.0,0.0,76,0.00,,,85.23,VWS V14.01,2013-06-02 01:16:00,
2013-06-02 02:17:00,47.5,40.3,29.93,North,0,0.0,0.0,76,0.00,,,85.23,VWS V14.01,2013-06-02 01:17:00,
2013-06-02 02:18:00,47.3,40.1,29.93,North,0,0.0,0.0,76,0.00,,,85.23,VWS V14.01,2013-06-02 01:18:00,
2013-06-02 02:19:00,47.3,40.1,29.93,North,0,0.0,0.0,76,0.00,,,85.23,VWS V14.01,2013-06-02 01:19:00,
2013-06-02 02:20:00,47.3,40.1,29.93,North,0,0.0,0.0,76,0.00,,,85.23,VWS V14.01,2013-06-02 01:20:00,
2013-06-02 02:21:00,47.1,39.9,29.93,North,0,0.0,0.0,76,0.00,,,85.23,VWS V14.01,2013-06-02 01:21:00,
2013-06-02 02:22:00,47.1,40.3,29.93,North,0,0.0,0.0,77,0.00,,,85.23,VWS V14.01,2013-06-02 01:22:00,
2013-06-02 02:23:00,47.1,40.3,29.92,North,0,0.0,0.0,77,0.00,,,85.23,VWS V14.01,2013-06-02 01:23:00,
2013-06-02 02:24:00,47.1,40.3,29.92,North,0,0.0,0.0,77,0.00,,,85.23,VWS V14.01,2013-06-02 01:24:00,
2013-06-02 02:25:00,47.1,40.3,29.93,North,0,0.0,0.0,77,0.00,,,85.23,VWS V14.01,2013-06-02 01:25:00,
2013-06-02 02:26:00,47.1,39.9,29.92,North,0,0.0,0.0,76,0.00,,,85.23,VWS V14.01,2013-06-02 01:26:00,
2013-06-02 02:27:00,47.1,39.9,29.92,North,0,0.0,0.0,76,0.00,,,85.23,VWS V14.01,2013-06-02 01:27:00,
2013-06-02 02:28:00,47.1,39.9,29.93,North,0,0.0,0.0,76,0.00,,,85.23,VWS V14.01,2013-06-02 01:28:00,
2013-06-02 02:29:00,47.1,40.3,29.93,North,0,0.0,0.0,77,0.00,,,85.23,VWS V14.01,2013-06-02 01:29:00,
2013-06-02 02:30:00,47.1,40.3,29.93,North,0,0.0,0.0,77,0.00,,,85.23,VWS V14.01,2013-06-02 01:30:00,
2013-06-02 02:31:00,47.1,40.3,29.93,North,0,0.0,0.0,77,0.00,,,85.23,VWS V14.01,2013-06-02 01:31:00,
2013-06-02 02:32:00,47.1,40.3,29.93,North,0,0.0,0.0,77,0.00,,,85.23,VWS V14.01,2013-06-02 01:32:00,
2013-06-02 02:33:00,46.9,40.1,29.93,North,0,0.0,0.0,77,0.00,,,85.23,VWS V14.01,2013-06-02 01:33:00,
2013-06-02 02:34:00,46.9,40.1,29.93,North,0,0.0,0.0,77,0.00,,,85.23,VWS V14.01,2013-06-02 01:34:00,
2013-06-02 02:35:00,46.9,40.1,29.93,North,0,0.0,0.0,77,0.00,,,85.23,VWS V14.01,2013-06-02 01:35:00,
2013-06-02 02:36:00,46.9,40.1,29.93,North,0,0.0,0.0,77,0.00,,,85.23,VWS V14.01,2013-06-02 01:36:00,
2013-06-02 02:37:00,46.9,40.1,29.93,North,0,0.0,0.0,77,0.00,,,85.23,VWS V14.01,2013-06-02 01:37:00,
2013-06-02 02:38:00,46.9,40.1,29.93,North,0,0.0,0.0,77,0.00,,,85.23,VWS V14.01,2013-06-02 01:38:00,
2013-06-02 02:39:00,46.9,40.1,29.93,North,0,0.0,0.0,77,0.00,,,85.23,VWS V14.01,2013-06-02 01:39:00,
2013-06-02 02:40:00,46.9,40.4,29.93,North,0,0.0,0.0,78,0.00,,,85.23,VWS V14.01,2013-06-02 01:40:00,
2013-06-02 02:41:00,46.9,40.4,29.93,North,0,0.0,0.0,78,0.00,,,85.23,VWS V14.01,2013-06-02 01:41:00,
2013-06-02 02:42:00,46.9,40.4,29.93,North,0,0.0,0.0,78,0.00,,,85.23,VWS V14.01,2013-06-02 01:42:00,
2013-06-02 02:43:00,46.9,40.4,29.93,North,0,0.0,0.0,78,0.00,,,85.23,VWS V14.01,2013-06-02 01:43:00,
2013-06-02 02:44:00,46.9,40.4,29.93,North,0,0.0,0.0,78,0.00,,,85.23,VWS V14.01,2013-06-02 01:44:00,
2013-06-02 02:45:00,46.9,40.4,29.93,North,0,0.0,0.0,78,0.00,,,85.23,VWS V14.01,2013-06-02 01:45:00,
2013-06-02 02:46:00,46.9,40.4,29.93,North,0,0.0,0.0,78,0.00,,,85.23,VWS V14.01,2013-06-02 01:46:00,
2013-06-02 02:47:00,46.9,40.4,29.93,North,0,0.0,0.0,78,0.00,,,85.23,VWS V14.01,2013-06-02 01:47:00,
2013-06-02 02:48:00,46.9,40.4,29.93,North,0,0.0,0.0,78,0.00,,,85.23,VWS V14.01,2013-06-02 01:48:00,
2013-06-02 02:49:00,46.9,40.4,29.92,North,0,0.0,0.0,78,0.00,,,85.23,VWS V14.01,2013-06-02 01:49:00,
2013-06-02 02:50:00,46.9,40.4,29.93,North,0,0.0,0.0,78,0.00,,,85.23,VWS V14.01,2013-06-02 01:50:00,
2013-06-02 02:51:00,46.9,40.4,29.93,North,0,0.0,0.0,78,0.00,,,85.23,VWS V14.01,2013-06-02 01:51:00,
2013-06-02 02:52:00,46.8,40.3,29.93,North,0,0.0,0.0,78,0.00,,,85.23,VWS V14.01,2013-06-02 01:52:00,
2013-06-02 02:53:00,46.8,40.3,29.93,North,0,0.0,0.0,78,0.00,,,85.23,VWS V14.01,2013-06-02 01:53:00,
2013-06-02 02:54:00,46.9,40.4,29.93,North,0,0.0,0.0,78,0.00,,,85.23,VWS V14.01,2013-06-02 01:54:00,
2013-06-02 02:55:00,46.8,40.3,29.93,North,0,0.0,0.0,78,0.00,,,85.23,VWS V14.01,2013-06-02 01:55:00,
2013-06-02 02:56:00,46.8,40.3,29.93,North,0,0.0,0.0,78,0.00,,,85.23,VWS V14.01,2013-06-02 01:56:00,
2013-06-02 02:57:00,46.8,40.3,29.93,North,0,0.0,0.0,78,0.00,,,85.23,VWS V14.01,2013-06-02 01:57:00,
2013-06-02 02:58:00,46.8,40.3,29.93,North,0,0.0,0.0,78,0.00,,,85.23,VWS V14.01,2013-06-02 01:58:00,
2013-06-02 02:59:00,46.6,40.1,29.93,North,0,0.0,0.0,78,0.00,,,85.23,VWS V14.01,2013-06-02 01:59:00,
2013-06-02 03:00:00,46.6,40.1,29.93,North,0,0.0,0.0,78,0.00,,,85.23,VWS V14.01,2013-06-02 02:00:00,
2013-06-02 03:01:00,46.6,40.1,29.93,North,0,0.0,0.0,78,0.00,,,85.23,VWS V14.01,2013-06-02 02:01:00,
2013-06-02 03:02:00,46.6,40.1,29.93,North,0,0.0,0.0,78,0.00,,,85.23,VWS V14.01,2013-06-02 02:02:00,
2013-06-02 03:03:00,46.6,40.1,29.92,North,0,0.0,0.0,78,0.00,,,85.23,VWS V14.01,2013-06-02 02:03:00,
2013-06-02 03:04:00,46.6,40.1,29.93,North,0,0.0,0.0,78,0.00,,,85.23,VWS V14.01,2013-06-02 02:04:00,
2013-06-02 03:05:00,46.6,40.1,29.93,North,0,0.0,0.0,78,0.00,,,85.23,VWS V14.01,2013-06-02 02:05:00,
2013-06-02 03:06:00,46.6,40.1,29.93,North,0,0.0,0.0,78,0.00,,,85.23,VWS V14.01,2013-06-02 02:06:00,
2013-06-02 03:07:00,46.6,40.5,29.93,North,0,0.0,0.0,79,0.00,,,85.23,VWS V14.01,2013-06-02 02:07:00,
2013-06-02 03:08:00,46.6,40.5,29.93,North,0,0.0,0.0,79,0.00,,,85.23,VWS V14.01,2013-06-02 02:08:00,
2013-06-02 03:09:00,46.6,40.5,29.93,North,0,0.0,0.0,79,0.00,,,85.23,VWS V14.01,2013-06-02 02:09:00,
2013-06-02 03:10:00,46.6,40.5,29.93,North,0,0.0,0.0,79,0.00,,,85.23,VWS V14.01,2013-06-02 02:10:00,
2013-06-02 03:11:00,46.8,40.6,29.93,North,0,0.0,0.0,79,0.00,,,85.23,VWS V14.01,2013-06-02 02:11:00,
2013-06-02 03:12:00,46.8,40.6,29.93,North,0,0.0,0.0,79,0.00,,,85.23,VWS V14.01,2013-06-02 02:12:00,
2013-06-02 03:13:00,46.8,40.6,29.93,North,0,0.0,0.0,79,0.00,,,85.23,VWS V14.01,2013-06-02 02:13:00,
2013-06-02 03:14:00,46.9,40.7,29.93,North,0,0.0,0.0,79,0.00,,,85.23,VWS V14.01,2013-06-02 02:14:00,
2013-06-02 03:15:00,46.9,40.7,29.93,North,0,0.0,0.0,79,0.00,,,85.23,VWS V14.01,2013-06-02 02:15:00,
2013-06-02 03:16:00,46.9,40.7,29.92,North,0,0.0,0.0,79,0.00,,,85.23,VWS V14.01,2013-06-02 02:16:00,
2013-06-02 03:17:00,47.1,40.9,29.93,North,0,0.0,0.0,79,0.00,,,85.23,VWS V14.01,2013-06-02 02:17:00,
2013-06-02 03:18:00,47.1,40.9,29.92,North,0,0.0,0.0,79,0.00,,,85.23,VWS V14.01,2013-06-02 02:18:00,
2013-06-02 03:19:00,47.1,40.9,29.92,North,0,0.0,0.0,79,0.00,,,85.23,VWS V14.01,2013-06-02 02:19:00,
2013-06-02 03:20:00,47.1,40.9,29.93,North,0,0.0,0.0,79,0.00,,,85.23,VWS V14.01,2013-06-02 02:20:00,
2013-06-02 03:21:00,47.3,41.1,29.93,North,0,0.0,0.0,79,0.00,,,85.23,VWS V14.01,2013-06-02 02:21:00,
2013-06-02 03:22:00,47.3,41.1,29.93,North,0,0.0,0.0,79,0.00,,,85.23,VWS V14.01,2013-06-02 02:22:00,
2013-06-02 03:23:00,47.5,41.3,29.93,North,0,0.0,0.0,79,0.00,,,85.23,VWS V14.01,2013-06-02 02:23:00,
2013-06-02 03:24:00,47.5,41.3,29.93,North,0,0.0,0.0,79,0.00,,,85.23,VWS V14.01,2013-06-02 02:24:00,
2013-06-02 03:25:00,47.7,41.5,29.93,North,0,0.0,0.0,79,0.00,,,85.23,VWS V14.01,2013-06-02 02:25:00,
2013-06-02 03:26:00,47.8,41.6,29.93,North,0,0.0,0.0,79,0.00,,,85.23,VWS V14.01,2013-06-02 02:26:00,
2013-06-02 03:27:00,47.8,41.6,29.93,North,0,0.0,0.0,79,0.00,,,85.23,VWS V14.01,2013-06-02 02:27:00,
2013-06-02 03:28:00,47.8,41.6,29.93,North,0,0.0,0.0,79,0.00,,,85.23,VWS V14.01,2013-06-02 02:28:00,
2013-06-02 03:29:00,48.0,41.8,29.93,North,0,0.0,0.0,79,0.00,,,85.23,VWS V14.01,2013-06-02 02:29:00,
2013-06-02 03:30:00,48.0,41.8,29.93,North,0,0.0,0.0,79,0.00,,,85.23,VWS V14.01,2013-06-02 02:30:00,
2013-06-02 03:31:00,48.0,41.8,29.93,North,0,0.0,0.0,79,0.00,,,85.23,VWS V14.01,2013-06-02 02:31:00,
2013-06-02 03:32:00,48.0,41.5,29.93,North,0,0.0,0.0,78,0.00,,,85.23,VWS V14.01,2013-06-02 02:32:00,
2013-06-02 03:33:00,48.2,41.7,29.93,North,0,0.0,0.0,78,0.00,,,85.23,VWS V14.01,2013-06-02 02:33:00,
2013-06-02 03:34:00,48.2,41.7,29.93,North,0,0.0,0.0,78,0.00,,,85.23,VWS V14.01,2013-06-02 02:34:00,
2013-06-02 03:35:00,48.2,41.7,29.93,North,0,0.0,0.0,78,0.00,,,85.23,VWS V14.01,2013-06-02 02:35:00,
2013-06-02 03:36:00,48.4,41.9,29.93,North,0,0.0,0.0,78,0.00,,,85.23,VWS V14.01,2013-06-02 02:36:00,
2013-06-02 03:37:00,48.4,41.9,29.93,North,0,0.0,0.0,78,0.00,,,85.23,VWS V14.01,2013-06-02 02:37:00,
2013-06-02 03:38:00,48.4,41.9,29.93,North,0,0.0,0.0,78,0.00,,,85.23,VWS V14.01,2013-06-02 02:38:00,
2013-06-02 03:40:00,48.4,41.5,29.93,North,0,0.0,0.0,77,0.00,,,85.23,VWS V14.01,2013-06-02 02:40:00,
2013-06-02 03:41:00,48.4,41.5,29.93,North,0,0.0,0.0,77,0.00,,,85.23,VWS V14.01,2013-06-02 02:41:00,
2013-06-02 03:42:00,48.4,41.5,29.93,North,0,0.0,0.0,77,0.00,,,85.23,VWS V14.01,2013-06-02 02:42:00,
2013-06-02 03:43:00,48.4,41.5,29.93,North,0,0.0,0.0,77,0.00,,,85.23,VWS V14.01,2013-06-02 02:43:00,
2013-06-02 03:44:00,48.2,41.3,29.93,North,0,0.0,0.0,77,0.00,,,85.23,VWS V14.01,2013-06-02 02:44:00,
2013-06-02 03:45:00,48.2,41.3,29.93,North,0,0.0,0.0,77,0.00,,,85.23,VWS V14.01,2013-06-02 02:45:00,
2013-06-02 03:46:00,48.2,41.3,29.93,North,0,0.0,0.0,77,0.00,,,85.23,VWS V14.01,2013-06-02 02:46:00,
2013-06-02 03:47:00,48.2,41.3,29.93,North,0,0.0,0.0,77,0.00,,,85.23,VWS V14.01,2013-06-02 02:47:00,
2013-06-02 03:48:00,48.0,41.2,29.93,North,0,0.0,0.0,77,0.00,,,85.23,VWS V14.01,2013-06-02 02:48:00,
2013-06-02 03:49:00,48.0,41.2,29.93,North,0,0.0,0.0,77,0.00,,,85.23,VWS V14.01,2013-06-02 02:49:00,
2013-06-02 03:50:00,48.0,41.2,29.93,North,0,0.0,0.0,77,0.00,,,85.23,VWS V14.01,2013-06-02 02:50:00,
2013-06-02 03:51:00,48.0,41.2,29.93,North,0,0.0,0.0,77,0.00,,,85.23,VWS V14.01,2013-06-02 02:51:00,
2013-06-02 03:52:00,47.8,41.0,29.93,North,0,0.0,0.0,77,0.00,,,85.23,VWS V14.01,2013-06-02 02:52:00,
2013-06-02 03:53:00,47.8,41.0,29.93,North,0,0.0,0.0,77,0.00,,,85.23,VWS V14.01,2013-06-02 02:53:00,
2013-06-02 03:54:00,47.8,41.0,29.93,North,0,0.0,0.0,77,0.00,,,85.23,VWS V14.01,2013-06-02 02:54:00,
2013-06-02 03:55:00,47.8,41.0,29.93,North,0,0.0,0.0,77,0.00,,,85.23,VWS V14.01,2013-06-02 02:55:00,
2013-06-02 03:56:00,47.7,40.8,29.93,North,0,0.0,0.0,77,0.00,,,85.23,VWS V14.01,2013-06-02 02:56:00,
2013-06-02 03:57:00,47.7,40.8,29.93,North,0,0.0,0.0,77,0.00,,,85.23,VWS V14.01,2013-06-02 02:57:00,
2013-06-02 03:58:00,47.5,41.0,29.93,North,0,0.0,0.0,78,0.00,,,85.23,VWS V14.01,2013-06-02 02:58:00,
2013-06-02 03:59:00,47.5,41.0,29.93,North,0,0.0,0.0,78,0.00,,,85.23,VWS V14.01,2013-06-02 02:59:00,
2013-06-02 04:00:00,47.5,41.0,29.93,North,0,0.0,0.0,78,0.00,,,85.23,VWS V14.01,2013-06-02 03:00:00,
2013-06-02 04:01:00,47.5,41.0,29.93,North,0,0.0,0.0,78,0.00,,,85.23,VWS V14.01,2013-06-02 03:01:00,
2013-06-02 04:02:00,47.3,40.8,29.93,North,0,0.0,0.0,78,0.00,,,85.23,VWS V14.01,2013-06-02 03:02:00,
2013-06-02 04:03:00,47.3,40.8,29.93,North,0,0.0,0.0,78,0.00,,,85.23,VWS V14.01,2013-06-02 03:03:00,
2013-06-02 04:04:00,47.3,40.8,29.93,North,0,0.0,0.0,78,0.00,,,85.23,VWS V14.01,2013-06-02 03:04:00,
2013-06-02 04:05:00,47.1,40.6,29.93,North,0,0.0,0.0,78,0.00,,,85.23,VWS V14.01,2013-06-02 03:05:00,
2013-06-02 04:06:00,47.1,40.6,29.93,North,0,0.0,0.0,78,0.00,,,85.23,VWS V14.01,2013-06-02 03:06:00,
2013-06-02 04:07:00,47.1,40.6,29.93,North,0,0.0,0.0,78,0.00,,,85.23,VWS V14.01,2013-06-02 03:07:00,
2013-06-02 04:08:00,47.1,40.6,29.93,North,0,0.0,0.0,78,0.00,,,85.23,VWS V14.01,2013-06-02 03:08:00,
2013-06-02 04:09:00,47.1,40.6,29.93,North,0,0.0,0.0,78,0.00,,,85.23,VWS V14.01,2013-06-02 03:09:00,
2013-06-02 04:10:00,46.9,40.7,29.93,North,0,0.0,0.0,79,0.00,,,85.23,VWS V14.01,2013-06-02 03:10:00,
2013-06-02 04:11:00,46.9,40.7,29.93,North,0,0.0,0.0,79,0.00,,,85.23,VWS V14.01,2013-06-02 03:11:00,
2013-06-02 04:12:00,46.9,40.7,29.93,North,0,0.0,0.0,79,0.00,,,85.23,VWS V14.01,2013-06-02 03:12:00,
2013-06-02 04:13:00,46.9,40.7,29.93,North,0,0.0,0.0,79,0.00,,,85.23,VWS V14.01,2013-06-02 03:13:00,
2013-06-02 04:14:00,46.9,40.7,29.93,North,0,0.0,0.0,79,0.00,,,85.23,VWS V14.01,2013-06-02 03:14:00,
2013-06-02 04:15:00,46.8,40.6,29.93,North,0,0.0,0.0,79,0.00,,,85.23,VWS V14.01,2013-06-02 03:15:00,
2013-06-02 04:16:00,46.8,40.6,29.93,North,0,0.0,0.0,79,0.00,,,85.23,VWS V14.01,2013-06-02 03:16:00,
2013-06-02 04:17:00,46.8,41.0,29.93,North,0,0.0,0.0,80,0.00,,,85.23,VWS V14.01,2013-06-02 03:17:00,
2013-06-02 04:18:00,46.8,41.0,29.93,North,0,0.0,0.0,80,0.00,,,85.23,VWS V14.01,2013-06-02 03:18:00,
2013-06-02 04:19:00,46.8,40.6,29.93,North,0,0.0,0.0,79,0.00,,,85.23,VWS V14.01,2013-06-02 03:19:00,
2013-06-02 04:20:00,46.8,40.6,29.93,North,0,0.0,0.0,79,0.00,,,85.23,VWS V14.01,2013-06-02 03:20:00,
2013-06-02 04:21:00,46.6,40.5,29.93,North,0,0.0,0.0,79,0.00,,,85.23,VWS V14.01,2013-06-02 03:21:00,
2013-06-02 04:22:00,46.6,40.8,29.93,North,0,0.0,0.0,80,0.00,,,85.23,VWS V14.01,2013-06-02 03:22:00,
2013-06-02 04:23:00,46.6,40.8,29.93,North,0,0.0,0.0,80,0.00,,,85.23,VWS V14.01,2013-06-02 03:23:00,
2013-06-02 04:24:00,46.6,40.8,29.93,North,0,0.0,0.0,80,0.00,,,85.23,VWS V14.01,2013-06-02 03:24:00,
2013-06-02 04:25:00,46.6,40.8,29.93,North,0,0.0,0.0,80,0.00,,,85.23,VWS V14.01,2013-06-02 03:25:00,
2013-06-02 04:26:00,46.6,40.8,29.93,North,0,0.0,0.0,80,0.00,,,85.23,VWS V14.01,2013-06-02 03:26:00,
2013-06-02 04:27:00,46.6,40.8,29.93,North,0,0.0,0.0,80,0.00,,,85.23,VWS V14.01,2013-06-02 03:27:00,
2013-06-02 04:28:00,46.6,40.8,29.93,North,0,0.0,0.0,80,0.00,,,85.23,VWS V14.01,2013-06-02 03:28:00,
2013-06-02 04:29:00,46.6,40.8,29.93,North,0,0.0,0.0,80,0.00,,,85.23,VWS V14.01,2013-06-02 03:29:00,
2013-06-02 04:30:00,46.6,40.8,29.93,North,0,0.0,0.0,80,0.00,,,85.23,VWS V14.01,2013-06-02 03:30:00,
2013-06-02 04:31:00,46.8,41.0,29.93,North,0,0.0,0.0,80,0.00,,,85.23,VWS V14.01,2013-06-02 03:31:00,
2013-06-02 04:32:00,46.8,41.0,29.93,North,0,0.0,0.0,80,0.00,,,85.23,VWS V14.01,2013-06-02 03:32:00,
2013-06-02 04:33:00,46.8,41.3,29.93,North,0,0.0,0.0,81,0.00,,,85.23,VWS V14.01,2013-06-02 03:33:00,
2013-06-02 04:34:00,46.9,41.4,29.93,North,0,0.0,0.0,81,0.00,,,85.23,VWS V14.01,2013-06-02 03:34:00,
2013-06-02 04:35:00,46.9,41.4,29.93,North,0,0.0,0.0,81,0.00,,,85.23,VWS V14.01,2013-06-02 03:35:00,
2013-06-02 04:36:00,46.9,41.1,29.93,North,0,0.0,0.0,80,0.00,,,85.23,VWS V14.01,2013-06-02 03:36:00,
2013-06-02 04:37:00,46.9,41.4,29.93,North,0,0.0,0.0,81,0.00,,,85.23,VWS V14.01,2013-06-02 03:37:00,
2013-06-02 04:38:00,46.9,41.4,29.93,North,0,0.0,0.0,81,0.00,,,85.23,VWS V14.01,2013-06-02 03:38:00,
2013-06-02 04:39:00,46.9,41.4,29.93,North,0,0.0,0.0,81,0.00,,,85.23,VWS V14.01,2013-06-02 03:39:00,
2013-06-02 04:40:00,46.9,41.4,29.93,North,0,0.0,0.0,81,0.00,,,85.23,VWS V14.01,2013-06-02 03:40:00,
2013-06-02 04:41:00,46.9,41.4,29.93,North,0,0.0,0.0,81,0.00,,,85.23,VWS V14.01,2013-06-02 03:41:00,
2013-06-02 04:42:00,47.1,41.6,29.93,North,0,0.0,0.0,81,0.00,,,85.23,VWS V14.01,2013-06-02 03:42:00,
2013-06-02 04:43:00,47.1,41.3,29.93,North,0,0.0,0.0,80,0.00,,,85.23,VWS V14.01,2013-06-02 03:43:00,
2013-06-02 04:44:00,47.1,41.6,29.93,North,0,0.0,0.0,81,0.00,,,85.23,VWS V14.01,2013-06-02 03:44:00,
2013-06-02 04:45:00,47.1,41.3,29.93,North,0,0.0,0.0,80,0.00,,,85.23,VWS V14.01,2013-06-02 03:45:00,
2013-06-02 04:46:00,47.1,41.3,29.93,North,0,0.0,0.0,80,0.00,,,85.23,VWS V14.01,2013-06-02 03:46:00,
2013-06-02 04:47:00,47.1,41.3,29.93,North,0,0.0,0.0,80,0.00,,,85.23,VWS V14.01,2013-06-02 03:47:00,
2013-06-02 04:48:00,47.1,41.3,29.93,North,0,0.0,0.0,80,0.00,,,85.23,VWS V14.01,2013-06-02 03:48:00,
2013-06-02 04:49:00,46.9,41.1,29.94,North,0,0.0,0.0,80,0.00,,,85.23,VWS V14.01,2013-06-02 03:49:00,
2013-06-02 04:50:00,46.9,41.1,29.93,North,0,0.0,0.0,80,0.00,,,85.23,VWS V14.01,2013-06-02 03:50:00,
2013-06-02 04:51:00,46.9,41.1,29.94,North,0,0.0,0.0,80,0.00,,,85.23,VWS V14.01,2013-06-02 03:51:00,
2013-06-02 04:52:00,46.9,41.1,29.93,North,0,0.0,0.0,80,0.00,,,85.23,VWS V14.01,2013-06-02 03:52:00,
2013-06-02 04:53:00,46.9,41.1,29.94,North,0,0.0,0.0,80,0.00,,,85.23,VWS V14.01,2013-06-02 03:53:00,
2013-06-02 04:54:00,46.9,41.1,29.94,North,0,0.0,0.0,80,0.00,,,85.23,VWS V14.01,2013-06-02 03:54:00,
2013-06-02 04:55:00,46.9,41.1,29.93,North,0,0.0,0.0,80,0.00,,,85.23,VWS V14.01,2013-06-02 03:55:00,
2013-06-02 04:56:00,46.9,41.4,29.93,North,0,0.0,0.0,81,0.00,,,85.23,VWS V14.01,2013-06-02 03:56:00,
2013-06-02 04:57:00,46.9,41.4,29.93,North,0,0.0,0.0,81,0.00,,,85.23,VWS V14.01,2013-06-02 03:57:00,
2013-06-02 04:58:00,46.8,41.3,29.93,North,0,0.0,0.0,81,0.00,,,85.23,VWS V14.01,2013-06-02 03:58:00,
2013-06-02 04:59:00,46.8,41.3,29.94,North,0,0.0,0.0,81,0.00,,,85.23,VWS V14.01,2013-06-02 03:59:00,
2013-06-02 05:00:00,46.8,41.3,29.93,North,0,0.0,0.0,81,0.00,,,85.23,VWS V14.01,2013-06-02 04:00:00,
2013-06-02 05:01:00,46.8,41.3,29.94,North,0,0.0,0.0,81,0.00,,,85.23,VWS V14.01,2013-06-02 04:01:00,
2013-06-02 05:02:00,46.8,41.3,29.93,North,0,0.0,0.0,81,0.00,,,85.23,VWS V14.01,2013-06-02 04:02:00,
2013-06-02 05:03:00,46.6,41.1,29.94,North,0,0.0,0.0,81,0.00,,,85.23,VWS V14.01,2013-06-02 04:03:00,
2013-06-02 05:04:00,46.6,41.1,29.94,North,0,0.0,0.0,81,0.00,,,85.23,VWS V14.01,2013-06-02 04:04:00,
2013-06-02 05:05:00,46.6,41.1,29.94,North,0,0.0,0.0,81,0.00,,,85.23,VWS V14.01,2013-06-02 04:05:00,
2013-06-02 05:06:00,46.6,41.1,29.94,North,0,0.0,0.0,81,0.00,,,85.23,VWS V14.01,2013-06-02 04:06:00,
2013-06-02 05:07:00,46.6,41.1,29.94,North,0,0.0,0.0,81,0.00,,,85.23,VWS V14.01,2013-06-02 04:07:00,
2013-06-02 05:08:00,46.6,41.1,29.94,North,0,0.0,0.0,81,0.00,,,85.23,VWS V14.01,2013-06-02 04:08:00,
2013-06-02 05:09:00,46.6,41.1,29.94,North,0,0.0,0.0,81,0.00,,,85.23,VWS V14.01,2013-06-02 04:09:00,
2013-06-02 05:10:00,46.6,41.1,29.94,North,0,0.0,0.0,81,0.00,,,85.23,VWS V14.01,2013-06-02 04:10:00,
2013-06-02 05:11:00,46.2,40.7,29.94,North,0,0.0,0.0,81,0.00,,,85.23,VWS V14.01,2013-06-02 04:11:00,
2013-06-02 05:12:00,46.4,40.9,29.94,North,0,0.0,0.0,81,0.00,,,85.23,VWS V14.01,2013-06-02 04:12:00,
2013-06-02 05:13:00,46.2,40.7,29.94,North,0,0.0,0.0,81,0.00,,,85.23,VWS V14.01,2013-06-02 04:13:00,
2013-06-02 05:14:00,46.2,40.7,29.94,North,0,0.0,0.0,81,0.00,,,85.23,VWS V14.01,2013-06-02 04:14:00,
2013-06-02 05:15:00,46.2,40.7,29.94,North,0,0.0,0.0,81,0.00,,,85.23,VWS V14.01,2013-06-02 04:15:00,
2013-06-02 05:16:00,46.2,40.7,29.94,North,0,0.0,0.0,81,0.00,,,85.23,VWS V14.01,2013-06-02 04:16:00,
2013-06-02 05:17:00,46.2,40.7,29.94,North,0,0.0,0.0,81,0.00,,,85.23,VWS V14.01,2013-06-02 04:17:00,
2013-06-02 05:18:00,46.2,40.7,29.94,North,0,0.0,0.0,81,0.00,,,85.23,VWS V14.01,2013-06-02 04:18:00,
2013-06-02 05:19:00,46.2,40.7,29.94,North,0,0.0,0.0,81,0.00,,,85.23,VWS V14.01,2013-06-02 04:19:00,
2013-06-02 05:20:00,46.2,40.7,29.94,North,0,0.0,0.0,81,0.00,,,85.23,VWS V14.01,2013-06-02 04:20:00,
2013-06-02 05:21:00,46.2,40.7,29.94,North,0,0.0,0.0,81,0.00,,,85.23,VWS V14.01,2013-06-02 04:21:00,
2013-06-02 05:22:00,46.2,40.7,29.94,North,0,0.0,0.0,81,0.00,,,85.23,VWS V14.01,2013-06-02 04:22:00,
2013-06-02 05:23:00,46.2,41.0,29.94,North,0,0.0,0.0,82,0.00,,,85.23,VWS V14.01,2013-06-02 04:23:00,
2013-06-02 05:24:00,46.2,41.0,29.94,North,0,0.0,0.0,82,0.00,,,85.23,VWS V14.01,2013-06-02 04:24:00,
2013-06-02 05:25:00,46.2,41.0,29.95,North,0,0.0,0.0,82,0.00,,,85.23,VWS V14.01,2013-06-02 04:25:00,
2013-06-02 05:26:00,46.0,40.8,29.95,NNW,337,0.0,0.0,82,0.00,,,85.23,VWS V14.01,2013-06-02 04:26:00,
2013-06-02 05:27:00,46.2,41.0,29.95,NNW,337,0.0,0.0,82,0.00,,,85.23,VWS V14.01,2013-06-02 04:27:00,
2013-06-02 05:28:00,46.2,41.0,29.95,NNW,337,0.0,0.0,82,0.00,,,85.23,VWS V14.01,2013-06-02 04:28:00,
2013-06-02 05:29:00,46.2,41.0,29.95,NNW,337,0.0,0.0,82,0.00,,,85.23,VWS V14.01,2013-06-02 04:29:00,
2013-06-02 05:30:00,46.2,41.0,29.95,NNW,337,0.0,0.0,82,0.00,,,85.23,VWS V14.01,2013-06-02 04:30:00,
2013-06-02 05:31:00,46.2,41.0,29.95,NNW,337,0.0,0.0,82,0.00,,,85.23,VWS V14.01,2013-06-02 04:31:00,
2013-06-02 05:32:00,46.2,41.3,29.95,NNW,337,0.0,0.0,83,0.00,,,85.23,VWS V14.01,2013-06-02 04:32:00,
2013-06-02 05:33:00,46.2,41.3,29.94,NNW,337,0.0,0.0,83,0.00,,,85.23,VWS V14.01,2013-06-02 04:33:00,
2013-06-02 05:34:00,46.2,41.3,29.95,NNW,337,0.0,0.0,83,0.00,,,85.23,VWS V14.01,2013-06-02 04:34:00,
2013-06-02 05:35:00,46.2,41.3,29.95,NNW,337,0.0,0.0,83,0.00,,,85.23,VWS V14.01,2013-06-02 04:35:00,
2013-06-02 05:36:00,46.2,41.3,29.94,NNW,337,0.0,0.0,83,0.00,,,85.23,VWS V14.01,2013-06-02 04:36:00,
2013-06-02 05:37:00,46.2,41.3,29.95,NNW,337,0.0,1.8,83,0.00,,,85.23,VWS V14.01,2013-06-02 04:37:00,
2013-06-02 05:38:00,46.2,41.3,29.95,NNW,337,0.0,0.0,83,0.00,,,85.23,VWS V14.01,2013-06-02 04:38:00,
2013-06-02 05:39:00,46.2,41.3,29.95,NNW,337,0.0,0.0,83,0.00,,,85.23,VWS V14.01,2013-06-02 04:39:00,
2013-06-02 05:40:00,46.2,41.3,29.95,NNW,337,0.0,0.0,83,0.00,,,85.23,VWS V14.01,2013-06-02 04:40:00,
2013-06-02 05:41:00,46.2,41.3,29.95,NNW,337,0.0,0.0,83,0.00,,,85.23,VWS V14.01,2013-06-02 04:41:00,
2013-06-02 05:42:00,46.2,41.3,29.95,NNW,337,0.0,1.8,83,0.00,,,85.23,VWS V14.01,2013-06-02 04:42:00,
2013-06-02 05:43:00,46.2,41.3,29.95,NNW,337,0.0,0.0,83,0.00,,,85.23,VWS V14.01,2013-06-02 04:43:00,
2013-06-02 05:44:00,46.4,41.5,29.95,NNW,337,0.0,0.0,83,0.00,,,85.23,VWS V14.01,2013-06-02 04:44:00,
2013-06-02 05:45:00,46.2,41.3,29.95,NNW,337,0.0,0.0,83,0.00,,,85.23,VWS V14.01,2013-06-02 04:45:00,
2013-06-02 05:46:00,46.6,41.7,29.95,NNW,337,0.0,0.0,83,0.00,,,85.23,VWS V14.01,2013-06-02 04:46:00,
2013-06-02 05:47:00,46.4,41.5,29.95,NNW,337,0.0,0.0,83,0.00,,,85.23,VWS V14.01,2013-06-02 04:47:00,
2013-06-02 05:48:00,46.6,41.7,29.95,NNW,337,0.0,0.0,83,0.00,,,85.23,VWS V14.01,2013-06-02 04:48:00,
2013-06-02 05:49:00,46.6,41.7,29.95,NNW,337,0.0,2.9,83,0.00,,,85.23,VWS V14.01,2013-06-02 04:49:00,
2013-06-02 05:50:00,46.6,41.7,29.96,NNW,337,0.0,0.0,83,0.00,,,85.23,VWS V14.01,2013-06-02 04:50:00,
2013-06-02 05:51:00,46.8,41.9,29.95,NNW,337,1.6,1.6,83,0.00,,,85.23,VWS V14.01,2013-06-02 04:51:00,
2013-06-02 05:52:00,46.8,41.9,29.96,NNW,337,0.0,1.6,83,0.00,,,85.23,VWS V14.01,2013-06-02 04:52:00,
2013-06-02 05:53:00,46.8,41.9,29.95,NNW,337,0.0,3.6,83,0.00,,,85.23,VWS V14.01,2013-06-02 04:53:00,
2013-06-02 05:54:00,46.8,41.9,29.96,NNW,337,0.0,0.0,83,0.00,,,85.23,VWS V14.01,2013-06-02 04:54:00,
2013-06-02 05:55:00,46.8,41.9,29.96,NNW,337,0.0,0.0,83,0.00,,,85.23,VWS V14.01,2013-06-02 04:55:00,
2013-06-02 05:56:00,46.9,42.0,29.95,NNW,337,0.0,2.9,83,0.00,,,85.23,VWS V14.01,2013-06-02 04:56:00,
2013-06-02 05:57:00,46.9,42.0,29.95,NNW,337,0.0,0.0,83,0.00,,,85.23,VWS V14.01,2013-06-02 04:57:00,
2013-06-02 05:58:00,46.9,42.0,29.95,NNW,337,0.0,0.0,83,0.00,,,85.23,VWS V14.01,2013-06-02 04:58:00,
2013-06-02 05:59:00,47.1,42.2,29.95,NNW,337,0.0,0.0,83,0.00,,,85.23,VWS V14.01,2013-06-02 04:59:00,
2013-06-02 06:00:00,47.1,42.2,29.95,NNW,337,0.0,0.0,83,0.00,,,85.23,VWS V14.01,2013-06-02 05:00:00,
2013-06-02 06:01:00,47.1,42.2,29.95,NNW,337,0.0,0.0,83,0.00,,,85.23,VWS V14.01,2013-06-02 05:01:00,
2013-06-02 06:02:00,47.3,42.4,29.95,North,0,0.0,0.0,83,0.00,,,85.23,VWS V14.01,2013-06-02 05:02:00,
2013-06-02 06:03:00,47.3,42.4,29.95,North,0,0.0,0.0,83,0.00,,,85.23,VWS V14.01,2013-06-02 05:03:00,
2013-06-02 06:04:00,47.3,42.4,29.96,North,0,0.0,0.0,83,0.00,,,85.23,VWS V14.01,2013-06-02 05:04:00,
2013-06-02 06:05:00,47.3,42.4,29.95,NNW,337,0.0,0.0,83,0.00,,,85.23,VWS V14.01,2013-06-02 05:05:00,
2013-06-02 06:06:00,47.5,42.6,29.95,NNW,337,0.0,0.0,83,0.00,,,85.23,VWS V14.01,2013-06-02 05:06:00,
2013-06-02 06:07:00,47.5,42.6,29.96,North,0,0.0,3.1,83,0.00,,,85.23,VWS V14.01,2013-06-02 05:07:00,
2013-06-02 06:08:00,47.5,42.6,29.96,NNW,337,0.0,2.5,83,0.00,,,85.23,VWS V14.01,2013-06-02 05:08:00,
2013-06-02 06:09:00,47.7,42.8,29.95,NNW,337,5.1,5.1,83,0.00,,,85.23,VWS V14.01,2013-06-02 05:09:00,
2013-06-02 06:10:00,47.7,42.8,29.96,NNW,337,0.0,5.1,83,0.00,,,85.23,VWS V14.01,2013-06-02 05:10:00,
2013-06-02 06:11:00,47.8,42.9,29.96,NNW,337,0.0,0.0,83,0.00,,,85.23,VWS V14.01,2013-06-02 05:11:00,
2013-06-02 06:12:00,47.8,42.6,29.96,NNW,337,0.0,0.0,82,0.00,,,85.23,VWS V14.01,2013-06-02 05:12:00,
2013-06-02 06:13:00,47.8,42.6,29.96,NNW,337,0.0,0.0,82,0.00,,,85.23,VWS V14.01,2013-06-02 05:13:00,
2013-06-02 06:14:00,48.0,42.8,29.96,NNW,337,0.0,0.0,82,0.00,,,85.23,VWS V14.01,2013-06-02 05:14:00,
2013-06-02 06:15:00,48.0,42.8,29.96,NNW,337,0.0,0.0,82,0.00,,,85.23,VWS V14.01,2013-06-02 05:15:00,
2013-06-02 06:16:00,48.0,42.8,29.96,NNW,337,0.0,0.0,82,0.00,,,85.23,VWS V14.01,2013-06-02 05:16:00,
2013-06-02 06:17:00,48.0,42.8,29.96,NNW,337,0.0,0.0,82,0.00,,,85.23,VWS V14.01,2013-06-02 05:17:00,
2013-06-02 06:18:00,48.2,43.3,29.96,NNW,337,0.0,0.0,83,0.00,,,85.23,VWS V14.01,2013-06-02 05:18:00,
2013-06-02 06:19:00,48.4,43.5,29.96,NNW,337,0.0,0.0,83,0.00,,,85.23,VWS V14.01,2013-06-02 05:19:00,
2013-06-02 06:20:00,48.7,43.8,29.96,NNW,337,1.1,4.0,83,0.00,,,85.23,VWS V14.01,2013-06-02 05:20:00,
2013-06-02 06:21:00,48.9,44.0,29.96,NNW,337,0.0,2.5,83,0.00,,,85.23,VWS V14.01,2013-06-02 05:21:00,
2013-06-02 06:22:00,49.3,44.4,29.95,NNW,337,0.0,0.0,83,0.00,,,85.23,VWS V14.01,2013-06-02 05:22:00,
2013-06-02 06:23:00,49.6,44.3,29.95,NNW,337,0.0,0.0,82,0.00,,,85.23,VWS V14.01,2013-06-02 05:23:00,
2013-06-02 06:24:00,49.8,44.5,29.95,NNW,337,0.0,0.0,82,0.00,,,85.23,VWS V14.01,2013-06-02 05:24:00,
2013-06-02 06:25:00,50.2,44.9,29.96,NNW,337,0.0,0.0,82,0.00,,,85.23,VWS V14.01,2013-06-02 05:25:00,
2013-06-02 06:26:00,50.7,45.1,29.96,NNE,22,0.0,0.0,81,0.00,,,85.23,VWS V14.01,2013-06-02 05:26:00,
2013-06-02 06:27:00,51.1,45.2,29.96,NNE,22,0.0,0.0,80,0.00,,,85.23,VWS V14.01,2013-06-02 05:27:00,
2013-06-02 06:28:00,51.4,45.5,29.96,NNE,22,0.0,0.0,80,0.00,,,85.23,VWS V14.01,2013-06-02 05:28:00,
2013-06-02 06:29:00,51.6,45.6,29.96,NNW,337,0.0,0.0,80,0.00,,,85.23,VWS V14.01,2013-06-02 05:29:00,
2013-06-02 06:30:00,51.6,45.3,29.96,NNW,337,0.0,0.0,79,0.00,,,85.23,VWS V14.01,2013-06-02 05:30:00,
2013-06-02 06:31:00,52.2,45.6,29.96,NNE,22,0.0,0.0,78,0.00,,,85.23,VWS V14.01,2013-06-02 05:31:00,
2013-06-02 06:32:00,52.3,45.7,29.96,North,0,0.0,0.0,78,0.00,,,85.23,VWS V14.01,2013-06-02 05:32:00,
2013-06-02 06:33:00,52.7,45.7,29.96,North,0,0.0,0.0,77,0.00,,,85.23,VWS V14.01,2013-06-02 05:33:00,
2013-06-02 06:34:00,52.9,45.5,29.96,NNW,337,0.0,0.0,76,0.00,,,85.23,VWS V14.01,2013-06-02 05:34:00,
2013-06-02 06:35:00,53.1,45.7,29.96,North,0,0.0,0.0,76,0.00,,,85.23,VWS V14.01,2013-06-02 05:35:00,
2013-06-02 06:36:00,53.2,45.8,29.96,North,0,0.0,0.0,76,0.00,,,85.23,VWS V14.01,2013-06-02 05:36:00,
2013-06-02 06:37:00,53.4,46.0,29.96,North,0,0.0,0.0,76,0.00,,,85.23,VWS V14.01,2013-06-02 05:37:00,
2013-06-02 06:38:00,53.8,46.1,29.96,NNW,337,0.0,0.0,75,0.00,,,85.23,VWS V14.01,2013-06-02 05:38:00,
2013-06-02 06:39:00,54.0,45.9,29.97,North,0,0.0,0.0,74,0.00,,,85.23,VWS V14.01,2013-06-02 05:39:00,
2013-06-02 06:40:00,54.1,46.0,29.96,North,0,0.0,0.0,74,0.00,,,85.23,VWS V14.01,2013-06-02 05:40:00,
2013-06-02 06:41:00,54.3,46.2,29.96,North,0,0.0,0.0,74,0.00,,,85.23,VWS V14.01,2013-06-02 05:41:00,
2013-06-02 06:42:00,54.5,46.0,29.97,NNW,337,0.0,7.6,73,0.00,,,85.23,VWS V14.01,2013-06-02 05:42:00,
2013-06-02 06:43:00,54.7,45.9,29.97,NNW,337,0.0,1.3,72,0.00,,,85.23,VWS V14.01,2013-06-02 05:43:00,
2013-06-02 06:44:00,54.9,46.0,29.97,North,0,0.0,6.5,72,0.00,,,85.23,VWS V14.01,2013-06-02 05:44:00,
2013-06-02 06:45:00,55.0,45.8,29.97,NNW,337,3.4,4.3,71,0.00,,,85.23,VWS V14.01,2013-06-02 05:45:00,
2013-06-02 06:46:00,55.2,46.0,29.97,NNW,337,0.0,3.4,71,0.00,,,85.23,VWS V14.01,2013-06-02 05:46:00,
2013-06-02 06:47:00,55.2,46.0,29.96,NNW,337,4.3,4.3,71,0.00,,,85.23,VWS V14.01,2013-06-02 05:47:00,
2013-06-02 06:48:00,55.2,46.0,29.96,NNW,337,3.1,4.3,71,0.00,,,85.23,VWS V14.01,2013-06-02 05:48:00,
2013-06-02 06:49:00,55.4,45.8,29.97,NNW,337,0.0,3.1,70,0.00,,,85.23,VWS V14.01,2013-06-02 05:49:00,
2013-06-02 06:50:00,55.4,45.8,29.96,NNW,337,0.0,0.0,70,0.00,,,85.23,VWS V14.01,2013-06-02 05:50:00,
2013-06-02 06:51:00,55.6,46.0,29.96,NNW,337,0.0,0.0,70,0.00,,,85.23,VWS V14.01,2013-06-02 05:51:00,
2013-06-02 06:52:00,55.8,46.2,29.96,NNW,337,0.0,0.0,70,0.00,,,85.23,VWS V14.01,2013-06-02 05:52:00,
2013-06-02 06:53:00,55.9,46.3,29.96,North,0,0.0,0.0,70,0.00,,,85.23,VWS V14.01,2013-06-02 05:53:00,
2013-06-02 06:54:00,55.9,45.9,29.97,NNW,337,0.0,5.6,69,0.00,,,85.23,VWS V14.01,2013-06-02 05:54:00,
2013-06-02 06:55:00,56.1,46.1,29.97,NNW,337,3.6,5.4,69,0.00,,,85.23,VWS V14.01,2013-06-02 05:55:00,
2013-06-02 06:56:00,56.3,45.9,29.96,NNE,22,0.0,3.8,68,0.00,,,85.23,VWS V14.01,2013-06-02 05:56:00,
2013-06-02 06:57:00,56.3,45.9,29.96,NNW,337,0.0,0.0,68,0.00,,,85.23,VWS V14.01,2013-06-02 05:57:00,
2013-06-02 06:58:00,56.5,45.7,29.96,NNW,337,0.0,0.0,67,0.00,,,85.23,VWS V14.01,2013-06-02 05:58:00,
2013-06-02 06:59:00,56.5,45.7,29.96,North,0,4.3,6.0,67,0.00,,,85.23,VWS V14.01,2013-06-02 05:59:00,
2013-06-02 07:00:00,56.5,45.7,29.96,NNE,22,0.0,6.3,67,0.00,,,85.23,VWS V14.01,2013-06-02 06:00:00,
2013-06-02 07:01:00,56.5,45.7,29.96,North,0,0.0,0.0,67,0.00,,,85.23,VWS V14.01,2013-06-02 06:01:00,
2013-06-02 07:02:00,56.7,45.9,29.96,North,0,0.0,0.0,67,0.00,,,85.23,VWS V14.01,2013-06-02 06:02:00,
2013-06-02 07:03:00,56.8,46.0,29.97,NNW,337,0.0,0.0,67,0.00,,,85.23,VWS V14.01,2013-06-02 06:03:00,
2013-06-02 07:04:00,56.8,46.0,29.97,North,0,0.0,0.0,67,0.00,,,85.23,VWS V14.01,2013-06-02 06:04:00,
2013-06-02 07:05:00,57.0,46.2,29.97,North,0,0.0,0.0,67,0.00,,,85.23,VWS V14.01,2013-06-02 06:05:00,
2013-06-02 07:06:00,57.0,46.2,29.97,North,0,0.0,0.0,67,0.00,,,85.23,VWS V14.01,2013-06-02 06:06:00,
2013-06-02 07:07:00,57.0,46.2,29.96,North,0,0.0,0.0,67,0.00,,,85.23,VWS V14.01,2013-06-02 06:07:00,
2013-06-02 07:08:00,57.4,46.5,29.97,NNW,337,0.0,0.0,67,0.00,,,85.23,VWS V14.01,2013-06-02 06:08:00,
2013-06-02 07:09:00,57.4,46.2,29.97,North,0,0.0,4.7,66,0.00,,,85.23,VWS V14.01,2013-06-02 06:09:00,
2013-06-02 07:10:00,57.7,46.4,29.97,NNW,337,3.1,3.1,66,0.00,,,85.23,VWS V14.01,2013-06-02 06:10:00,
2013-06-02 07:11:00,57.7,46.0,29.97,SSW,202,0.0,4.3,65,0.00,,,85.23,VWS V14.01,2013-06-02 06:11:00,
2013-06-02 07:12:00,57.9,45.8,29.97,NNW,337,6.3,6.3,64,0.00,,,85.23,VWS V14.01,2013-06-02 06:12:00,
2013-06-02 07:13:00,57.9,45.8,29.97,NNW,337,4.5,6.3,64,0.00,,,85.23,VWS V14.01,2013-06-02 06:13:00,
2013-06-02 07:14:00,57.9,45.8,29.97,NNW,337,7.2,7.2,64,0.00,,,85.23,VWS V14.01,2013-06-02 06:14:00,
2013-06-02 07:15:00,57.9,45.8,29.97,North,0,6.0,7.2,64,0.00,,,85.23,VWS V14.01,2013-06-02 06:15:00,
2013-06-02 07:16:00,57.9,45.4,29.97,North,0,2.9,8.3,63,0.00,,,85.23,VWS V14.01,2013-06-02 06:16:00,
2013-06-02 07:17:00,57.9,45.4,29.97,NNW,337,0.0,5.6,63,0.00,,,85.23,VWS V14.01,2013-06-02 06:17:00,
2013-06-02 07:18:00,57.9,45.4,29.97,NNW,337,3.6,5.6,63,0.00,,,85.23,VWS V14.01,2013-06-02 06:18:00,
2013-06-02 07:19:00,57.9,45.4,29.97,North,0,0.0,3.6,63,0.00,,,85.23,VWS V14.01,2013-06-02 06:19:00,
2013-06-02 07:20:00,57.9,45.4,29.97,North,0,6.3,7.4,63,0.00,,,85.23,VWS V14.01,2013-06-02 06:20:00,
2013-06-02 07:21:00,57.9,45.4,29.97,NNW,337,2.0,6.3,63,0.00,,,85.23,VWS V14.01,2013-06-02 06:21:00,
2013-06-02 07:22:00,57.9,45.4,29.97,NNW,337,0.0,6.3,63,0.00,,,85.23,VWS V14.01,2013-06-02 06:22:00,
2013-06-02 07:23:00,58.1,45.6,29.97,NNW,337,2.2,2.2,63,0.00,,,85.23,VWS V14.01,2013-06-02 06:23:00,
2013-06-02 07:24:00,58.1,45.6,29.97,NNW,337,5.4,5.4,63,0.00,,,85.23,VWS V14.01,2013-06-02 06:24:00,
2013-06-02 07:25:00,58.1,45.6,29.97,NNW,337,2.7,5.4,63,0.00,,,85.23,VWS V14.01,2013-06-02 06:25:00,
2013-06-02 07:26:00,58.3,45.8,29.96,North,0,5.4,5.4,63,0.00,,,85.23,VWS V14.01,2013-06-02 06:26:00,
2013-06-02 07:27:00,58.3,45.8,29.97,North,0,6.9,6.9,63,0.00,,,85.23,VWS V14.01,2013-06-02 06:27:00,
2013-06-02 07:28:00,58.3,45.3,29.97,North,0,0.0,6.9,62,0.00,,,85.23,VWS V14.01,2013-06-02 06:28:00,
2013-06-02 07:29:00,58.3,45.8,29.96,NNE,22,0.0,0.0,63,0.00,,,85.23,VWS V14.01,2013-06-02 06:29:00,
2013-06-02 07:30:00,58.6,46.1,29.96,NNW,337,0.0,0.0,63,0.00,,,85.23,VWS V14.01,2013-06-02 06:30:00,
2013-06-02 07:31:00,58.8,45.8,29.97,NNW,337,0.0,4.5,62,0.00,,,85.23,VWS V14.01,2013-06-02 06:31:00,
2013-06-02 07:32:00,58.8,45.8,29.97,NNW,337,2.9,3.1,62,0.00,,,85.23,VWS V14.01,2013-06-02 06:32:00,
2013-06-02 07:33:00,58.8,45.8,29.97,North,0,2.7,4.7,62,0.00,,,85.23,VWS V14.01,2013-06-02 06:33:00,
2013-06-02 07:34:00,58.8,45.4,29.97,NNW,337,5.8,5.8,61,0.00,,,85.23,VWS V14.01,2013-06-02 06:34:00,
2013-06-02 07:35:00,58.8,45.4,29.97,North,0,0.0,5.8,61,0.00,,,85.23,VWS V14.01,2013-06-02 06:35:00,
2013-06-02 07:36:00,58.8,45.4,29.97,NNW,337,4.5,4.5,61,0.00,,,85.23,VWS V14.01,2013-06-02 06:36:00,
2013-06-02 07:37:00,58.8,45.4,29.97,NNE,22,0.0,4.5,61,0.00,,,85.23,VWS V14.01,2013-06-02 06:37:00,
2013-06-02 07:38:00,59.2,45.8,29.97,NNE,22,0.0,0.0,61,0.00,,,85.23,VWS V14.01,2013-06-02 06:38:00,
2013-06-02 07:39:00,59.4,46.0,29.97,NNW,337,0.0,0.0,61,0.00,,,85.23,VWS V14.01,2013-06-02 06:39:00,
2013-06-02 07:40:00,59.5,45.6,29.97,NNW,337,0.0,0.0,60,0.00,,,85.23,VWS V14.01,2013-06-02 06:40:00,
2013-06-02 07:41:00,59.7,45.4,29.97,NNW,337,0.0,0.0,59,0.00,,,85.23,VWS V14.01,2013-06-02 06:41:00,
2013-06-02 07:42:00,59.9,46.0,29.97,NNW,337,0.0,0.0,60,0.00,,,85.23,VWS V14.01,2013-06-02 06:42:00,
2013-06-02 07:43:00,59.9,46.0,29.98,North,0,0.0,0.0,60,0.00,,,85.23,VWS V14.01,2013-06-02 06:43:00,
2013-06-02 07:44:00,60.1,46.2,29.97,North,0,0.0,0.0,60,0.00,,,85.23,VWS V14.01,2013-06-02 06:44:00,
2013-06-02 07:45:00,60.1,45.7,29.97,North,0,0.0,0.0,59,0.00,,,85.23,VWS V14.01,2013-06-02 06:45:00,
2013-06-02 07:46:00,60.4,46.0,29.97,NNW,337,0.0,0.0,59,0.00,,,85.23,VWS V14.01,2013-06-02 06:46:00,
2013-06-02 07:47:00,60.6,45.8,29.98,NE,45,0.0,0.0,58,0.00,,,85.23,VWS V14.01,2013-06-02 06:47:00,
2013-06-02 07:48:00,60.6,45.8,29.98,NNE,22,0.0,0.0,58,0.00,,,85.23,VWS V14.01,2013-06-02 06:48:00,
2013-06-02 07:49:00,60.6,45.8,29.97,NNW,337,0.0,0.0,58,0.00,,,85.23,VWS V14.01,2013-06-02 06:49:00,
2013-06-02 07:50:00,61.0,45.2,29.98,NNW,337,0.0,0.0,56,0.00,,,85.23,VWS V14.01,2013-06-02 06:50:00,
2013-06-02 07:51:00,61.2,45.4,29.98,NNE,22,0.0,0.0,56,0.00,,,85.23,VWS V14.01,2013-06-02 06:51:00,
2013-06-02 07:52:00,61.2,44.9,29.98,North,0,0.0,0.0,55,0.00,,,85.23,VWS V14.01,2013-06-02 06:52:00,
2013-06-02 07:53:00,61.0,44.7,29.98,NNE,22,0.0,0.0,55,0.00,,,85.23,VWS V14.01,2013-06-02 06:53:00,
2013-06-02 07:54:00,61.2,45.4,29.98,North,0,0.0,0.0,56,0.00,,,85.23,VWS V14.01,2013-06-02 06:54:00,
2013-06-02 07:55:00,61.2,45.4,29.98,North,0,0.0,0.0,56,0.00,,,85.23,VWS V14.01,2013-06-02 06:55:00,
2013-06-02 07:56:00,61.3,45.5,29.98,North,0,0.0,0.0,56,0.00,,,85.23,VWS V14.01,2013-06-02 06:56:00,
2013-06-02 07:57:00,61.5,45.7,29.98,NNE,22,0.0,0.0,56,0.00,,,85.23,VWS V14.01,2013-06-02 06:57:00,
2013-06-02 07:58:00,61.5,45.7,29.98,North,0,0.0,0.0,56,0.00,,,85.23,VWS V14.01,2013-06-02 06:58:00,
2013-06-02 07:59:00,61.7,45.9,29.98,North,0,0.0,0.0,56,0.00,,,85.23,VWS V14.01,2013-06-02 06:59:00,
2013-06-02 08:00:00,61.9,46.0,29.97,North,0,0.0,0.0,56,0.00,,,85.23,VWS V14.01,2013-06-02 07:00:00,
2013-06-02 08:01:00,62.4,45.1,29.98,North,0,0.0,0.0,53,0.00,,,85.23,VWS V14.01,2013-06-02 07:01:00,
2013-06-02 08:02:00,62.4,45.1,29.98,North,0,0.0,0.0,53,0.00,,,85.23,VWS V14.01,2013-06-02 07:02:00,
2013-06-02 08:03:00,62.4,45.1,29.98,North,0,0.0,0.0,53,0.00,,,85.23,VWS V14.01,2013-06-02 07:03:00,
2013-06-02 08:04:00,62.6,45.2,29.98,North,0,0.0,0.0,53,0.00,,,85.23,VWS V14.01,2013-06-02 07:04:00,
2013-06-02 08:05:00,62.6,45.2,29.98,North,0,0.0,0.0,53,0.00,,,85.23,VWS V14.01,2013-06-02 07:05:00,
2013-06-02 08:06:00,62.8,45.4,29.98,NNW,337,0.0,0.0,53,0.00,,,85.23,VWS V14.01,2013-06-02 07:06:00,
2013-06-02 08:07:00,63.0,45.1,29.98,NNW,337,0.0,0.0,52,0.00,,,85.23,VWS V14.01,2013-06-02 07:07:00,
2013-06-02 08:08:00,63.1,45.2,29.98,North,0,0.0,0.0,52,0.00,,,85.23,VWS V14.01,2013-06-02 07:08:00,
2013-06-02 08:09:00,63.1,44.7,29.98,NNW,337,0.0,0.0,51,0.00,,,85.23,VWS V14.01,2013-06-02 07:09:00,
2013-06-02 08:10:00,63.1,44.7,29.98,North,0,0.0,0.0,51,0.00,,,85.23,VWS V14.01,2013-06-02 07:10:00,
2013-06-02 08:11:00,63.1,44.7,29.98,NNE,22,0.0,0.0,51,0.00,,,85.23,VWS V14.01,2013-06-02 07:11:00,
2013-06-02 08:12:00,63.1,44.7,29.98,NNE,22,0.0,0.0,51,0.00,,,85.23,VWS V14.01,2013-06-02 07:12:00,
2013-06-02 08:13:00,63.1,44.7,29.98,North,0,0.0,0.0,51,0.00,,,85.23,VWS V14.01,2013-06-02 07:13:00,
2013-06-02 08:14:00,63.3,44.9,29.98,NNE,22,0.0,0.0,51,0.00,,,85.23,VWS V14.01,2013-06-02 07:14:00,
2013-06-02 08:15:00,63.3,44.9,29.98,NNE,22,0.0,0.0,51,0.00,,,85.23,VWS V14.01,2013-06-02 07:15:00,
2013-06-02 08:16:00,63.5,45.1,29.98,NNW,337,0.0,0.0,51,0.00,,,85.23,VWS V14.01,2013-06-02 07:16:00,
2013-06-02 08:17:00,63.7,44.2,29.98,North,0,0.0,0.0,49,0.00,,,85.23,VWS V14.01,2013-06-02 07:17:00,
2013-06-02 08:18:00,64.0,43.9,29.98,NNW,337,0.0,0.0,48,0.00,,,85.23,VWS V14.01,2013-06-02 07:18:00,
2013-06-02 08:19:00,64.0,43.4,29.98,North,0,0.0,0.0,47,0.00,,,85.23,VWS V14.01,2013-06-02 07:19:00,
2013-06-02 08:20:00,64.2,43.6,29.98,NNW,337,0.0,0.0,47,0.00,,,85.23,VWS V14.01,2013-06-02 07:20:00,
2013-06-02 08:21:00,64.0,42.8,29.98,North,0,0.0,0.0,46,0.00,,,85.23,VWS V14.01,2013-06-02 07:21:00,
2013-06-02 08:22:00,63.9,42.7,29.98,North,0,0.0,0.0,46,0.00,,,85.23,VWS V14.01,2013-06-02 07:22:00,
2013-06-02 08:23:00,63.7,43.1,29.98,NE,45,0.0,0.0,47,0.00,,,85.23,VWS V14.01,2013-06-02 07:23:00,
2013-06-02 08:24:00,63.5,43.5,29.98,North,0,0.0,0.0,48,0.00,,,85.23,VWS V14.01,2013-06-02 07:24:00,
2013-06-02 08:25:00,63.5,42.9,29.98,NNW,337,0.0,0.0,47,0.00,,,85.23,VWS V14.01,2013-06-02 07:25:00,
2013-06-02 08:26:00,63.5,42.9,29.98,NNW,337,0.0,0.0,47,0.00,,,85.23,VWS V14.01,2013-06-02 07:26:00,
2013-06-02 08:27:00,63.7,43.1,29.98,North,0,0.0,0.0,47,0.00,,,85.23,VWS V14.01,2013-06-02 07:27:00,
2013-06-02 08:28:00,63.7,43.1,29.98,NNE,22,0.0,0.0,47,0.00,,,85.23,VWS V14.01,2013-06-02 07:28:00,
2013-06-02 08:29:00,63.7,43.1,29.98,NNE,22,0.0,0.0,47,0.00,,,85.23,VWS V14.01,2013-06-02 07:29:00,
2013-06-02 08:30:00,63.7,43.7,29.98,NNE,22,0.0,0.0,48,0.00,,,85.23,VWS V14.01,2013-06-02 07:30:00,
2013-06-02 08:31:00,64.0,43.9,29.98,NNE,22,0.0,0.0,48,0.00,,,85.23,VWS V14.01,2013-06-02 07:31:00,
2013-06-02 08:32:00,63.9,43.8,29.98,NNE,22,0.0,0.0,48,0.00,,,85.23,VWS V14.01,2013-06-02 07:32:00,
2013-06-02 08:33:00,64.0,43.9,29.98,North,0,0.0,0.0,48,0.00,,,85.23,VWS V14.01,2013-06-02 07:33:00,
2013-06-02 08:34:00,64.2,44.1,29.98,NNE,22,0.0,0.0,48,0.00,,,85.23,VWS V14.01,2013-06-02 07:34:00,
2013-06-02 08:35:00,64.4,43.8,29.98,NNE,22,0.0,0.0,47,0.00,,,85.23,VWS V14.01,2013-06-02 07:35:00,
2013-06-02 08:36:00,64.6,44.5,29.98,NNE,22,0.0,0.2,48,0.00,,,85.23,VWS V14.01,2013-06-02 07:36:00,
2013-06-02 08:37:00,64.9,43.7,29.98,NNE,22,0.0,0.0,46,0.00,,,85.23,VWS V14.01,2013-06-02 07:37:00,
2013-06-02 08:38:00,64.9,43.1,29.98,NNE,22,0.0,0.0,45,0.00,,,85.23,VWS V14.01,2013-06-02 07:38:00,
2013-06-02 08:39:00,64.9,42.5,29.98,NNW,337,0.0,0.0,44,0.00,,,85.23,VWS V14.01,2013-06-02 07:39:00,
2013-06-02 08:40:00,64.9,41.9,29.98,NNW,337,0.0,0.2,43,0.00,,,85.23,VWS V14.01,2013-06-02 07:40:00,
2013-06-02 08:41:00,64.8,42.4,29.98,North,0,0.0,4.5,44,0.00,,,85.23,VWS V14.01,2013-06-02 07:41:00,
2013-06-02 08:42:00,64.8,42.4,29.98,North,0,0.0,0.0,44,0.00,,,85.23,VWS V14.01,2013-06-02 07:42:00,
2013-06-02 08:43:00,64.8,42.4,29.98,NNW,337,0.0,0.0,44,0.00,,,85.23,VWS V14.01,2013-06-02 07:43:00,
2013-06-02 08:44:00,64.9,42.5,29.98,North,0,0.0,0.0,44,0.00,,,85.23,VWS V14.01,2013-06-02 07:44:00,
2013-06-02 08:45:00,64.8,42.4,29.98,NNE,22,0.0,0.0,44,0.00,,,85.23,VWS V14.01,2013-06-02 07:45:00,
2013-06-02 08:46:00,64.8,42.4,29.98,North,0,0.0,0.0,44,0.00,,,85.23,VWS V14.01,2013-06-02 07:46:00,
2013-06-02 08:47:00,64.8,42.4,29.98,North,0,4.5,5.4,44,0.00,,,85.23,VWS V14.01,2013-06-02 07:47:00,
2013-06-02 08:48:00,64.8,42.4,29.98,NNE,22,0.0,4.5,44,0.00,,,85.23,VWS V14.01,2013-06-02 07:48:00,
2013-06-02 08:49:00,64.8,42.4,29.98,NNE,22,0.0,0.0,44,0.00,,,85.23,VWS V14.01,2013-06-02 07:49:00,
2013-06-02 08:50:00,64.9,42.5,29.98,North,0,0.0,0.0,44,0.00,,,85.23,VWS V14.01,2013-06-02 07:50:00,
2013-06-02 08:51:00,64.9,42.5,29.98,North,0,0.0,0.0,44,0.00,,,85.23,VWS V14.01,2013-06-02 07:51:00,
2013-06-02 08:52:00,65.1,42.7,29.98,North,0,0.0,0.0,44,0.00,,,85.23,VWS V14.01,2013-06-02 07:52:00,
2013-06-02 08:53:00,65.3,42.2,29.98,North,0,0.0,0.0,43,0.00,,,85.23,VWS V14.01,2013-06-02 07:53:00,
2013-06-02 08:54:00,65.7,42.6,29.98,North,0,0.0,0.0,43,0.00,,,85.23,VWS V14.01,2013-06-02 07:54:00,
2013-06-02 08:55:00,65.8,41.5,29.98,North,0,0.0,0.0,41,0.00,,,85.23,VWS V14.01,2013-06-02 07:55:00,
2013-06-02 08:56:00,66.0,41.7,29.98,North,0,0.0,0.0,41,0.00,,,85.23,VWS V14.01,2013-06-02 07:56:00,
2013-06-02 08:57:00,65.8,40.8,29.98,NNE,22,0.0,0.0,40,0.00,,,85.23,VWS V14.01,2013-06-02 07:57:00,
2013-06-02 08:58:00,65.8,40.8,29.98,North,0,0.0,0.0,40,0.00,,,85.23,VWS V14.01,2013-06-02 07:58:00,
2013-06-02 08:59:00,65.5,40.6,29.98,NNE,22,0.0,0.0,40,0.00,,,85.23,VWS V14.01,2013-06-02 07:59:00,
2013-06-02 09:00:00,65.5,41.2,29.98,North,0,0.0,0.0,41,0.00,,,85.23,VWS V14.01,2013-06-02 08:00:00,
2013-06-02 09:01:00,65.5,41.2,29.98,NNE,22,0.0,6.7,41,0.00,,,85.23,VWS V14.01,2013-06-02 08:01:00,
2013-06-02 09:02:00,65.5,41.2,29.98,NNW,337,0.0,0.0,41,0.00,,,85.23,VWS V14.01,2013-06-02 08:02:00,
2013-06-02 09:03:00,65.5,41.2,29.98,NNW,337,0.0,0.0,41,0.00,,,85.23,VWS V14.01,2013-06-02 08:03:00,
2013-06-02 09:04:00,65.7,41.4,29.98,North,0,7.6,10.1,41,0.00,,,85.23,VWS V14.01,2013-06-02 08:04:00,
2013-06-02 09:05:00,65.5,41.2,29.98,North,0,8.1,14.5,41,0.00,,,85.23,VWS V14.01,2013-06-02 08:05:00,
2013-06-02 09:06:00,65.5,41.2,29.98,North,0,6.3,8.1,41,0.00,,,85.23,VWS V14.01,2013-06-02 08:06:00,
2013-06-02 09:07:00,65.5,41.2,29.98,North,0,4.9,10.3,41,0.00,,,85.23,VWS V14.01,2013-06-02 08:07:00,
2013-06-02 09:08:00,65.5,41.2,29.98,North,0,4.7,6.5,41,0.00,,,85.23,VWS V14.01,2013-06-02 08:08:00,
2013-06-02 09:09:00,65.3,41.0,29.98,NNE,22,0.0,5.1,41,0.00,,,85.23,VWS V14.01,2013-06-02 08:09:00,
2013-06-02 09:10:00,65.3,41.0,29.98,NNE,22,0.0,0.0,41,0.00,,,85.23,VWS V14.01,2013-06-02 08:10:00,
2013-06-02 09:11:00,65.5,41.8,29.98,NNE,22,7.6,7.6,42,0.00,,,85.23,VWS V14.01,2013-06-02 08:11:00,
2013-06-02 09:12:00,65.5,41.8,29.98,North,0,13.2,13.2,42,0.00,,,85.23,VWS V14.01,2013-06-02 08:12:00,
2013-06-02 09:13:00,65.7,41.4,29.98,North,0,1.6,13.2,41,0.00,,,85.23,VWS V14.01,2013-06-02 08:13:00,
2013-06-02 09:14:00,65.7,41.4,29.98,NNE,22,6.3,6.5,41,0.00,,,85.23,VWS V14.01,2013-06-02 08:14:00,
2013-06-02 09:15:00,65.8,41.5,29.98,NE,45,11.9,11.9,41,0.00,,,85.23,VWS V14.01,2013-06-02 08:15:00,
2013-06-02 09:16:00,65.8,41.5,29.98,NNE,22,0.0,11.9,41,0.00,,,85.23,VWS V14.01,2013-06-02 08:16:00,
2013-06-02 09:17:00,65.8,41.5,29.98,NNE,22,1.8,3.6,41,0.00,,,85.23,VWS V14.01,2013-06-02 08:17:00,
2013-06-02 09:18:00,66.0,42.3,29.98,NNE,22,1.3,7.6,42,0.00,,,85.23,VWS V14.01,2013-06-02 08:18:00,
2013-06-02 09:19:00,66.2,42.5,29.98,SSW,202,0.0,6.7,42,0.00,,,85.23,VWS V14.01,2013-06-02 08:19:00,
2013-06-02 09:20:00,66.4,41.4,29.98,NE,45,0.0,7.8,40,0.00,,,85.23,VWS V14.01,2013-06-02 08:20:00,
2013-06-02 09:21:00,66.6,41.5,29.98,North,0,0.0,8.7,40,0.00,,,85.23,VWS V14.01,2013-06-02 08:21:00,
2013-06-02 09:22:00,66.7,41.6,29.98,NNE,22,6.3,6.7,40,0.00,,,85.23,VWS V14.01,2013-06-02 08:22:00,
2013-06-02 09:23:00,66.7,41.6,29.98,NNE,22,8.1,8.1,40,0.00,,,85.23,VWS V14.01,2013-06-02 08:23:00,
2013-06-02 09:24:00,66.7,41.6,29.98,NNW,337,0.0,8.1,40,0.00,,,85.23,VWS V14.01,2013-06-02 08:24:00,
2013-06-02 09:25:00,66.9,41.8,29.98,NE,45,0.0,7.6,40,0.00,,,85.23,VWS V14.01,2013-06-02 08:25:00,
2013-06-02 09:26:00,66.9,41.8,29.98,North,0,6.5,6.5,40,0.00,,,85.23,VWS V14.01,2013-06-02 08:26:00,
2013-06-02 09:27:00,67.1,42.6,29.98,North,0,6.9,6.9,41,0.00,,,85.23,VWS V14.01,2013-06-02 08:27:00,
2013-06-02 09:28:00,67.3,42.2,29.98,NNE,22,0.0,6.9,40,0.00,,,85.23,VWS V14.01,2013-06-02 08:28:00,
2013-06-02 09:29:00,67.6,41.8,29.98,NNE,22,10.1,10.1,39,0.00,,,85.23,VWS V14.01,2013-06-02 08:29:00,
2013-06-02 09:30:00,67.6,41.8,29.98,North,0,7.2,10.1,39,0.00,,,85.23,VWS V14.01,2013-06-02 08:30:00,
2013-06-02 09:31:00,67.6,41.8,29.98,North,0,1.3,10.5,39,0.00,,,85.23,VWS V14.01,2013-06-02 08:31:00,
2013-06-02 09:32:00,67.6,41.1,29.98,North,0,3.8,9.6,38,0.00,,,85.23,VWS V14.01,2013-06-02 08:32:00,
2013-06-02 09:33:00,67.6,41.1,29.98,NNE,22,8.9,11.0,38,0.00,,,85.23,VWS V14.01,2013-06-02 08:33:00,
2013-06-02 09:34:00,67.6,41.1,29.98,NNE,22,0.0,8.9,38,0.00,,,85.23,VWS V14.01,2013-06-02 08:34:00,
2013-06-02 09:35:00,67.6,41.8,29.98,NNE,22,0.0,7.2,39,0.00,,,85.23,VWS V14.01,2013-06-02 08:35:00,
2013-06-02 09:36:00,67.6,41.8,29.98,North,0,4.7,7.6,39,0.00,,,85.23,VWS V14.01,2013-06-02 08:36:00,
2013-06-02 09:37:00,67.6,41.1,29.98,NNE,22,4.7,9.6,38,0.00,,,85.23,VWS V14.01,2013-06-02 08:37:00,
2013-06-02 09:38:00,67.5,41.0,29.98,North,0,7.4,7.4,38,0.00,,,85.23,VWS V14.01,2013-06-02 08:38:00,
2013-06-02 09:39:00,67.5,41.0,29.98,North,0,5.6,10.3,38,0.00,,,85.23,VWS V14.01,2013-06-02 08:39:00,
2013-06-02 09:40:00,67.6,41.1,29.98,NNW,337,0.0,5.6,38,0.00,,,85.23,VWS V14.01,2013-06-02 08:40:00,
2013-06-02 09:41:00,67.6,41.1,29.98,North,0,2.5,8.3,38,0.00,,,85.23,VWS V14.01,2013-06-02 08:41:00,
2013-06-02 09:42:00,67.6,41.1,29.98,NE,45,4.3,4.3,38,0.00,,,85.23,VWS V14.01,2013-06-02 08:42:00,
2013-06-02 09:43:00,67.6,41.1,29.98,NNE,22,2.9,11.2,38,0.00,,,85.23,VWS V14.01,2013-06-02 08:43:00,
2013-06-02 09:44:00,67.3,40.8,29.98,NNE,22,4.5,7.8,38,0.00,,,85.23,VWS V14.01,2013-06-02 08:44:00,
2013-06-02 09:45:00,67.3,41.5,29.98,NNE,22,0.0,4.9,39,0.00,,,85.23,VWS V14.01,2013-06-02 08:45:00,
2013-06-02 09:46:00,67.3,41.5,29.98,North,0,4.3,5.4,39,0.00,,,85.23,VWS V14.01,2013-06-02 08:46:00,
2013-06-02 09:47:00,67.6,41.8,29.98,North,0,0.0,4.3,39,0.00,,,85.23,VWS V14.01,2013-06-02 08:47:00,
2013-06-02 09:48:00,67.8,42.0,29.98,North,0,7.2,7.2,39,0.00,,,85.23,VWS V14.01,2013-06-02 08:48:00,
2013-06-02 09:49:00,68.0,42.1,29.98,North,0,1.8,7.2,39,0.00,,,85.23,VWS V14.01,2013-06-02 08:49:00,
2013-06-02 09:50:00,68.2,42.3,29.98,NNE,22,7.2,7.2,39,0.00,,,85.23,VWS V14.01,2013-06-02 08:50:00,
2013-06-02 09:51:00,68.5,41.9,29.98,NNE,22,8.7,8.7,38,0.00,,,85.23,VWS V14.01,2013-06-02 08:51:00,
2013-06-02 09:52:00,68.5,41.9,29.98,NNW,337,4.5,8.7,38,0.00,,,85.23,VWS V14.01,2013-06-02 08:52:00,
2013-06-02 09:53:00,68.7,42.1,29.98,NNE,22,4.5,4.7,38,0.00,,,85.23,VWS V14.01,2013-06-02 08:53:00,
2013-06-02 09:54:00,68.7,41.4,29.98,NNE,22,6.9,6.9,37,0.00,,,85.23,VWS V14.01,2013-06-02 08:54:00,
2013-06-02 09:55:00,68.9,41.6,29.98,NNE,22,0.0,6.9,37,0.00,,,85.23,VWS V14.01,2013-06-02 08:55:00,
2013-06-02 09:56:00,69.1,41.8,29.98,North,0,0.0,0.0,37,0.00,,,85.23,VWS V14.01,2013-06-02 08:56:00,
2013-06-02 09:57:00,69.1,41.8,29.98,NNW,337,0.0,0.0,37,0.00,,,85.23,VWS V14.01,2013-06-02 08:57:00,
2013-06-02 09:58:00,69.1,41.8,29.98,North,0,0.0,0.0,37,0.00,,,85.23,VWS V14.01,2013-06-02 08:58:00,
2013-06-02 09:59:00,69.3,41.9,29.98,NNE,22,0.0,0.0,37,0.00,,,85.23,VWS V14.01,2013-06-02 08:59:00,
2013-06-02 10:00:00,69.4,42.0,29.98,NNE,22,0.0,0.0,37,0.00,,,85.23,VWS V14.01,2013-06-02 09:00:00,
2013-06-02 10:01:00,69.3,41.9,29.98,NNE,22,0.0,4.5,37,0.00,,,85.23,VWS V14.01,2013-06-02 09:01:00,
2013-06-02 10:02:00,69.1,41.8,29.98,NNE,22,4.9,4.9,37,0.00,,,85.23,VWS V14.01,2013-06-02 09:02:00,
2013-06-02 10:03:00,69.1,41.8,29.98,NNW,337,0.0,4.9,37,0.00,,,85.23,VWS V14.01,2013-06-02 09:03:00,
2013-06-02 10:04:00,69.3,41.9,29.98,NE,45,0.0,0.0,37,0.00,,,85.23,VWS V14.01,2013-06-02 09:04:00,
2013-06-02 10:05:00,69.4,42.0,29.98,NNW,337,0.0,4.0,37,0.00,,,85.23,VWS V14.01,2013-06-02 09:05:00,
2013-06-02 10:06:00,69.6,42.2,29.98,NNW,337,5.6,13.2,37,0.00,,,85.23,VWS V14.01,2013-06-02 09:06:00,
2013-06-02 10:07:00,69.6,41.5,29.98,NNW,337,4.5,9.2,36,0.00,,,85.23,VWS V14.01,2013-06-02 09:07:00,
2013-06-02 10:08:00,69.6,41.5,29.98,NNW,337,0.0,7.2,36,0.00,,,85.23,VWS V14.01,2013-06-02 09:08:00,
2013-06-02 10:09:00,69.4,41.3,29.98,NNW,337,2.7,2.7,36,0.00,,,85.23,VWS V14.01,2013-06-02 09:09:00,
2013-06-02 10:10:00,69.3,41.2,29.98,NNW,337,0.0,4.0,36,0.00,,,85.23,VWS V14.01,2013-06-02 09:10:00,
2013-06-02 10:11:00,69.1,41.0,29.98,NNW,337,0.0,0.0,36,0.00,,,85.23,VWS V14.01,2013-06-02 09:11:00,
2013-06-02 10:12:00,69.1,41.0,29.98,NNE,22,0.0,0.0,36,0.00,,,85.23,VWS V14.01,2013-06-02 09:12:00,
2013-06-02 10:13:00,68.7,40.7,29.98,North,0,0.0,0.0,36,0.00,,,85.23,VWS V14.01,2013-06-02 09:13:00,
2013-06-02 10:14:00,68.5,40.5,29.98,North,0,0.0,0.0,36,0.00,,,85.23,VWS V14.01,2013-06-02 09:14:00,
2013-06-02 10:15:00,68.2,40.2,29.98,North,0,0.0,0.0,36,0.00,,,85.23,VWS V14.01,2013-06-02 09:15:00,
2013-06-02 10:16:00,68.2,41.0,29.98,North,0,0.0,0.0,37,0.00,,,85.23,VWS V14.01,2013-06-02 09:16:00,
2013-06-02 10:17:00,67.8,40.6,29.98,NNW,337,0.0,0.0,37,0.00,,,85.23,VWS V14.01,2013-06-02 09:17:00,
2013-06-02 10:18:00,67.8,40.6,29.98,NNW,337,0.0,0.0,37,0.00,,,85.23,VWS V14.01,2013-06-02 09:18:00,
2013-06-02 10:19:00,67.8,41.3,29.98,North,0,3.8,3.8,38,0.00,,,85.23,VWS V14.01,2013-06-02 09:19:00,
2013-06-02 10:20:00,67.8,40.6,29.98,NNW,337,5.1,5.1,37,0.00,,,85.23,VWS V14.01,2013-06-02 09:20:00,
2013-06-02 10:21:00,67.6,40.4,29.98,NNW,337,4.3,5.1,37,0.00,,,85.23,VWS V14.01,2013-06-02 09:21:00,
2013-06-02 10:22:00,67.6,40.4,29.98,North,0,5.1,5.1,37,0.00,,,85.23,VWS V14.01,2013-06-02 09:22:00,
2013-06-02 10:23:00,67.5,40.3,29.98,North,0,0.0,5.1,37,0.00,,,85.23,VWS V14.01,2013-06-02 09:23:00,
2013-06-02 10:24:00,67.3,40.8,29.98,North,0,0.0,0.0,38,0.00,,,85.23,VWS V14.01,2013-06-02 09:24:00,
2013-06-02 10:25:00,66.9,40.5,29.98,North,0,0.0,0.0,38,0.00,,,85.23,VWS V14.01,2013-06-02 09:25:00,
2013-06-02 10:26:00,66.9,40.5,29.98,North,0,0.0,0.0,38,0.00,,,85.23,VWS V14.01,2013-06-02 09:26:00,
2013-06-02 10:27:00,66.9,41.2,29.98,NNW,337,0.0,0.0,39,0.00,,,85.23,VWS V14.01,2013-06-02 09:27:00,
2013-06-02 10:28:00,67.1,41.3,29.98,North,0,0.0,0.0,39,0.00,,,85.23,VWS V14.01,2013-06-02 09:28:00,
2013-06-02 10:29:00,67.1,41.3,29.98,NNW,337,0.0,0.0,39,0.00,,,85.23,VWS V14.01,2013-06-02 09:29:00,
2013-06-02 10:30:00,67.3,41.5,29.98,NNW,337,2.0,2.0,39,0.00,,,85.23,VWS V14.01,2013-06-02 09:30:00,
2013-06-02 10:31:00,67.6,41.8,29.98,NNW,337,0.0,2.0,39,0.00,,,85.23,VWS V14.01,2013-06-02 09:31:00,
2013-06-02 10:32:00,67.8,41.3,29.98,North,0,6.0,6.0,38,0.00,,,85.23,VWS V14.01,2013-06-02 09:32:00,
2013-06-02 10:33:00,67.8,41.3,29.98,SSW,202,0.0,6.0,38,0.00,,,85.23,VWS V14.01,2013-06-02 09:33:00,
2013-06-02 10:34:00,67.8,40.6,29.98,NNW,337,0.0,0.0,37,0.00,,,85.23,VWS V14.01,2013-06-02 09:34:00,
2013-06-02 10:35:00,67.8,40.6,29.98,North,0,0.0,0.0,37,0.00,,,85.23,VWS V14.01,2013-06-02 09:35:00,
2013-06-02 10:36:00,67.6,40.4,29.98,NNW,337,0.0,0.0,37,0.00,,,85.23,VWS V14.01,2013-06-02 09:36:00,
2013-06-02 10:37:00,67.3,40.8,29.98,NNE,22,0.0,0.0,38,0.00,,,85.23,VWS V14.01,2013-06-02 09:37:00,
2013-06-02 10:38:00,66.9,40.5,29.98,NNE,22,0.0,0.0,38,0.00,,,85.23,VWS V14.01,2013-06-02 09:38:00,
2013-06-02 10:39:00,66.7,40.3,29.98,NNE,22,0.0,0.0,38,0.00,,,85.23,VWS V14.01,2013-06-02 09:39:00,
2013-06-02 10:40:00,66.4,40.7,29.98,North,0,0.0,0.0,39,0.00,,,85.23,VWS V14.01,2013-06-02 09:40:00,
2013-06-02 10:41:00,66.2,40.5,29.98,NE,45,0.0,0.0,39,0.00,,,85.23,VWS V14.01,2013-06-02 09:41:00,
2013-06-02 10:42:00,66.2,40.5,29.98,NNE,22,0.0,0.0,39,0.00,,,85.23,VWS V14.01,2013-06-02 09:42:00,
2013-06-02 10:43:00,66.2,40.5,29.98,North,0,0.0,0.0,39,0.00,,,85.23,VWS V14.01,2013-06-02 09:43:00,
2013-06-02 10:44:00,66.4,40.7,29.98,NNE,22,0.0,0.0,39,0.00,,,85.23,VWS V14.01,2013-06-02 09:44:00,
2013-06-02 10:45:00,66.4,40.7,29.98,NNE,22,0.0,2.9,39,0.00,,,85.23,VWS V14.01,2013-06-02 09:45:00,
2013-06-02 10:46:00,66.6,40.9,29.98,North,0,3.8,6.5,39,0.00,,,85.23,VWS V14.01,2013-06-02 09:46:00,
2013-06-02 10:47:00,66.7,41.0,29.98,NNW,337,9.4,9.4,39,0.00,,,85.23,VWS V14.01,2013-06-02 09:47:00,
2013-06-02 10:48:00,66.7,40.3,29.98,NNW,337,8.9,14.3,38,0.00,,,85.23,VWS V14.01,2013-06-02 09:48:00,
2013-06-02 10:49:00,66.9,40.5,29.98,NNW,337,0.0,9.8,38,0.00,,,85.23,VWS V14.01,2013-06-02 09:49:00,
2013-06-02 10:50:00,66.7,40.3,29.98,NNE,22,0.0,0.0,38,0.00,,,85.23,VWS V14.01,2013-06-02 09:50:00,
2013-06-02 10:51:00,66.7,40.3,29.98,NNE,22,0.0,0.0,38,0.00,,,85.23,VWS V14.01,2013-06-02 09:51:00,
2013-06-02 10:52:00,66.7,40.3,29.98,North,0,0.0,0.0,38,0.00,,,85.23,VWS V14.01,2013-06-02 09:52:00,
2013-06-02 10:53:00,66.7,40.3,29.98,NNW,337,0.0,0.0,38,0.00,,,85.23,VWS V14.01,2013-06-02 09:53:00,
2013-06-02 10:54:00,66.9,40.5,29.98,NNW,337,4.5,4.5,38,0.00,,,85.23,VWS V14.01,2013-06-02 09:54:00,
2013-06-02 10:55:00,66.9,40.5,29.98,NNW,337,0.0,4.5,38,0.00,,,85.23,VWS V14.01,2013-06-02 09:55:00,
2013-06-02 10:56:00,67.1,40.7,29.98,NNW,337,0.0,0.0,38,0.00,,,85.23,VWS V14.01,2013-06-02 09:56:00,
2013-06-02 10:57:00,67.1,40.7,29.98,NNW,337,0.0,5.1,38,0.00,,,85.23,VWS V14.01,2013-06-02 09:57:00,
2013-06-02 10:58:00,67.3,40.8,29.98,North,0,0.0,5.6,38,0.00,,,85.23,VWS V14.01,2013-06-02 09:58:00,
2013-06-02 10:59:00,67.5,41.0,29.98,NNW,337,0.0,7.2,38,0.00,,,85.23,VWS V14.01,2013-06-02 09:59:00,
2013-06-02 11:00:00,67.6,40.4,29.98,NNE,22,0.0,0.0,37,0.00,,,85.23,VWS V14.01,2013-06-02 10:00:00,
2013-06-02 11:01:00,67.6,40.4,29.98,North,0,0.0,0.0,37,0.00,,,85.23,VWS V14.01,2013-06-02 10:01:00,
2013-06-02 11:02:00,67.5,40.3,29.98,North,0,7.8,7.8,37,0.00,,,85.23,VWS V14.01,2013-06-02 10:02:00,
2013-06-02 11:03:00,67.3,40.2,29.98,NNE,22,0.0,7.8,37,0.00,,,85.23,VWS V14.01,2013-06-02 10:03:00,
2013-06-02 11:04:00,67.1,40.0,29.98,NNE,22,0.0,0.0,37,0.00,,,85.23,VWS V14.01,2013-06-02 10:04:00,
2013-06-02 11:05:00,66.9,39.8,29.98,NNW,337,0.0,1.1,37,0.00,,,85.23,VWS V14.01,2013-06-02 10:05:00,
2013-06-02 11:06:00,66.9,39.8,29.98,NNW,337,0.0,0.0,37,0.00,,,85.23,VWS V14.01,2013-06-02 10:06:00,
2013-06-02 11:07:00,66.7,39.6,29.98,North,0,0.0,0.0,37,0.00,,,85.23,VWS V14.01,2013-06-02 10:07:00,
2013-06-02 11:08:00,66.7,40.3,29.98,NE,45,0.0,0.0,38,0.00,,,85.23,VWS V14.01,2013-06-02 10:08:00,
2013-06-02 11:09:00,66.6,40.2,29.98,North,0,0.0,0.0,38,0.00,,,85.23,VWS V14.01,2013-06-02 10:09:00,
2013-06-02 11:10:00,66.4,40.0,29.98,NE,45,0.0,7.4,38,0.00,,,85.23,VWS V14.01,2013-06-02 10:10:00,
2013-06-02 11:11:00,66.4,40.0,29.98,NNW,337,2.5,2.5,38,0.00,,,85.23,VWS V14.01,2013-06-02 10:11:00,
2013-06-02 11:12:00,66.4,40.0,29.98,SSW,202,0.0,2.5,38,0.00,,,85.23,VWS V14.01,2013-06-02 10:12:00,
2013-06-02 11:13:00,66.4,40.0,29.98,NNW,337,0.0,0.0,38,0.00,,,85.23,VWS V14.01,2013-06-02 10:13:00,
2013-06-02 11:14:00,66.4,40.0,29.98,NNE,22,0.0,0.0,38,0.00,,,85.23,VWS V14.01,2013-06-02 10:14:00,
2013-06-02 11:15:00,66.6,40.9,29.98,NNE,22,0.0,0.0,39,0.00,,,85.23,VWS V14.01,2013-06-02 10:15:00,
2013-06-02 11:16:00,66.6,40.9,29.98,NNW,337,4.0,4.0,39,0.00,,,85.23,VWS V14.01,2013-06-02 10:16:00,
2013-06-02 11:17:00,66.6,40.2,29.99,NNW,337,0.0,4.0,38,0.00,,,85.23,VWS V14.01,2013-06-02 10:17:00,
2013-06-02 11:18:00,66.7,40.3,29.98,NNW,337,0.0,4.7,38,0.00,,,85.23,VWS V14.01,2013-06-02 10:18:00,
2013-06-02 11:19:00,66.6,40.2,29.98,NNW,337,0.0,3.4,38,0.00,,,85.23,VWS V14.01,2013-06-02 10:19:00,
2013-06-02 11:20:00,66.6,40.2,29.98,NNW,337,0.0,0.0,38,0.00,,,85.23,VWS V14.01,2013-06-02 10:20:00,
2013-06-02 11:21:00,66.4,40.0,29.98,SSW,202,2.0,2.0,38,0.00,,,85.23,VWS V14.01,2013-06-02 10:21:00,
2013-06-02 11:22:00,66.4,40.0,29.98,North,0,0.0,2.0,38,0.00,,,85.23,VWS V14.01,2013-06-02 10:22:00,
2013-06-02 11:23:00,66.4,40.0,29.98,NNW,337,0.0,1.8,38,0.00,,,85.23,VWS V14.01,2013-06-02 10:23:00,
2013-06-02 11:24:00,66.2,39.9,29.98,NNW,337,0.0,6.3,38,0.00,,,85.23,VWS V14.01,2013-06-02 10:24:00,
2013-06-02 11:25:00,66.0,39.7,29.98,NNW,337,0.0,0.0,38,0.00,,,85.23,VWS V14.01,2013-06-02 10:25:00,
2013-06-02 11:26:00,66.0,39.7,29.98,NNW,337,0.0,0.0,38,0.00,,,85.23,VWS V14.01,2013-06-02 10:26:00,
2013-06-02 11:27:00,66.0,39.7,29.98,SSW,202,0.0,0.0,38,0.00,,,85.23,VWS V14.01,2013-06-02 10:27:00,
2013-06-02 11:28:00,66.0,40.4,29.98,SSW,202,0.0,0.0,39,0.00,,,85.23,VWS V14.01,2013-06-02 10:28:00,
2013-06-02 11:29:00,65.8,40.2,29.98,North,0,0.0,0.0,39,0.00,,,85.23,VWS V14.01,2013-06-02 10:29:00,
2013-06-02 11:30:00,66.0,40.4,29.98,North,0,0.0,0.0,39,0.00,,,85.23,VWS V14.01,2013-06-02 10:30:00,
2013-06-02 11:31:00,65.8,40.2,29.98,North,0,0.0,0.0,39,0.00,,,85.23,VWS V14.01,2013-06-02 10:31:00,
2013-06-02 11:32:00,66.0,40.4,29.98,NNW,337,0.0,0.0,39,0.00,,,85.23,VWS V14.01,2013-06-02 10:32:00,
2013-06-02 11:33:00,66.0,40.4,29.98,NNW,337,0.0,0.0,39,0.00,,,85.23,VWS V14.01,2013-06-02 10:33:00,
2013-06-02 11:34:00,66.2,40.5,29.98,NNW,337,0.0,0.0,39,0.00,,,85.23,VWS V14.01,2013-06-02 10:34:00,
2013-06-02 11:35:00,66.2,40.5,29.98,NNW,337,0.0,0.0,39,0.00,,,85.23,VWS V14.01,2013-06-02 10:35:00,
2013-06-02 11:36:00,66.2,40.5,29.98,NNW,337,0.0,0.0,39,0.00,,,85.23,VWS V14.01,2013-06-02 10:36:00,
2013-06-02 11:37:00,66.4,40.0,29.98,North,0,4.3,4.3,38,0.00,,,85.23,VWS V14.01,2013-06-02 10:37:00,
2013-06-02 11:38:00,66.2,39.9,29.98,NNW,337,0.0,5.1,38,0.00,,,85.23,VWS V14.01,2013-06-02 10:38:00,
2013-06-02 11:39:00,66.2,39.9,29.98,NNW,337,0.0,0.0,38,0.00,,,85.23,VWS V14.01,2013-06-02 10:39:00,
2013-06-02 11:40:00,66.0,39.7,29.98,North,0,2.0,2.0,38,0.00,,,85.23,VWS V14.01,2013-06-02 10:40:00,
2013-06-02 11:41:00,66.0,39.7,29.98,NE,45,0.0,2.0,38,0.00,,,85.23,VWS V14.01,2013-06-02 10:41:00,
2013-06-02 11:42:00,66.0,39.7,29.98,NE,45,0.0,0.0,38,0.00,,,85.23,VWS V14.01,2013-06-02 10:42:00,
2013-06-02 11:43:00,66.0,40.4,29.98,North,0,0.0,0.0,39,0.00,,,85.23,VWS V14.01,2013-06-02 10:43:00,
2013-06-02 11:44:00,66.2,39.9,29.98,North,0,0.0,0.0,38,0.00,,,85.23,VWS V14.01,2013-06-02 10:44:00,
2013-06-02 11:45:00,66.4,40.0,29.98,NNE,22,6.5,9.8,38,0.00,,,85.23,VWS V14.01,2013-06-02 10:45:00,
2013-06-02 11:46:00,66.2,39.9,29.98,NNE,22,0.0,7.2,38,0.00,,,85.23,VWS V14.01,2013-06-02 10:46:00,
2013-06-02 11:47:00,66.0,39.7,29.98,North,0,6.3,11.0,38,0.00,,,85.23,VWS V14.01,2013-06-02 10:47:00,
2013-06-02 11:48:00,66.0,39.7,29.98,NNW,337,4.3,6.3,38,0.00,,,85.23,VWS V14.01,2013-06-02 10:48:00,
2013-06-02 11:49:00,66.0,39.7,29.98,NNW,337,0.0,4.3,38,0.00,,,85.23,VWS V14.01,2013-06-02 10:49:00,
2013-06-02 11:50:00,66.0,39.7,29.98,NNW,337,0.0,0.0,38,0.00,,,85.23,VWS V14.01,2013-06-02 10:50:00,
2013-06-02 11:51:00,66.0,39.7,29.98,NNW,337,0.0,0.0,38,0.00,,,85.23,VWS V14.01,2013-06-02 10:51:00,
2013-06-02 11:52:00,66.0,39.7,29.98,North,0,0.0,0.0,38,0.00,,,85.23,VWS V14.01,2013-06-02 10:52:00,
2013-06-02 11:53:00,66.0,39.7,29.98,North,0,0.0,0.0,38,0.00,,,85.23,VWS V14.01,2013-06-02 10:53:00,
2013-06-02 11:54:00,66.0,39.7,29.98,NNW,337,0.0,0.0,38,0.00,,,85.23,VWS V14.01,2013-06-02 10:54:00,
2013-06-02 11:55:00,66.0,39.7,29.98,NNW,337,0.0,0.0,38,0.00,,,85.23,VWS V14.01,2013-06-02 10:55:00,
2013-06-02 11:56:00,66.2,39.9,29.98,NW,315,0.0,0.0,38,0.00,,,85.23,VWS V14.01,2013-06-02 10:56:00,
2013-06-02 11:57:00,66.4,40.0,29.98,North,0,0.0,0.0,38,0.00,,,85.23,VWS V14.01,2013-06-02 10:57:00,
2013-06-02 11:58:00,66.4,40.0,29.98,NNW,337,0.0,0.0,38,0.00,,,85.23,VWS V14.01,2013-06-02 10:58:00,
2013-06-02 11:59:00,66.4,40.0,29.98,NNW,337,0.0,0.0,38,0.00,,,85.23,VWS V14.01,2013-06-02 10:59:00,
2013-06-02 12:00:00,66.4,40.0,29.98,NNW,337,0.0,0.0,38,0.00,,,85.23,VWS V14.01,2013-06-02 11:00:00,
2013-06-02 12:01:00,66.4,40.0,29.98,NNW,337,0.0,0.0,38,0.00,,,85.23,VWS V14.01,2013-06-02 11:01:00,
2013-06-02 12:02:00,66.6,39.5,29.98,NW,315,5.4,6.5,37,0.00,,,85.23,VWS V14.01,2013-06-02 11:02:00,
2013-06-02 12:03:00,66.6,39.5,29.99,NNE,22,3.1,5.4,37,0.00,,,85.23,VWS V14.01,2013-06-02 11:03:00,
2013-06-02 12:04:00,66.6,39.5,29.98,NNW,337,0.0,3.1,37,0.00,,,85.23,VWS V14.01,2013-06-02 11:04:00,
2013-06-02 12:05:00,66.4,39.4,29.98,NNW,337,0.0,0.0,37,0.00,,,85.23,VWS V14.01,2013-06-02 11:05:00,
2013-06-02 12:06:00,66.4,39.4,29.98,North,0,9.2,9.2,37,0.00,,,85.23,VWS V14.01,2013-06-02 11:06:00,
2013-06-02 12:07:00,66.4,39.4,29.98,North,0,0.0,9.2,37,0.00,,,85.23,VWS V14.01,2013-06-02 11:07:00,
2013-06-02 12:08:00,66.0,39.0,29.98,SSW,202,8.9,8.9,37,0.00,,,85.23,VWS V14.01,2013-06-02 11:08:00,
2013-06-02 12:09:00,66.0,39.0,29.98,SSW,202,0.0,8.9,37,0.00,,,85.23,VWS V14.01,2013-06-02 11:09:00,
2013-06-02 12:10:00,66.0,39.7,29.98,SSW,202,2.9,2.9,38,0.00,,,85.23,VWS V14.01,2013-06-02 11:10:00,
2013-06-02 12:11:00,65.8,39.5,29.98,North,0,5.4,5.4,38,0.00,,,85.23,VWS V14.01,2013-06-02 11:11:00,
2013-06-02 12:12:00,65.8,39.5,29.98,NNE,22,0.0,5.6,38,0.00,,,85.23,VWS V14.01,2013-06-02 11:12:00,
2013-06-02 12:13:00,65.8,39.5,29.98,North,0,0.0,6.0,38,0.00,,,85.23,VWS V14.01,2013-06-02 11:13:00,
2013-06-02 12:14:00,65.7,39.4,29.98,NNW,337,0.0,9.4,38,0.00,,,85.23,VWS V14.01,2013-06-02 11:14:00,
2013-06-02 12:15:00,65.8,39.5,29.98,NNW,337,0.0,0.0,38,0.00,,,85.23,VWS V14.01,2013-06-02 11:15:00,
2013-06-02 12:16:00,65.8,39.5,29.98,NW,315,0.0,0.0,38,0.00,,,85.23,VWS V14.01,2013-06-02 11:16:00,
2013-06-02 12:17:00,66.0,39.7,29.98,SW,225,0.0,0.0,38,0.00,,,85.23,VWS V14.01,2013-06-02 11:17:00,
2013-06-02 12:18:00,66.0,40.4,29.98,North,0,0.0,0.0,39,0.00,,,85.23,VWS V14.01,2013-06-02 11:18:00,
2013-06-02 12:19:00,66.0,40.4,29.98,NNW,337,0.0,5.4,39,0.00,,,85.23,VWS V14.01,2013-06-02 11:19:00,
2013-06-02 12:20:00,66.2,40.5,29.98,SSW,202,0.0,0.0,39,0.00,,,85.23,VWS V14.01,2013-06-02 11:20:00,
2013-06-02 12:21:00,66.4,40.7,29.98,North,0,4.5,4.5,39,0.00,,,85.23,VWS V14.01,2013-06-02 11:21:00,
2013-06-02 12:22:00,66.4,40.7,29.98,NNW,337,2.5,9.2,39,0.00,,,85.23,VWS V14.01,2013-06-02 11:22:00,
2013-06-02 12:23:00,66.6,40.9,29.98,North,0,0.0,2.5,39,0.00,,,85.23,VWS V14.01,2013-06-02 11:23:00,
2013-06-02 12:24:00,66.4,40.0,29.98,NNW,337,0.0,0.0,38,0.00,,,85.23,VWS V14.01,2013-06-02 11:24:00,
2013-06-02 12:25:00,66.4,40.0,29.98,SW,225,3.1,8.5,38,0.00,,,85.23,VWS V14.01,2013-06-02 11:25:00,
2013-06-02 12:26:00,66.4,40.0,29.98,North,0,4.3,4.3,38,0.00,,,85.23,VWS V14.01,2013-06-02 11:26:00,
2013-06-02 12:27:00,66.0,39.7,29.98,North,0,0.0,4.3,38,0.00,,,85.23,VWS V14.01,2013-06-02 11:27:00,
2013-06-02 12:28:00,66.0,39.7,29.99,NNW,337,0.0,6.5,38,0.00,,,85.23,VWS V14.01,2013-06-02 11:28:00,
2013-06-02 12:29:00,65.8,39.5,29.98,NNW,337,0.0,6.7,38,0.00,,,85.23,VWS V14.01,2013-06-02 11:29:00,
2013-06-02 12:30:00,65.5,39.9,29.98,North,0,0.0,0.0,39,0.00,,,85.23,VWS V14.01,2013-06-02 11:30:00,
2013-06-02 12:31:00,65.1,39.5,29.98,NNE,22,0.0,0.0,39,0.00,,,85.23,VWS V14.01,2013-06-02 11:31:00,
2013-06-02 12:32:00,65.1,39.5,29.98,North,0,2.5,2.5,39,0.00,,,85.23,VWS V14.01,2013-06-02 11:32:00,
2013-06-02 12:33:00,65.3,39.7,29.98,North,0,0.0,2.5,39,0.00,,,85.23,VWS V14.01,2013-06-02 11:33:00,
2013-06-02 12:34:00,65.3,39.7,29.98,NNW,337,4.7,6.3,39,0.00,,,85.23,VWS V14.01,2013-06-02 11:34:00,
2013-06-02 12:35:00,65.5,39.9,29.98,NNE,22,9.2,9.2,39,0.00,,,85.23,VWS V14.01,2013-06-02 11:35:00,
2013-06-02 12:36:00,65.5,39.9,29.98,North,0,4.9,9.2,39,0.00,,,85.23,VWS V14.01,2013-06-02 11:36:00,
2013-06-02 12:37:00,65.5,39.9,29.98,North,0,0.0,7.4,39,0.00,,,85.23,VWS V14.01,2013-06-02 11:37:00,
2013-06-02 12:38:00,65.5,39.9,29.98,NNW,337,0.0,0.0,39,0.00,,,85.23,VWS V14.01,2013-06-02 11:38:00,
2013-06-02 12:39:00,65.5,39.9,29.98,NNW,337,0.0,0.0,39,0.00,,,85.23,VWS V14.01,2013-06-02 11:39:00,
2013-06-02 12:40:00,65.8,40.2,29.99,NW,315,0.0,0.0,39,0.00,,,85.23,VWS V14.01,2013-06-02 11:40:00,
2013-06-02 12:41:00,66.0,40.4,29.99,North,0,5.4,7.2,39,0.00,,,85.23,VWS V14.01,2013-06-02 11:41:00,
2013-06-02 12:42:00,66.0,39.7,29.99,North,0,4.9,7.2,38,0.00,,,85.23,VWS V14.01,2013-06-02 11:42:00,
2013-06-02 12:43:00,66.0,39.7,29.99,SSW,202,0.0,4.9,38,0.00,,,85.23,VWS V14.01,2013-06-02 11:43:00,
2013-06-02 12:44:00,66.2,39.9,29.99,SSW,202,0.0,3.8,38,0.00,,,85.23,VWS V14.01,2013-06-02 11:44:00,
2013-06-02 12:45:00,66.4,40.0,29.99,SSW,202,0.0,0.0,38,0.00,,,85.23,VWS V14.01,2013-06-02 11:45:00,
2013-06-02 12:46:00,66.4,40.0,29.99,SSW,202,0.0,0.0,38,0.00,,,85.23,VWS V14.01,2013-06-02 11:46:00,
2013-06-02 12:47:00,66.6,40.2,29.98,SSW,202,2.0,2.0,38,0.00,,,85.23,VWS V14.01,2013-06-02 11:47:00,
2013-06-02 12:48:00,66.6,40.2,29.98,SSW,202,0.0,2.0,38,0.00,,,85.23,VWS V14.01,2013-06-02 11:48:00,
2013-06-02 12:49:00,66.7,40.3,29.99,NNW,337,0.0,0.0,38,0.00,,,85.23,VWS V14.01,2013-06-02 11:49:00,
2013-06-02 12:50:00,66.6,40.2,29.99,NNW,337,0.0,6.9,38,0.00,,,85.23,VWS V14.01,2013-06-02 11:50:00,
2013-06-02 12:51:00,66.6,40.9,29.99,NNW,337,0.0,5.4,39,0.00,,,85.23,VWS V14.01,2013-06-02 11:51:00,
2013-06-02 12:52:00,66.4,40.7,29.99,NNW,337,4.3,4.3,39,0.00,,,85.23,VWS V14.01,2013-06-02 11:52:00,
2013-06-02 12:53:00,66.4,40.7,29.99,NNW,337,0.0,4.3,39,0.00,,,85.23,VWS V14.01,2013-06-02 11:53:00,
2013-06-02 12:54:00,66.2,40.5,29.99,North,0,6.5,6.5,39,0.00,,,85.23,VWS V14.01,2013-06-02 11:54:00,
2013-06-02 12:55:00,66.0,40.4,29.99,North,0,0.0,6.5,39,0.00,,,85.23,VWS V14.01,2013-06-02 11:55:00,
2013-06-02 12:56:00,65.8,40.2,29.99,SSW,202,0.0,1.6,39,0.00,,,85.23,VWS V14.01,2013-06-02 11:56:00,
2013-06-02 12:57:00,65.7,40.1,29.99,North,0,0.0,0.0,39,0.00,,,85.23,VWS V14.01,2013-06-02 11:57:00,
2013-06-02 12:58:00,65.7,40.7,29.99,NNE,22,0.0,0.0,40,0.00,,,85.23,VWS V14.01,2013-06-02 11:58:00,
2013-06-02 12:59:00,65.7,40.1,29.99,NNW,337,1.1,9.2,39,0.00,,,85.23,VWS V14.01,2013-06-02 11:59:00,
2013-06-02 13:00:00,65.7,40.1,29.99,SSW,202,0.0,4.9,39,0.00,,,85.23,VWS V14.01,2013-06-02 12:00:00,
2013-06-02 13:01:00,65.7,40.1,29.99,NNW,337,0.0,0.0,39,0.00,,,85.23,VWS V14.01,2013-06-02 12:01:00,
2013-06-02 13:02:00,65.7,40.1,29.98,NNW,337,0.0,8.3,39,0.00,,,85.23,VWS V14.01,2013-06-02 12:02:00,
2013-06-02 13:03:00,65.8,40.2,29.98,NNW,337,0.0,1.3,39,0.00,,,85.23,VWS V14.01,2013-06-02 12:03:00,
2013-06-02 13:04:00,66.0,40.4,29.98,NNW,337,1.1,1.1,39,0.00,,,85.23,VWS V14.01,2013-06-02 12:04:00,
2013-06-02 13:05:00,66.0,40.4,29.98,NNW,337,0.0,1.1,39,0.00,,,85.23,VWS V14.01,2013-06-02 12:05:00,
2013-06-02 13:06:00,66.6,40.9,29.98,North,0,0.0,0.0,39,0.00,,,85.23,VWS V14.01,2013-06-02 12:06:00,
2013-06-02 13:07:00,66.7,41.0,29.98,North,0,4.0,4.0,39,0.00,,,85.23,VWS V14.01,2013-06-02 12:07:00,
2013-06-02 13:08:00,67.3,40.8,29.98,North,0,0.0,4.0,38,0.00,,,85.23,VWS V14.01,2013-06-02 12:08:00,
2013-06-02 13:09:00,67.6,41.1,29.98,SSW,202,0.0,0.0,38,0.00,,,85.23,VWS V14.01,2013-06-02 12:09:00,
2013-06-02 13:10:00,67.8,40.6,29.98,SSW,202,0.0,0.0,37,0.00,,,85.23,VWS V14.01,2013-06-02 12:10:00,
2013-06-02 13:11:00,67.8,40.6,29.98,SSW,202,0.0,0.0,37,0.00,,,85.23,VWS V14.01,2013-06-02 12:11:00,
2013-06-02 13:12:00,68.2,41.0,29.98,SSW,202,0.0,8.5,37,0.00,,,85.23,VWS V14.01,2013-06-02 12:12:00,
2013-06-02 13:13:00,68.0,40.8,29.98,North,0,0.0,9.6,37,0.00,,,85.23,VWS V14.01,2013-06-02 12:13:00,
2013-06-02 13:14:00,67.8,40.6,29.98,NNW,337,0.0,4.0,37,0.00,,,85.23,VWS V14.01,2013-06-02 12:14:00,
2013-06-02 13:15:00,67.6,40.4,29.98,NNW,337,0.0,0.0,37,0.00,,,85.23,VWS V14.01,2013-06-02 12:15:00,
2013-06-02 13:16:00,67.6,40.4,29.98,North,0,1.3,6.3,37,0.00,,,85.23,VWS V14.01,2013-06-02 12:16:00,
2013-06-02 13:17:00,67.6,40.4,29.98,North,0,0.0,5.1,37,0.00,,,85.23,VWS V14.01,2013-06-02 12:17:00,
2013-06-02 13:18:00,67.6,40.4,29.98,NW,315,4.3,6.5,37,0.00,,,85.23,VWS V14.01,2013-06-02 12:18:00,
2013-06-02 13:19:00,67.6,40.4,29.98,NNW,337,6.5,10.3,37,0.00,,,85.23,VWS V14.01,2013-06-02 12:19:00,
2013-06-02 13:20:00,67.3,40.2,29.99,NNW,337,0.0,6.5,37,0.00,,,85.23,VWS V14.01,2013-06-02 12:20:00,
2013-06-02 13:21:00,67.1,40.0,29.98,NNW,337,2.2,6.9,37,0.00,,,85.23,VWS V14.01,2013-06-02 12:21:00,
2013-06-02 13:22:00,67.1,40.0,29.98,NNW,337,5.8,7.2,37,0.00,,,85.23,VWS V14.01,2013-06-02 12:22:00,
2013-06-02 13:23:00,67.1,40.0,29.99,NNW,337,0.0,5.8,37,0.00,,,85.23,VWS V14.01,2013-06-02 12:23:00,
2013-06-02 13:24:00,66.9,39.8,29.99,North,0,5.1,7.6,37,0.00,,,85.23,VWS V14.01,2013-06-02 12:24:00,
2013-06-02 13:25:00,66.9,40.5,29.99,NNE,22,4.9,6.9,38,0.00,,,85.23,VWS V14.01,2013-06-02 12:25:00,
2013-06-02 13:26:00,66.9,40.5,29.98,NNE,22,6.0,6.0,38,0.00,,,85.23,VWS V14.01,2013-06-02 12:26:00,
2013-06-02 13:27:00,66.9,40.5,29.98,NNE,22,7.8,9.2,38,0.00,,,85.23,VWS V14.01,2013-06-02 12:27:00,
2013-06-02 13:28:00,66.9,40.5,29.98,NNE,22,0.0,7.8,38,0.00,,,85.23,VWS V14.01,2013-06-02 12:28:00,
2013-06-02 13:29:00,67.1,40.7,29.98,NNW,337,3.6,4.7,38,0.00,,,85.23,VWS V14.01,2013-06-02 12:29:00,
2013-06-02 13:30:00,67.1,40.7,29.99,North,0,0.0,6.0,38,0.00,,,85.23,VWS V14.01,2013-06-02 12:30:00,
2013-06-02 13:31:00,67.1,40.7,29.98,North,0,0.0,5.6,38,0.00,,,85.23,VWS V14.01,2013-06-02 12:31:00,
2013-06-02 13:32:00,67.1,40.7,29.98,NNW,337,6.3,6.3,38,0.00,,,85.23,VWS V14.01,2013-06-02 12:32:00,
2013-06-02 13:33:00,67.1,40.7,29.98,NE,45,6.7,6.7,38,0.00,,,85.23,VWS V14.01,2013-06-02 12:33:00,
2013-06-02 13:34:00,66.9,40.5,29.98,NNE,22,4.5,6.7,38,0.00,,,85.23,VWS V14.01,2013-06-02 12:34:00,
2013-06-02 13:35:00,66.7,40.3,29.98,NNE,22,6.7,11.0,38,0.00,,,85.23,VWS V14.01,2013-06-02 12:35:00,
2013-06-02 13:36:00,66.7,40.3,29.98,NNE,22,7.6,12.8,38,0.00,,,85.23,VWS V14.01,2013-06-02 12:36:00,
2013-06-02 13:37:00,66.6,40.2,29.98,NNW,337,0.0,7.8,38,0.00,,,85.23,VWS V14.01,2013-06-02 12:37:00,
2013-06-02 13:38:00,66.4,40.0,29.98,NNE,22,5.4,5.4,38,0.00,,,85.23,VWS V14.01,2013-06-02 12:38:00,
2013-06-02 13:39:00,66.4,40.0,29.98,NNE,22,8.1,8.1,38,0.00,,,85.23,VWS V14.01,2013-06-02 12:39:00,
2013-06-02 13:40:00,66.2,39.9,29.98,North,0,0.0,8.1,38,0.00,,,85.23,VWS V14.01,2013-06-02 12:40:00,
2013-06-02 13:41:00,66.0,39.7,29.98,North,0,2.7,2.7,38,0.00,,,85.23,VWS V14.01,2013-06-02 12:41:00,
2013-06-02 13:42:00,66.2,39.9,29.98,NNW,337,0.0,4.5,38,0.00,,,85.23,VWS V14.01,2013-06-02 12:42:00,
2013-06-02 13:43:00,66.4,40.0,29.98,NNW,337,0.0,0.0,38,0.00,,,85.23,VWS V14.01,2013-06-02 12:43:00,
2013-06-02 13:44:00,66.2,39.9,29.98,NNW,337,0.0,0.0,38,0.00,,,85.23,VWS V14.01,2013-06-02 12:44:00,
2013-06-02 13:45:00,66.4,40.0,29.98,North,0,0.0,0.0,38,0.00,,,85.23,VWS V14.01,2013-06-02 12:45:00,
2013-06-02 13:46:00,66.7,41.0,29.98,North,0,0.0,0.0,39,0.00,,,85.23,VWS V14.01,2013-06-02 12:46:00,
2013-06-02 13:47:00,66.9,41.2,29.98,North,0,0.0,0.0,39,0.00,,,85.23,VWS V14.01,2013-06-02 12:47:00,
2013-06-02 13:48:00,67.3,41.5,29.98,SW,225,0.0,0.0,39,0.00,,,85.23,VWS V14.01,2013-06-02 12:48:00,
2013-06-02 13:49:00,67.8,41.3,29.98,North,0,0.0,0.0,38,0.00,,,85.23,VWS V14.01,2013-06-02 12:49:00,
2013-06-02 13:50:00,67.8,40.6,29.98,North,0,0.0,0.0,37,0.00,,,85.23,VWS V14.01,2013-06-02 12:50:00,
2013-06-02 13:51:00,68.2,41.0,29.98,NNW,337,8.3,8.3,37,0.00,,,85.23,VWS V14.01,2013-06-02 12:51:00,
2013-06-02 13:52:00,68.2,40.2,29.98,NNW,337,2.5,8.3,36,0.00,,,85.23,VWS V14.01,2013-06-02 12:52:00,
2013-06-02 13:53:00,68.0,40.1,29.98,North,0,3.1,5.4,36,0.00,,,85.23,VWS V14.01,2013-06-02 12:53:00,
2013-06-02 13:54:00,68.2,40.2,29.98,NNW,337,4.7,4.7,36,0.00,,,85.23,VWS V14.01,2013-06-02 12:54:00,
2013-06-02 13:55:00,68.2,39.5,29.98,SSW,202,4.7,4.7,35,0.00,,,85.23,VWS V14.01,2013-06-02 12:55:00,
2013-06-02 13:56:00,68.2,39.5,29.98,North,0,2.0,5.6,35,0.00,,,85.23,VWS V14.01,2013-06-02 12:56:00,
2013-06-02 13:57:00,68.4,39.7,29.98,NNW,337,10.1,10.1,35,0.00,,,85.23,VWS V14.01,2013-06-02 12:57:00,
2013-06-02 13:58:00,68.5,39.8,29.98,SSW,202,0.0,10.1,35,0.00,,,85.23,VWS V14.01,2013-06-02 12:58:00,
2013-06-02 13:59:00,68.9,40.2,29.98,NW,315,0.0,5.4,35,0.00,,,85.23,VWS V14.01,2013-06-02 12:59:00,
2013-06-02 14:00:00,69.4,40.6,29.98,NNW,337,3.8,4.9,35,0.00,,,85.23,VWS V14.01,2013-06-02 13:00:00,
2013-06-02 14:01:00,69.8,40.2,29.98,SSW,202,0.0,3.8,34,0.00,,,85.23,VWS V14.01,2013-06-02 13:01:00,
2013-06-02 14:02:00,70.3,40.6,29.98,SSW,202,0.0,3.8,34,0.00,,,85.23,VWS V14.01,2013-06-02 13:02:00,
2013-06-02 14:03:00,70.9,41.2,29.98,SSW,202,0.0,4.0,34,0.00,,,85.23,VWS V14.01,2013-06-02 13:03:00,
2013-06-02 14:04:00,71.4,41.6,29.98,NNW,337,0.0,3.8,34,0.00,,,85.23,VWS V14.01,2013-06-02 13:04:00,
2013-06-02 14:05:00,71.8,42.0,29.98,North,0,4.3,4.3,34,0.00,,,85.23,VWS V14.01,2013-06-02 13:05:00,
2013-06-02 14:06:00,72.1,42.2,29.98,NNW,337,5.8,5.8,34,0.00,,,85.23,VWS V14.01,2013-06-02 13:06:00,
2013-06-02 14:07:00,72.5,41.8,29.98,WNW,292,1.1,7.2,33,0.00,,,85.23,VWS V14.01,2013-06-02 13:07:00,
2013-06-02 14:08:00,72.7,42.0,29.98,NNW,337,0.0,5.8,33,0.00,,,85.23,VWS V14.01,2013-06-02 13:08:00,
2013-06-02 14:09:00,72.5,41.8,29.98,NNW,337,0.0,3.6,33,0.00,,,85.23,VWS V14.01,2013-06-02 13:09:00,
2013-06-02 14:10:00,72.3,40.8,29.98,NNW,337,0.0,0.0,32,0.00,,,85.23,VWS V14.01,2013-06-02 13:10:00,
2013-06-02 14:11:00,72.0,41.3,29.98,NNW,337,5.1,5.1,33,0.00,,,85.23,VWS V14.01,2013-06-02 13:11:00,
2013-06-02 14:12:00,71.8,41.2,29.98,NNW,337,8.5,8.5,33,0.00,,,85.23,VWS V14.01,2013-06-02 13:12:00,
2013-06-02 14:13:00,71.4,40.0,29.98,North,0,0.0,8.5,32,0.00,,,85.23,VWS V14.01,2013-06-02 13:13:00,
2013-06-02 14:14:00,71.2,39.9,29.98,NNW,337,1.8,7.6,32,0.00,,,85.23,VWS V14.01,2013-06-02 13:14:00,
2013-06-02 14:15:00,71.1,39.8,29.98,SSW,202,0.0,7.2,32,0.00,,,85.23,VWS V14.01,2013-06-02 13:15:00,
2013-06-02 14:16:00,71.1,40.6,29.98,SSW,202,2.7,9.6,33,0.00,,,85.23,VWS V14.01,2013-06-02 13:16:00,
2013-06-02 14:17:00,71.2,40.7,29.98,North,0,0.0,4.9,33,0.00,,,85.23,VWS V14.01,2013-06-02 13:17:00,
2013-06-02 14:18:00,71.2,40.7,29.98,NNE,22,6.3,6.3,33,0.00,,,85.23,VWS V14.01,2013-06-02 13:18:00,
2013-06-02 14:19:00,71.4,40.8,29.98,NNW,337,6.9,11.6,33,0.00,,,85.23,VWS V14.01,2013-06-02 13:19:00,
2013-06-02 14:20:00,72.1,40.7,29.98,NNE,22,0.0,6.9,32,0.00,,,85.23,VWS V14.01,2013-06-02 13:20:00,
2013-06-02 14:21:00,72.3,40.8,29.98,North,0,3.4,3.4,32,0.00,,,85.23,VWS V14.01,2013-06-02 13:21:00,
2013-06-02 14:22:00,72.5,41.0,29.98,NNE,22,2.9,4.9,32,0.00,,,85.23,VWS V14.01,2013-06-02 13:22:00,
2013-06-02 14:23:00,72.3,40.8,29.98,North,0,0.0,2.9,32,0.00,,,85.23,VWS V14.01,2013-06-02 13:23:00,
2013-06-02 14:24:00,72.3,40.8,29.98,NW,315,4.7,10.5,32,0.00,,,85.23,VWS V14.01,2013-06-02 13:24:00,
2013-06-02 14:25:00,72.3,40.8,29.98,NNW,337,5.6,7.4,32,0.00,,,85.23,VWS V14.01,2013-06-02 13:25:00,
2013-06-02 14:26:00,72.1,40.7,29.98,North,0,0.0,5.6,32,0.00,,,85.23,VWS V14.01,2013-06-02 13:26:00,
2013-06-02 14:27:00,72.5,41.0,29.98,North,0,0.0,0.0,32,0.00,,,85.23,VWS V14.01,2013-06-02 13:27:00,
2013-06-02 14:28:00,72.9,41.3,29.98,WNW,292,0.0,0.0,32,0.00,,,85.23,VWS V14.01,2013-06-02 13:28:00,
2013-06-02 14:30:00,73.2,41.6,29.98,North,0,0.0,0.0,32,0.00,,,85.23,VWS V14.01,2013-06-02 13:30:00,
2013-06-02 14:31:00,74.1,42.4,29.98,SSW,202,0.0,0.0,32,0.00,,,85.23,VWS V14.01,2013-06-02 13:31:00,
2013-06-02 14:32:00,74.5,41.1,29.98,SW,225,0.0,0.0,30,0.00,,,85.23,VWS V14.01,2013-06-02 13:32:00,
2013-06-02 14:33:00,74.8,41.3,29.98,NNW,337,0.0,0.0,30,0.00,,,85.23,VWS V14.01,2013-06-02 13:33:00,
2013-06-02 14:34:00,74.7,41.2,29.98,WNW,292,6.5,6.5,30,0.00,,,85.23,VWS V14.01,2013-06-02 13:34:00,
2013-06-02 14:35:00,74.5,41.1,29.98,NNW,337,0.0,6.5,30,0.00,,,85.23,VWS V14.01,2013-06-02 13:35:00,
2013-06-02 14:36:00,73.9,40.5,29.98,NNW,337,0.0,0.0,30,0.00,,,85.23,VWS V14.01,2013-06-02 13:36:00,
2013-06-02 14:37:00,73.6,41.1,29.98,North,0,0.0,0.0,31,0.00,,,85.23,VWS V14.01,2013-06-02 13:37:00,
2013-06-02 14:38:00,73.2,40.8,29.98,NNW,337,2.9,5.6,31,0.00,,,85.23,VWS V14.01,2013-06-02 13:38:00,
2013-06-02 14:39:00,73.0,40.6,29.98,NNW,337,9.2,9.2,31,0.00,,,85.23,VWS V14.01,2013-06-02 13:39:00,
2013-06-02 14:40:00,72.5,41.0,29.98,North,0,3.4,9.2,32,0.00,,,85.23,VWS V14.01,2013-06-02 13:40:00,
2013-06-02 14:41:00,72.0,39.7,29.98,North,0,1.3,4.0,31,0.00,,,85.23,VWS V14.01,2013-06-02 13:41:00,
2013-06-02 14:42:00,71.2,39.9,29.98,NNW,337,3.4,4.7,32,0.00,,,85.23,VWS V14.01,2013-06-02 13:42:00,
2013-06-02 14:43:00,70.7,40.2,29.98,NNE,22,4.3,10.5,33,0.00,,,85.23,VWS V14.01,2013-06-02 13:43:00,
2013-06-02 14:44:00,70.3,39.9,29.98,North,0,1.6,5.4,33,0.00,,,85.23,VWS V14.01,2013-06-02 13:44:00,
2013-06-02 14:45:00,70.0,39.6,29.98,NNE,22,0.0,1.6,33,0.00,,,85.23,VWS V14.01,2013-06-02 13:45:00,
2013-06-02 14:46:00,69.6,39.2,29.98,NNW,337,0.0,0.0,33,0.00,,,85.23,VWS V14.01,2013-06-02 13:46:00,
2013-06-02 14:47:00,69.6,40.0,29.98,NNW,337,0.0,0.0,34,0.00,,,85.23,VWS V14.01,2013-06-02 13:47:00,
2013-06-02 14:48:00,70.0,40.4,29.98,North,0,0.0,0.0,34,0.00,,,85.23,VWS V14.01,2013-06-02 13:48:00,
2013-06-02 14:49:00,70.5,40.8,29.98,NNW,337,0.0,0.0,34,0.00,,,85.23,VWS V14.01,2013-06-02 13:49:00,
2013-06-02 14:50:00,71.2,40.7,29.98,NNW,337,0.0,0.0,33,0.00,,,85.23,VWS V14.01,2013-06-02 13:50:00,
2013-06-02 14:51:00,71.4,40.8,29.98,NNW,337,0.0,0.0,33,0.00,,,85.23,VWS V14.01,2013-06-02 13:51:00,
2013-06-02 14:52:00,71.4,40.8,29.98,NNW,337,0.0,0.0,33,0.00,,,85.23,VWS V14.01,2013-06-02 13:52:00,
2013-06-02 14:53:00,73.6,42.0,29.98,NNW,337,2.0,4.3,32,0.00,,,85.23,VWS V14.01,2013-06-02 13:53:00,
2013-06-02 14:54:00,73.8,41.3,29.98,NNW,337,0.0,6.3,31,0.00,,,85.23,VWS V14.01,2013-06-02 13:54:00,
2013-06-02 14:55:00,73.6,41.1,29.98,NNW,337,0.0,5.4,31,0.00,,,85.23,VWS V14.01,2013-06-02 13:55:00,
2013-06-02 14:56:00,73.2,40.8,29.98,NNW,337,0.0,0.0,31,0.00,,,85.23,VWS V14.01,2013-06-02 13:56:00,
2013-06-02 14:57:00,72.9,40.5,29.98,SSW,202,4.5,4.5,31,0.00,,,85.23,VWS V14.01,2013-06-02 13:57:00,
2013-06-02 14:58:00,72.3,40.8,29.98,SSW,202,0.0,4.5,32,0.00,,,85.23,VWS V14.01,2013-06-02 13:58:00,
2013-06-02 14:59:00,71.8,40.4,29.98,SSW,202,0.0,0.0,32,0.00,,,85.23,VWS V14.01,2013-06-02 13:59:00,
2013-06-02 15:00:00,71.4,40.8,29.98,North,0,11.0,11.0,33,0.00,,,85.23,VWS V14.01,2013-06-02 14:00:00,
2013-06-02 15:01:00,71.2,40.7,29.98,NNW,337,0.0,11.0,33,0.00,,,85.23,VWS V14.01,2013-06-02 14:01:00,
2013-06-02 15:02:00,71.4,40.8,29.98,North,0,3.8,8.9,33,0.00,,,85.23,VWS V14.01,2013-06-02 14:02:00,
2013-06-02 15:03:00,71.4,40.8,29.98,SW,225,5.6,8.3,33,0.00,,,85.23,VWS V14.01,2013-06-02 14:03:00,
2013-06-02 15:04:00,71.4,40.8,29.98,North,0,3.8,5.6,33,0.00,,,85.23,VWS V14.01,2013-06-02 14:04:00,
2013-06-02 15:05:00,71.2,40.7,29.98,North,0,0.0,4.3,33,0.00,,,85.23,VWS V14.01,2013-06-02 14:05:00,
2013-06-02 15:06:00,71.2,40.7,29.98,NNW,337,0.0,4.7,33,0.00,,,85.23,VWS V14.01,2013-06-02 14:06:00,
2013-06-02 15:07:00,71.4,40.8,29.98,SSW,202,1.3,3.8,33,0.00,,,85.23,VWS V14.01,2013-06-02 14:07:00,
2013-06-02 15:08:00,72.0,41.3,29.98,North,0,0.0,1.3,33,0.00,,,85.23,VWS V14.01,2013-06-02 14:08:00,
2013-06-02 15:09:00,72.1,41.4,29.98,North,0,0.0,0.0,33,0.00,,,85.23,VWS V14.01,2013-06-02 14:09:00,
2013-06-02 15:10:00,72.3,41.6,29.98,North,0,0.0,0.0,33,0.00,,,85.23,VWS V14.01,2013-06-02 14:10:00,
2013-06-02 15:11:00,72.5,41.8,29.98,NNW,337,0.0,0.0,33,0.00,,,85.23,VWS V14.01,2013-06-02 14:11:00,
2013-06-02 15:12:00,72.7,41.2,29.98,NNE,22,0.0,0.0,32,0.00,,,85.23,VWS V14.01,2013-06-02 14:12:00,
2013-06-02 15:13:00,73.2,41.6,29.98,North,0,5.4,5.4,32,0.00,,,85.23,VWS V14.01,2013-06-02 14:13:00,
2013-06-02 15:14:00,73.4,41.8,29.98,NNE,22,0.0,7.6,32,0.00,,,85.23,VWS V14.01,2013-06-02 14:14:00,
2013-06-02 15:15:00,73.6,41.1,29.98,North,0,2.5,4.7,31,0.00,,,85.23,VWS V14.01,2013-06-02 14:15:00,
2013-06-02 15:16:00,73.9,41.4,29.98,NNE,22,0.0,5.6,31,0.00,,,85.23,VWS V14.01,2013-06-02 14:16:00,
2013-06-02 15:17:00,74.5,41.9,29.98,NNW,337,0.0,5.6,31,0.00,,,85.23,VWS V14.01,2013-06-02 14:17:00,
2013-06-02 15:18:00,75.0,41.5,29.98,NNE,22,0.0,2.5,30,0.00,,,85.23,VWS V14.01,2013-06-02 14:18:00,
2013-06-02 15:19:00,75.6,42.0,29.98,North,0,6.3,6.3,30,0.00,,,85.23,VWS V14.01,2013-06-02 14:19:00,
2013-06-02 15:20:00,76.1,41.6,29.98,NNW,337,0.0,6.3,29,0.00,,,85.23,VWS V14.01,2013-06-02 14:20:00,
2013-06-02 15:21:00,76.6,42.0,29.98,NNW,337,0.0,0.0,29,0.00,,,85.23,VWS V14.01,2013-06-02 14:21:00,
2013-06-02 15:22:00,76.8,42.2,29.98,North,0,0.0,0.0,29,0.00,,,85.23,VWS V14.01,2013-06-02 14:22:00,
2013-06-02 15:23:00,77.4,42.7,29.98,North,0,0.0,0.0,29,0.00,,,85.23,VWS V14.01,2013-06-02 14:23:00,
2013-06-02 15:24:00,77.7,42.0,29.98,NNE,22,2.9,3.6,28,0.00,,,85.23,VWS V14.01,2013-06-02 14:24:00,
2013-06-02 15:25:00,78.1,42.4,29.98,NNW,337,0.0,2.9,28,0.00,,,85.23,VWS V14.01,2013-06-02 14:25:00,
2013-06-02 15:26:00,78.4,42.6,29.98,NNW,337,0.0,6.5,28,0.00,,,85.23,VWS V14.01,2013-06-02 14:26:00,
2013-06-02 15:27:00,78.4,41.7,29.98,NNW,337,0.0,6.5,27,0.00,,,85.23,VWS V14.01,2013-06-02 14:27:00,
2013-06-02 15:28:00,77.7,42.0,29.98,North,0,4.5,9.6,28,0.00,,,85.23,VWS V14.01,2013-06-02 14:28:00,
2013-06-02 15:30:00,77.7,42.0,29.98,North,0,4.5,4.5,28,0.00,,,85.23,VWS V14.01,2013-06-02 14:30:00,
2013-06-02 15:31:00,75.6,41.1,29.98,NNW,337,2.7,9.2,29,0.00,,,85.23,VWS V14.01,2013-06-02 14:31:00,
2013-06-02 15:32:00,74.8,40.5,29.98,NNW,337,0.0,2.7,29,0.00,,,85.23,VWS V14.01,2013-06-02 14:32:00,
2013-06-02 15:33:00,74.1,40.7,29.98,NNE,22,0.0,0.0,30,0.00,,,85.23,VWS V14.01,2013-06-02 14:33:00,
2013-06-02 15:34:00,73.4,40.1,29.97,NNE,22,0.0,0.0,30,0.00,,,85.23,VWS V14.01,2013-06-02 14:34:00,
2013-06-02 15:35:00,73.2,39.9,29.98,NNE,22,0.0,6.9,30,0.00,,,85.23,VWS V14.01,2013-06-02 14:35:00,
2013-06-02 15:36:00,73.0,40.6,29.98,North,0,0.0,0.0,31,0.00,,,85.23,VWS V14.01,2013-06-02 14:36:00,
2013-06-02 15:37:00,73.0,40.6,29.98,NNW,337,4.9,5.6,31,0.00,,,85.23,VWS V14.01,2013-06-02 14:37:00,
2013-06-02 15:38:00,72.9,40.5,29.98,North,0,0.0,10.1,31,0.00,,,85.23,VWS V14.01,2013-06-02 14:38:00,
2013-06-02 15:39:00,72.7,40.3,29.98,NNE,22,5.4,11.4,31,0.00,,,85.23,VWS V14.01,2013-06-02 14:39:00,
2013-06-02 15:40:00,72.5,40.2,29.98,NNW,337,5.8,7.8,31,0.00,,,85.23,VWS V14.01,2013-06-02 14:40:00,
2013-06-02 15:41:00,72.1,39.8,29.98,NNW,337,3.6,5.8,31,0.00,,,85.23,VWS V14.01,2013-06-02 14:41:00,
2013-06-02 15:42:00,72.1,39.8,29.98,North,0,0.0,3.6,31,0.00,,,85.23,VWS V14.01,2013-06-02 14:42:00,
2013-06-02 15:43:00,72.3,40.0,29.98,NNW,337,5.4,5.4,31,0.00,,,85.23,VWS V14.01,2013-06-02 14:43:00,
2013-06-02 15:44:00,72.5,40.2,29.98,NNE,22,8.9,8.9,31,0.00,,,85.23,VWS V14.01,2013-06-02 14:44:00,
2013-06-02 15:45:00,73.0,40.6,29.98,North,0,6.7,8.9,31,0.00,,,85.23,VWS V14.01,2013-06-02 14:45:00,
2013-06-02 15:46:00,73.0,40.6,29.98,NNE,22,1.6,6.7,31,0.00,,,85.23,VWS V14.01,2013-06-02 14:46:00,
2013-06-02 15:47:00,72.7,40.3,29.98,NE,45,1.1,1.8,31,0.00,,,85.23,VWS V14.01,2013-06-02 14:47:00,
2013-06-02 15:48:00,72.7,41.2,29.98,NNW,337,0.0,1.1,32,0.00,,,85.23,VWS V14.01,2013-06-02 14:48:00,
2013-06-02 15:49:00,72.3,40.8,29.98,NNW,337,6.9,6.9,32,0.00,,,85.23,VWS V14.01,2013-06-02 14:49:00,
2013-06-02 15:50:00,72.1,40.7,29.98,NNW,337,0.0,6.9,32,0.00,,,85.23,VWS V14.01,2013-06-02 14:50:00,
2013-06-02 15:51:00,71.8,40.4,29.98,NNW,337,3.8,6.5,32,0.00,,,85.23,VWS V14.01,2013-06-02 14:51:00,
2013-06-02 15:52:00,71.2,40.7,29.98,NNW,337,0.0,5.8,33,0.00,,,85.23,VWS V14.01,2013-06-02 14:52:00,
2013-06-02 15:53:00,70.7,40.2,29.98,NNW,337,3.4,8.1,33,0.00,,,85.23,VWS V14.01,2013-06-02 14:53:00,
2013-06-02 15:54:00,70.3,39.9,29.98,NNW,337,0.0,7.2,33,0.00,,,85.23,VWS V14.01,2013-06-02 14:54:00,
2013-06-02 15:55:00,70.3,39.9,29.98,NNE,22,1.8,1.8,33,0.00,,,85.23,VWS V14.01,2013-06-02 14:55:00,
2013-06-02 15:56:00,70.5,40.0,29.98,NNE,22,0.0,1.8,33,0.00,,,85.23,VWS V14.01,2013-06-02 14:56:00,
2013-06-02 15:57:00,70.7,41.0,29.98,North,0,0.0,1.8,34,0.00,,,85.23,VWS V14.01,2013-06-02 14:57:00,
2013-06-02 15:58:00,70.9,40.4,29.98,NNW,337,0.0,4.5,33,0.00,,,85.23,VWS V14.01,2013-06-02 14:58:00,
2013-06-02 15:59:00,71.2,40.7,29.99,North,0,4.5,5.6,33,0.00,,,85.23,VWS V14.01,2013-06-02 14:59:00,
2013-06-02 16:00:00,71.4,40.8,29.98,North,0,6.0,6.0,33,0.00,,,85.23,VWS V14.01,2013-06-02 15:00:00,
2013-06-02 16:01:00,71.4,40.8,29.98,NNW,337,6.7,6.7,33,0.00,,,85.23,VWS V14.01,2013-06-02 15:01:00,
2013-06-02 16:02:00,71.8,40.4,29.98,North,0,0.0,6.7,32,0.00,,,85.23,VWS V14.01,2013-06-02 15:02:00,
2013-06-02 16:03:00,72.3,40.8,29.98,North,0,0.0,0.0,32,0.00,,,85.23,VWS V14.01,2013-06-02 15:03:00,
2013-06-02 16:04:00,73.0,41.4,29.98,NNW,337,0.0,0.0,32,0.00,,,85.23,VWS V14.01,2013-06-02 15:04:00,
2013-06-02 16:05:00,73.6,41.1,29.98,North,0,3.4,5.4,31,0.00,,,85.23,VWS V14.01,2013-06-02 15:05:00,
2013-06-02 16:06:00,74.1,41.6,29.98,North,0,0.0,3.4,31,0.00,,,85.23,VWS V14.01,2013-06-02 15:06:00,
2013-06-02 16:07:00,74.5,41.1,29.98,North,0,0.0,3.8,30,0.00,,,85.23,VWS V14.01,2013-06-02 15:07:00,
2013-06-02 16:08:00,74.5,41.1,29.99,North,0,0.0,0.0,30,0.00,,,85.23,VWS V14.01,2013-06-02 15:08:00,
2013-06-02 16:09:00,74.5,41.1,29.99,SSW,202,0.0,0.0,30,0.00,,,85.23,VWS V14.01,2013-06-02 15:09:00,
2013-06-02 16:10:00,74.5,41.1,29.99,North,0,0.0,1.1,30,0.00,,,85.23,VWS V14.01,2013-06-02 15:10:00,
2013-06-02 16:11:00,74.5,41.1,29.99,NNE,22,7.2,7.2,30,0.00,,,85.23,VWS V14.01,2013-06-02 15:11:00,
2013-06-02 16:12:00,74.5,41.1,29.98,North,0,4.9,7.2,30,0.00,,,85.23,VWS V14.01,2013-06-02 15:12:00,
2013-06-02 16:13:00,74.7,41.2,29.98,NNW,337,2.9,4.9,30,0.00,,,85.23,VWS V14.01,2013-06-02 15:13:00,
2013-06-02 16:14:00,74.8,41.3,29.98,NNW,337,6.9,6.9,30,0.00,,,85.23,VWS V14.01,2013-06-02 15:14:00,
2013-06-02 16:15:00,75.2,41.7,29.98,NNW,337,2.5,6.9,30,0.00,,,85.23,VWS V14.01,2013-06-02 15:15:00,
2013-06-02 16:16:00,75.6,42.0,29.98,NNE,22,0.0,2.5,30,0.00,,,85.23,VWS V14.01,2013-06-02 15:16:00,
2013-06-02 16:17:00,75.9,42.3,29.98,North,0,0.0,0.0,30,0.00,,,85.23,VWS V14.01,2013-06-02 15:17:00,
2013-06-02 16:18:00,76.3,41.7,29.98,North,0,0.0,0.0,29,0.00,,,85.23,VWS V14.01,2013-06-02 15:18:00,
2013-06-02 16:19:00,76.6,42.0,29.99,NNW,337,3.8,3.8,29,0.00,,,85.23,VWS V14.01,2013-06-02 15:19:00,
2013-06-02 16:20:00,76.8,42.2,29.99,NNW,337,7.6,7.6,29,0.00,,,85.23,VWS V14.01,2013-06-02 15:20:00,
2013-06-02 16:21:00,76.8,42.2,29.99,North,0,0.0,7.6,29,0.00,,,85.23,VWS V14.01,2013-06-02 15:21:00,
2013-06-02 16:22:00,76.6,42.0,29.99,North,0,0.0,0.0,29,0.00,,,85.23,VWS V14.01,2013-06-02 15:22:00,
2013-06-02 16:23:00,76.6,42.0,29.99,NW,315,4.3,4.3,29,0.00,,,85.23,VWS V14.01,2013-06-02 15:23:00,
2013-06-02 16:24:00,76.5,41.9,29.99,NNW,337,4.9,6.3,29,0.00,,,85.23,VWS V14.01,2013-06-02 15:24:00,
2013-06-02 16:25:00,76.1,41.6,29.98,NNE,22,0.0,5.6,29,0.00,,,85.23,VWS V14.01,2013-06-02 15:25:00,
2013-06-02 16:26:00,75.9,41.4,29.98,NNE,22,0.0,0.0,29,0.00,,,85.23,VWS V14.01,2013-06-02 15:26:00,
2013-06-02 16:27:00,75.9,41.4,29.98,North,0,0.0,6.7,29,0.00,,,85.23,VWS V14.01,2013-06-02 15:27:00,
2013-06-02 16:28:00,75.9,42.3,29.98,NNW,337,0.0,1.8,30,0.00,,,85.23,VWS V14.01,2013-06-02 15:28:00,
2013-06-02 16:30:00,76.1,42.5,29.98,NNW,337,1.3,4.3,30,0.00,,,85.23,VWS V14.01,2013-06-02 15:30:00,
2013-06-02 16:31:00,76.8,42.2,29.98,NNE,22,0.0,10.3,29,0.00,,,85.23,VWS V14.01,2013-06-02 15:31:00,
2013-06-02 16:32:00,76.5,41.9,29.98,NNW,337,0.0,0.0,29,0.00,,,85.23,VWS V14.01,2013-06-02 15:32:00,
2013-06-02 16:33:00,76.3,41.7,29.98,NNE,22,0.0,0.0,29,0.00,,,85.23,VWS V14.01,2013-06-02 15:33:00,
2013-06-02 16:34:00,76.1,41.6,29.98,NW,315,4.5,4.9,29,0.00,,,85.23,VWS V14.01,2013-06-02 15:34:00,
2013-06-02 16:35:00,75.7,41.2,29.98,North,0,2.0,5.8,29,0.00,,,85.23,VWS V14.01,2013-06-02 15:35:00,
2013-06-02 16:36:00,75.2,41.7,29.98,North,0,6.5,6.5,30,0.00,,,85.23,VWS V14.01,2013-06-02 15:36:00,
2013-06-02 16:37:00,75.0,41.5,29.98,North,0,0.0,6.5,30,0.00,,,85.23,VWS V14.01,2013-06-02 15:37:00,
2013-06-02 16:38:00,75.0,41.5,29.98,NNE,22,0.0,0.0,30,0.00,,,85.23,VWS V14.01,2013-06-02 15:38:00,
2013-06-02 16:39:00,75.4,41.0,29.98,North,0,3.8,5.4,29,0.00,,,85.23,VWS V14.01,2013-06-02 15:39:00,
2013-06-02 16:40:00,75.7,41.2,29.98,North,0,8.3,8.3,29,0.00,,,85.23,VWS V14.01,2013-06-02 15:40:00,
2013-06-02 16:41:00,75.9,41.4,29.98,North,0,7.8,8.3,29,0.00,,,85.23,VWS V14.01,2013-06-02 15:41:00,
2013-06-02 16:42:00,75.9,41.4,29.98,North,0,0.0,7.8,29,0.00,,,85.23,VWS V14.01,2013-06-02 15:42:00,
2013-06-02 16:43:00,75.9,41.4,29.98,North,0,0.0,5.4,29,0.00,,,85.23,VWS V14.01,2013-06-02 15:43:00,
2013-06-02 16:44:00,76.3,41.7,29.98,NNW,337,0.0,0.0,29,0.00,,,85.23,VWS V14.01,2013-06-02 15:44:00,
2013-06-02 16:45:00,76.6,42.0,29.98,NNW,337,1.6,5.8,29,0.00,,,85.23,VWS V14.01,2013-06-02 15:45:00,
2013-06-02 16:46:00,76.6,42.0,29.98,NNE,22,3.6,6.7,29,0.00,,,85.23,VWS V14.01,2013-06-02 15:46:00,
2013-06-02 16:47:00,76.8,41.3,29.98,NE,45,0.0,6.0,28,0.00,,,85.23,VWS V14.01,2013-06-02 15:47:00,
2013-06-02 16:48:00,76.8,41.3,29.98,North,0,6.5,6.5,28,0.00,,,85.23,VWS V14.01,2013-06-02 15:48:00,
2013-06-02 16:49:00,76.8,41.3,29.98,NNW,337,5.4,6.5,28,0.00,,,85.23,VWS V14.01,2013-06-02 15:49:00,
2013-06-02 16:50:00,76.8,41.3,29.98,NNW,337,0.0,5.4,28,0.00,,,85.23,VWS V14.01,2013-06-02 15:50:00,
2013-06-02 16:51:00,77.0,42.3,29.98,NNE,22,0.0,3.4,29,0.00,,,85.23,VWS V14.01,2013-06-02 15:51:00,
2013-06-02 16:52:00,77.2,41.6,29.98,North,0,0.0,6.5,28,0.00,,,85.23,VWS V14.01,2013-06-02 15:52:00,
2013-06-02 16:53:00,77.5,41.9,29.98,North,0,5.1,10.7,28,0.00,,,85.23,VWS V14.01,2013-06-02 15:53:00,
2013-06-02 16:54:00,77.5,41.9,29.98,NNE,22,4.0,12.3,28,0.00,,,85.23,VWS V14.01,2013-06-02 15:54:00,
2013-06-02 16:55:00,77.4,41.8,29.98,North,0,1.8,5.4,28,0.00,,,85.23,VWS V14.01,2013-06-02 15:55:00,
2013-06-02 16:56:00,77.2,41.6,29.98,North,0,0.0,2.5,28,0.00,,,85.23,VWS V14.01,2013-06-02 15:56:00,
2013-06-02 16:57:00,77.2,41.6,29.98,NW,315,0.0,0.0,28,0.00,,,85.23,VWS V14.01,2013-06-02 15:57:00,
2013-06-02 16:58:00,77.4,41.8,29.98,NNW,337,0.0,0.0,28,0.00,,,85.23,VWS V14.01,2013-06-02 15:58:00,
2013-06-02 16:59:00,77.7,42.0,29.98,NNW,337,0.0,4.3,28,0.00,,,85.23,VWS V14.01,2013-06-02 15:59:00,
2013-06-02 17:00:00,77.9,42.2,29.98,North,0,3.6,4.7,28,0.00,,,85.23,VWS V14.01,2013-06-02 16:00:00,
2013-06-02 17:01:00,77.9,42.2,29.98,NNE,22,0.0,3.6,28,0.00,,,85.23,VWS V14.01,2013-06-02 16:01:00,
2013-06-02 17:02:00,77.7,42.0,29.98,NNE,22,7.4,7.4,28,0.00,,,85.23,VWS V14.01,2013-06-02 16:02:00,
2013-06-02 17:03:00,78.1,42.4,29.98,North,0,5.1,13.2,28,0.00,,,85.23,VWS V14.01,2013-06-02 16:03:00,
2013-06-02 17:04:00,78.1,42.4,29.98,NE,45,4.5,5.8,28,0.00,,,85.23,VWS V14.01,2013-06-02 16:04:00,
2013-06-02 17:05:00,77.9,42.2,29.98,NNE,22,3.6,6.5,28,0.00,,,85.23,VWS V14.01,2013-06-02 16:05:00,
2013-06-02 17:06:00,77.9,42.2,29.98,NNE,22,6.9,6.9,28,0.00,,,85.23,VWS V14.01,2013-06-02 16:06:00,
2013-06-02 17:07:00,77.9,42.2,29.99,NNW,337,4.0,8.1,28,0.00,,,85.23,VWS V14.01,2013-06-02 16:07:00,
2013-06-02 17:08:00,77.5,41.9,29.98,NNE,22,0.0,4.0,28,0.00,,,85.23,VWS V14.01,2013-06-02 16:08:00,
2013-06-02 17:09:00,77.4,41.8,29.98,NNE,22,0.0,5.4,28,0.00,,,85.23,VWS V14.01,2013-06-02 16:09:00,
2013-06-02 17:10:00,76.8,41.3,29.98,NNE,22,0.0,0.0,28,0.00,,,85.23,VWS V14.01,2013-06-02 16:10:00,
2013-06-02 17:11:00,76.3,40.8,29.98,NNE,22,0.0,7.2,28,0.00,,,85.23,VWS V14.01,2013-06-02 16:11:00,
2013-06-02 17:12:00,75.7,40.3,29.98,NNE,22,5.6,9.4,28,0.00,,,85.23,VWS V14.01,2013-06-02 16:12:00,
2013-06-02 17:13:00,75.0,40.6,29.98,North,0,0.0,5.6,29,0.00,,,85.23,VWS V14.01,2013-06-02 16:13:00,
2013-06-02 17:14:00,74.7,40.4,29.98,NNW,337,0.0,5.8,29,0.00,,,85.23,VWS V14.01,2013-06-02 16:14:00,
2013-06-02 17:15:00,74.1,39.8,29.98,NNW,337,0.0,8.3,29,0.00,,,85.23,VWS V14.01,2013-06-02 16:15:00,
2013-06-02 17:16:00,73.8,39.6,29.98,North,0,5.6,7.6,29,0.00,,,85.23,VWS V14.01,2013-06-02 16:16:00,
2013-06-02 17:17:00,73.6,39.4,29.98,NNE,22,0.0,5.6,29,0.00,,,85.23,VWS V14.01,2013-06-02 16:17:00,
2013-06-02 17:18:00,73.9,40.5,29.98,NNW,337,0.0,0.0,30,0.00,,,85.23,VWS V14.01,2013-06-02 16:18:00,
2013-06-02 17:19:00,74.3,40.0,29.98,NNW,337,0.0,5.4,29,0.00,,,85.23,VWS V14.01,2013-06-02 16:19:00,
2013-06-02 17:20:00,75.0,40.6,29.98,NNW,337,0.0,5.4,29,0.00,,,85.23,VWS V14.01,2013-06-02 16:20:00,
2013-06-02 17:21:00,75.0,40.6,29.98,NNE,22,3.6,4.9,29,0.00,,,85.23,VWS V14.01,2013-06-02 16:21:00,
2013-06-02 17:22:00,75.2,40.8,29.98,NNW,337,0.0,5.1,29,0.00,,,85.23,VWS V14.01,2013-06-02 16:22:00,
2013-06-02 17:23:00,75.4,41.0,29.99,NW,315,4.3,4.3,29,0.00,,,85.23,VWS V14.01,2013-06-02 16:23:00,
2013-06-02 17:24:00,75.7,41.2,29.99,North,0,0.0,6.5,29,0.00,,,85.23,VWS V14.01,2013-06-02 16:24:00,
2013-06-02 17:25:00,75.9,41.4,29.99,North,0,0.0,0.0,29,0.00,,,85.23,VWS V14.01,2013-06-02 16:25:00,
2013-06-02 17:26:00,76.3,40.8,29.99,NNW,337,0.0,4.0,28,0.00,,,85.23,VWS V14.01,2013-06-02 16:26:00,
2013-06-02 17:27:00,76.5,41.0,29.99,North,0,0.0,0.0,28,0.00,,,85.23,VWS V14.01,2013-06-02 16:27:00,
2013-06-02 17:28:00,76.6,41.1,29.99,NNE,22,0.0,0.0,28,0.00,,,85.23,VWS V14.01,2013-06-02 16:28:00,
2013-06-02 17:30:00,76.8,41.3,29.99,NNE,22,0.0,0.0,28,0.00,,,85.23,VWS V14.01,2013-06-02 16:30:00,
2013-06-02 17:31:00,77.5,41.9,29.98,NE,45,0.0,6.5,28,0.00,,,85.23,VWS V14.01,2013-06-02 16:31:00,
2013-06-02 17:32:00,77.5,41.9,29.98,NE,45,0.0,5.4,28,0.00,,,85.23,VWS V14.01,2013-06-02 16:32:00,
2013-06-02 17:33:00,77.7,42.0,29.98,NNE,22,3.1,5.8,28,0.00,,,85.23,VWS V14.01,2013-06-02 16:33:00,
2013-06-02 17:34:00,77.9,41.3,29.98,NNW,337,0.0,3.8,27,0.00,,,85.23,VWS V14.01,2013-06-02 16:34:00,
2013-06-02 17:35:00,77.9,42.2,29.99,North,0,0.0,1.1,28,0.00,,,85.23,VWS V14.01,2013-06-02 16:35:00,
2013-06-02 17:36:00,78.1,42.4,29.99,North,0,0.0,0.0,28,0.00,,,85.23,VWS V14.01,2013-06-02 16:36:00,
2013-06-02 17:37:00,78.4,41.7,29.99,North,0,2.7,5.6,27,0.00,,,85.23,VWS V14.01,2013-06-02 16:37:00,
2013-06-02 17:38:00,78.6,41.9,29.99,NNE,22,4.9,4.9,27,0.00,,,85.23,VWS V14.01,2013-06-02 16:38:00,
2013-06-02 17:39:00,78.6,41.9,29.99,NNE,22,6.9,9.8,27,0.00,,,85.23,VWS V14.01,2013-06-02 16:39:00,
2013-06-02 17:40:00,78.6,41.9,29.99,North,0,3.1,6.9,27,0.00,,,85.23,VWS V14.01,2013-06-02 16:40:00,
2013-06-02 17:41:00,78.6,41.9,29.99,North,0,0.0,4.5,27,0.00,,,85.23,VWS V14.01,2013-06-02 16:41:00,
2013-06-02 17:42:00,78.6,41.9,29.98,NNW,337,0.0,2.0,27,0.00,,,85.23,VWS V14.01,2013-06-02 16:42:00,
2013-06-02 17:43:00,78.6,41.9,29.98,North,0,0.0,0.0,27,0.00,,,85.23,VWS V14.01,2013-06-02 16:43:00,
2013-06-02 17:44:00,79.0,42.2,29.98,North,0,0.0,4.7,27,0.00,,,85.23,VWS V14.01,2013-06-02 16:44:00,
2013-06-02 17:45:00,79.0,42.2,29.98,North,0,3.6,4.7,27,0.00,,,85.23,VWS V14.01,2013-06-02 16:45:00,
2013-06-02 17:46:00,79.0,42.2,29.98,NNE,22,0.0,3.8,27,0.00,,,85.23,VWS V14.01,2013-06-02 16:46:00,
2013-06-02 17:47:00,79.0,42.2,29.98,NNE,22,5.6,10.1,27,0.00,,,85.23,VWS V14.01,2013-06-02 16:47:00,
2013-06-02 17:48:00,79.0,42.2,29.98,NNE,22,0.0,5.6,27,0.00,,,85.23,VWS V14.01,2013-06-02 16:48:00,
2013-06-02 17:49:00,78.8,42.0,29.98,NNE,22,0.0,0.0,27,0.00,,,85.23,VWS V14.01,2013-06-02 16:49:00,
2013-06-02 17:50:00,79.0,42.2,29.98,North,0,0.0,0.0,27,0.00,,,85.23,VWS V14.01,2013-06-02 16:50:00,
2013-06-02 17:51:00,79.0,42.2,29.98,North,0,0.0,0.0,27,0.00,,,85.23,VWS V14.01,2013-06-02 16:51:00,
2013-06-02 17:52:00,79.2,42.4,29.98,NNW,337,0.0,0.0,27,0.00,,,85.23,VWS V14.01,2013-06-02 16:52:00,
2013-06-02 17:53:00,79.2,41.4,29.98,NNW,337,6.9,8.9,26,0.00,,,85.23,VWS V14.01,2013-06-02 16:53:00,
2013-06-02 17:54:00,78.6,40.9,29.98,NE,45,0.0,6.9,26,0.00,,,85.23,VWS V14.01,2013-06-02 16:54:00,
2013-06-02 17:55:00,78.6,40.9,29.98,North,0,0.0,0.0,26,0.00,,,85.23,VWS V14.01,2013-06-02 16:55:00,
2013-06-02 17:56:00,78.3,41.6,29.98,NNW,337,0.0,0.0,27,0.00,,,85.23,VWS V14.01,2013-06-02 16:56:00,
2013-06-02 17:57:00,78.1,41.4,29.98,North,0,7.8,7.8,27,0.00,,,85.23,VWS V14.01,2013-06-02 16:57:00,
2013-06-02 17:58:00,77.7,41.1,29.98,North,0,9.8,9.8,27,0.00,,,85.23,VWS V14.01,2013-06-02 16:58:00,
2013-06-02 17:59:00,77.5,40.9,29.98,North,0,4.5,11.2,27,0.00,,,85.23,VWS V14.01,2013-06-02 16:59:00,
2013-06-02 18:00:00,77.4,40.8,29.98,NNE,22,11.2,13.2,27,0.00,,,85.23,VWS V14.01,2013-06-02 17:00:00,
2013-06-02 18:01:00,76.6,40.2,29.98,NE,45,11.2,11.2,27,0.00,,,85.23,VWS V14.01,2013-06-02 17:01:00,
2013-06-02 18:02:00,76.3,39.9,29.98,North,0,4.3,11.2,27,0.00,,,85.23,VWS V14.01,2013-06-02 17:02:00,
2013-06-02 18:03:00,76.1,39.7,29.98,NNE,22,8.1,11.0,27,0.00,,,85.23,VWS V14.01,2013-06-02 17:03:00,
2013-06-02 18:04:00,75.7,40.3,29.98,NNE,22,1.1,10.3,28,0.00,,,85.23,VWS V14.01,2013-06-02 17:04:00,
2013-06-02 18:05:00,75.2,39.9,29.98,North,0,2.7,9.4,28,0.00,,,85.23,VWS V14.01,2013-06-02 17:05:00,
2013-06-02 18:06:00,75.0,39.7,29.98,North,0,13.2,13.2,28,0.00,,,85.23,VWS V14.01,2013-06-02 17:06:00,
2013-06-02 18:07:00,75.0,39.7,29.98,NNE,22,0.0,13.2,28,0.00,,,85.23,VWS V14.01,2013-06-02 17:07:00,
2013-06-02 18:08:00,75.0,40.6,29.98,NNE,22,0.0,0.0,29,0.00,,,85.23,VWS V14.01,2013-06-02 17:08:00,
2013-06-02 18:09:00,75.4,41.0,29.98,NNE,22,0.0,0.0,29,0.00,,,85.23,VWS V14.01,2013-06-02 17:09:00,
2013-06-02 18:10:00,75.7,40.3,29.98,North,0,0.0,7.4,28,0.00,,,85.23,VWS V14.01,2013-06-02 17:10:00,
2013-06-02 18:11:00,75.9,40.5,29.98,NE,45,6.3,8.3,28,0.00,,,85.23,VWS V14.01,2013-06-02 17:11:00,
2013-06-02 18:12:00,76.1,40.7,29.98,NNE,22,3.1,8.5,28,0.00,,,85.23,VWS V14.01,2013-06-02 17:12:00,
2013-06-02 18:13:00,76.1,40.7,29.98,NE,45,0.0,3.6,28,0.00,,,85.23,VWS V14.01,2013-06-02 17:13:00,
2013-06-02 18:14:00,76.3,40.8,29.98,NE,45,0.0,5.8,28,0.00,,,85.23,VWS V14.01,2013-06-02 17:14:00,
2013-06-02 18:15:00,76.3,40.8,29.98,NNE,22,0.0,0.0,28,0.00,,,85.23,VWS V14.01,2013-06-02 17:15:00,
2013-06-02 18:16:00,76.3,40.8,29.98,North,0,5.4,9.4,28,0.00,,,85.23,VWS V14.01,2013-06-02 17:16:00,
2013-06-02 18:17:00,76.3,40.8,29.98,NNE,22,6.0,11.9,28,0.00,,,85.23,VWS V14.01,2013-06-02 17:17:00,
2013-06-02 18:18:00,75.9,40.5,29.98,NNW,337,6.0,10.3,28,0.00,,,85.23,VWS V14.01,2013-06-02 17:18:00,
2013-06-02 18:19:00,75.6,40.2,29.98,NNW,337,5.6,6.0,28,0.00,,,85.23,VWS V14.01,2013-06-02 17:19:00,
2013-06-02 18:20:00,75.4,40.1,29.98,North,0,4.3,5.6,28,0.00,,,85.23,VWS V14.01,2013-06-02 17:20:00,
2013-06-02 18:21:00,75.0,39.7,29.98,NNW,337,0.0,4.3,28,0.00,,,85.23,VWS V14.01,2013-06-02 17:21:00,
2013-06-02 18:22:00,75.0,39.7,29.98,North,0,0.2,8.9,28,0.00,,,85.23,VWS V14.01,2013-06-02 17:22:00,
2013-06-02 18:23:00,75.0,39.7,29.98,NNE,22,8.1,8.1,28,0.00,,,85.23,VWS V14.01,2013-06-02 17:23:00,
2013-06-02 18:24:00,74.8,39.5,29.98,NNW,337,5.4,8.1,28,0.00,,,85.23,VWS V14.01,2013-06-02 17:24:00,
2013-06-02 18:25:00,74.5,40.2,29.98,NNW,337,3.6,5.4,29,0.00,,,85.23,VWS V14.01,2013-06-02 17:25:00,
2013-06-02 18:26:00,73.9,39.7,29.98,NNW,337,6.3,9.2,29,0.00,,,85.23,VWS V14.01,2013-06-02 17:26:00,
2013-06-02 18:27:00,73.8,39.6,29.98,North,0,0.0,6.3,29,0.00,,,85.23,VWS V14.01,2013-06-02 17:27:00,
2013-06-02 18:28:00,73.6,39.4,29.98,NNW,337,0.0,8.3,29,0.00,,,85.23,VWS V14.01,2013-06-02 17:28:00,
2013-06-02 18:30:00,73.6,40.3,29.98,North,0,4.7,4.7,30,0.00,,,85.23,VWS V14.01,2013-06-02 17:30:00,
2013-06-02 18:31:00,73.4,40.1,29.98,NNE,22,0.0,4.7,30,0.00,,,85.23,VWS V14.01,2013-06-02 17:31:00,
2013-06-02 18:32:00,73.4,40.1,29.98,North,0,4.3,5.6,30,0.00,,,85.23,VWS V14.01,2013-06-02 17:32:00,
2013-06-02 18:33:00,73.4,40.1,29.98,North,0,9.4,9.4,30,0.00,,,85.23,VWS V14.01,2013-06-02 17:33:00,
2013-06-02 18:34:00,73.2,39.9,29.98,NE,45,2.7,9.4,30,0.00,,,85.23,VWS V14.01,2013-06-02 17:34:00,
2013-06-02 18:35:00,72.7,39.5,29.98,NNE,22,0.0,6.0,30,0.00,,,85.23,VWS V14.01,2013-06-02 17:35:00,
2013-06-02 18:36:00,72.7,39.5,29.98,NNE,22,0.0,0.0,30,0.00,,,85.23,VWS V14.01,2013-06-02 17:36:00,
2013-06-02 18:37:00,72.7,39.5,29.98,North,0,11.0,11.0,30,0.00,,,85.23,VWS V14.01,2013-06-02 17:37:00,
2013-06-02 18:38:00,72.9,39.7,29.98,North,0,6.3,11.0,30,0.00,,,85.23,VWS V14.01,2013-06-02 17:38:00,
2013-06-02 18:39:00,72.9,39.7,29.98,North,0,0.0,6.3,30,0.00,,,85.23,VWS V14.01,2013-06-02 17:39:00,
2013-06-02 18:40:00,73.0,39.8,29.98,North,0,0.0,0.0,30,0.00,,,85.23,VWS V14.01,2013-06-02 17:40:00,
2013-06-02 18:41:00,73.2,39.9,29.98,North,0,0.0,1.1,30,0.00,,,85.23,VWS V14.01,2013-06-02 17:41:00,
2013-06-02 18:42:00,73.6,40.3,29.98,NNE,22,6.9,7.4,30,0.00,,,85.23,VWS V14.01,2013-06-02 17:42:00,
2013-06-02 18:43:00,73.8,40.5,29.98,NNE,22,0.0,6.9,30,0.00,,,85.23,VWS V14.01,2013-06-02 17:43:00,
2013-06-02 18:44:00,74.1,40.7,29.99,NNE,22,0.0,0.0,30,0.00,,,85.23,VWS V14.01,2013-06-02 17:44:00,
2013-06-02 18:45:00,74.5,40.2,29.98,NE,45,0.0,0.0,29,0.00,,,85.23,VWS V14.01,2013-06-02 17:45:00,
2013-06-02 18:46:00,75.0,40.6,29.98,NNE,22,0.0,0.0,29,0.00,,,85.23,VWS V14.01,2013-06-02 17:46:00,
2013-06-02 18:47:00,75.4,41.0,29.99,North,0,0.0,5.4,29,0.00,,,85.23,VWS V14.01,2013-06-02 17:47:00,
2013-06-02 18:48:00,75.6,41.1,29.98,NE,45,0.0,6.9,29,0.00,,,85.23,VWS V14.01,2013-06-02 17:48:00,
2013-06-02 18:49:00,75.7,41.2,29.98,NNE,22,6.3,6.3,29,0.00,,,85.23,VWS V14.01,2013-06-02 17:49:00,
2013-06-02 18:50:00,75.7,41.2,29.98,NNE,22,1.8,8.5,29,0.00,,,85.23,VWS V14.01,2013-06-02 17:50:00,
2013-06-02 18:51:00,75.7,41.2,29.98,North,0,0.0,8.5,29,0.00,,,85.23,VWS V14.01,2013-06-02 17:51:00,
2013-06-02 18:52:00,75.7,41.2,29.98,NNW,337,0.0,6.9,29,0.00,,,85.23,VWS V14.01,2013-06-02 17:52:00,
2013-06-02 18:53:00,75.4,41.0,29.98,NNE,22,0.0,6.3,29,0.00,,,85.23,VWS V14.01,2013-06-02 17:53:00,
2013-06-02 18:54:00,75.0,40.6,29.98,NNW,337,0.0,10.5,29,0.00,,,85.23,VWS V14.01,2013-06-02 17:54:00,
2013-06-02 18:55:00,74.5,40.2,29.98,North,0,5.1,5.8,29,0.00,,,85.23,VWS V14.01,2013-06-02 17:55:00,
2013-06-02 18:56:00,74.1,39.8,29.98,NNE,22,4.5,10.5,29,0.00,,,85.23,VWS V14.01,2013-06-02 17:56:00,
2013-06-02 18:57:00,73.8,40.5,29.98,NNW,337,2.2,7.6,30,0.00,,,85.23,VWS V14.01,2013-06-02 17:57:00,
2013-06-02 18:58:00,73.2,39.9,29.98,North,0,0.0,5.6,30,0.00,,,85.23,VWS V14.01,2013-06-02 17:58:00,
2013-06-02 18:59:00,72.7,39.5,29.98,North,0,0.0,3.4,30,0.00,,,85.23,VWS V14.01,2013-06-02 17:59:00,
2013-06-02 19:00:00,72.7,40.3,29.98,North,0,0.0,1.8,31,0.00,,,85.23,VWS V14.01,2013-06-02 18:00:00,
2013-06-02 19:01:00,72.7,40.3,29.98,North,0,3.8,5.6,31,0.00,,,85.23,VWS V14.01,2013-06-02 18:01:00,
2013-06-02 19:02:00,72.7,40.3,29.99,North,0,5.6,5.6,31,0.00,,,85.23,VWS V14.01,2013-06-02 18:02:00,
2013-06-02 19:03:00,72.5,40.2,29.99,North,0,11.0,11.0,31,0.00,,,85.23,VWS V14.01,2013-06-02 18:03:00,
2013-06-02 19:04:00,72.3,40.0,29.99,North,0,0.0,11.0,31,0.00,,,85.23,VWS V14.01,2013-06-02 18:04:00,
2013-06-02 19:05:00,72.1,39.8,29.99,North,0,0.0,0.0,31,0.00,,,85.23,VWS V14.01,2013-06-02 18:05:00,
2013-06-02 19:06:00,72.0,39.7,29.99,North,0,4.9,4.9,31,0.00,,,85.23,VWS V14.01,2013-06-02 18:06:00,
2013-06-02 19:07:00,71.8,39.6,29.99,North,0,4.3,4.9,31,0.00,,,85.23,VWS V14.01,2013-06-02 18:07:00,
2013-06-02 19:08:00,71.8,40.4,29.99,NNE,22,0.0,4.3,32,0.00,,,85.23,VWS V14.01,2013-06-02 18:08:00,
2013-06-02 19:09:00,71.8,40.4,29.99,NNE,22,0.0,0.0,32,0.00,,,85.23,VWS V14.01,2013-06-02 18:09:00,
2013-06-02 19:10:00,71.8,40.4,29.99,NNE,22,2.5,11.9,32,0.00,,,85.23,VWS V14.01,2013-06-02 18:10:00,
2013-06-02 19:11:00,71.4,40.0,29.99,NE,45,0.0,2.5,32,0.00,,,85.23,VWS V14.01,2013-06-02 18:11:00,
2013-06-02 19:12:00,70.9,39.6,29.99,NE,45,0.0,0.0,32,0.00,,,85.23,VWS V14.01,2013-06-02 18:12:00,
2013-06-02 19:13:00,70.5,40.0,29.99,North,0,7.4,7.8,33,0.00,,,85.23,VWS V14.01,2013-06-02 18:13:00,
2013-06-02 19:14:00,70.2,39.8,29.99,NNE,22,7.2,8.1,33,0.00,,,85.23,VWS V14.01,2013-06-02 18:14:00,
2013-06-02 19:15:00,69.8,39.4,29.99,North,0,3.4,7.2,33,0.00,,,85.23,VWS V14.01,2013-06-02 18:15:00,
2013-06-02 19:16:00,69.6,39.2,29.99,North,0,0.0,3.4,33,0.00,,,85.23,VWS V14.01,2013-06-02 18:16:00,
2013-06-02 19:17:00,69.6,40.0,29.99,NNE,22,0.0,1.6,34,0.00,,,85.23,VWS V14.01,2013-06-02 18:17:00,
2013-06-02 19:18:00,69.6,40.0,29.99,NNE,22,0.0,0.0,34,0.00,,,85.23,VWS V14.01,2013-06-02 18:18:00,
2013-06-02 19:19:00,70.2,40.5,29.99,North,0,4.5,4.5,34,0.00,,,85.23,VWS V14.01,2013-06-02 18:19:00,
2013-06-02 19:20:00,70.5,40.8,29.99,NNE,22,0.0,4.5,34,0.00,,,85.23,VWS V14.01,2013-06-02 18:20:00,
2013-06-02 19:21:00,70.9,41.2,29.99,North,0,5.6,5.6,34,0.00,,,85.23,VWS V14.01,2013-06-02 18:21:00,
2013-06-02 19:22:00,71.4,40.8,29.99,NNE,22,0.0,6.0,33,0.00,,,85.23,VWS V14.01,2013-06-02 18:22:00,
2013-06-02 19:23:00,71.8,41.2,29.99,NNE,22,0.0,0.0,33,0.00,,,85.23,VWS V14.01,2013-06-02 18:23:00,
2013-06-02 19:24:00,71.8,41.2,29.99,NNE,22,0.0,0.0,33,0.00,,,85.23,VWS V14.01,2013-06-02 18:24:00,
2013-06-02 19:25:00,72.0,41.3,29.99,North,0,0.0,0.0,33,0.00,,,85.23,VWS V14.01,2013-06-02 18:25:00,
2013-06-02 19:26:00,72.0,41.3,29.99,NNE,22,0.0,0.0,33,0.00,,,85.23,VWS V14.01,2013-06-02 18:26:00,
2013-06-02 19:27:00,71.8,41.2,29.99,North,0,0.0,0.0,33,0.00,,,85.23,VWS V14.01,2013-06-02 18:27:00,
2013-06-02 19:28:00,71.4,40.0,29.99,NE,45,0.0,0.0,32,0.00,,,85.23,VWS V14.01,2013-06-02 18:28:00,
2013-06-02 19:29:00,70.9,40.4,29.99,NE,45,0.0,5.8,33,0.00,,,85.23,VWS V14.01,2013-06-02 18:29:00,
2013-06-02 19:30:00,70.9,40.4,29.99,NNE,22,0.0,0.0,33,0.00,,,85.23,VWS V14.01,2013-06-02 18:30:00,
2013-06-02 19:31:00,70.9,40.4,29.99,North,0,0.0,0.0,33,0.00,,,85.23,VWS V14.01,2013-06-02 18:31:00,
2013-06-02 19:32:00,70.9,40.4,29.99,North,0,0.0,0.0,33,0.00,,,85.23,VWS V14.01,2013-06-02 18:32:00,
2013-06-02 19:33:00,70.9,40.4,29.99,NNE,22,0.0,0.0,33,0.00,,,85.23,VWS V14.01,2013-06-02 18:33:00,
2013-06-02 19:34:00,70.9,40.4,29.99,NNE,22,0.0,0.0,33,0.00,,,85.23,VWS V14.01,2013-06-02 18:34:00,
2013-06-02 19:35:00,70.9,40.4,29.99,NNE,22,0.0,0.0,33,0.00,,,85.23,VWS V14.01,2013-06-02 18:35:00,
2013-06-02 19:36:00,70.9,40.4,29.99,NNE,22,0.0,0.0,33,0.00,,,85.23,VWS V14.01,2013-06-02 18:36:00,
2013-06-02 19:37:00,70.9,40.4,29.99,North,0,0.0,0.0,33,0.00,,,85.23,VWS V14.01,2013-06-02 18:37:00,
2013-06-02 19:38:00,70.9,40.4,29.99,NNE,22,0.0,0.0,33,0.00,,,85.23,VWS V14.01,2013-06-02 18:38:00,
2013-06-02 19:39:00,70.9,40.4,29.99,NNE,22,0.0,0.0,33,0.00,,,85.23,VWS V14.01,2013-06-02 18:39:00,
2013-06-02 19:40:00,71.2,40.7,30.00,NNE,22,0.0,0.0,33,0.00,,,85.23,VWS V14.01,2013-06-02 18:40:00,
2013-06-02 19:41:00,71.2,40.7,30.00,NNE,22,0.0,0.0,33,0.00,,,85.23,VWS V14.01,2013-06-02 18:41:00,
2013-06-02 19:42:00,71.2,40.7,30.00,NE,45,0.0,0.0,33,0.00,,,85.23,VWS V14.01,2013-06-02 18:42:00,
2013-06-02 19:43:00,71.2,40.7,30.00,NNE,22,0.0,0.0,33,0.00,,,85.23,VWS V14.01,2013-06-02 18:43:00,
2013-06-02 19:44:00,71.2,40.7,30.00,NE,45,0.0,0.0,33,0.00,,,85.23,VWS V14.01,2013-06-02 18:44:00,
2013-06-02 19:45:00,71.2,40.7,30.00,NE,45,0.0,0.0,33,0.00,,,85.23,VWS V14.01,2013-06-02 18:45:00,
2013-06-02 19:46:00,71.2,40.7,30.00,North,0,0.0,0.0,33,0.00,,,85.23,VWS V14.01,2013-06-02 18:46:00,
2013-06-02 19:47:00,71.4,40.8,29.99,NE,45,0.0,0.0,33,0.00,,,85.23,VWS V14.01,2013-06-02 18:47:00,
2013-06-02 19:48:00,71.2,40.7,30.00,NNE,22,0.0,0.0,33,0.00,,,85.23,VWS V14.01,2013-06-02 18:48:00,
2013-06-02 19:49:00,71.2,40.7,30.00,NNE,22,0.0,0.0,33,0.00,,,85.23,VWS V14.01,2013-06-02 18:49:00,
2013-06-02 19:50:00,71.4,40.8,30.00,NNE,22,0.0,0.0,33,0.00,,,85.23,VWS V14.01,2013-06-02 18:50:00,
2013-06-02 19:51:00,71.2,40.7,29.99,NNE,22,9.8,9.8,33,0.00,,,85.23,VWS V14.01,2013-06-02 18:51:00,
2013-06-02 19:52:00,70.9,40.4,30.00,NNE,22,0.0,10.7,33,0.00,,,85.23,VWS V14.01,2013-06-02 18:52:00,
2013-06-02 19:53:00,70.3,39.9,30.00,North,0,6.5,6.7,33,0.00,,,85.23,VWS V14.01,2013-06-02 18:53:00,
2013-06-02 19:54:00,70.0,40.4,30.00,NNE,22,0.0,6.5,34,0.00,,,85.23,VWS V14.01,2013-06-02 18:54:00,
2013-06-02 19:55:00,69.8,40.2,30.00,North,0,8.7,8.7,34,0.00,,,85.23,VWS V14.01,2013-06-02 18:55:00,
2013-06-02 19:56:00,69.6,40.0,30.00,NNE,22,0.0,8.7,34,0.00,,,85.23,VWS V14.01,2013-06-02 18:56:00,
2013-06-02 19:57:00,69.4,39.8,30.00,NNW,337,0.0,0.0,34,0.00,,,85.23,VWS V14.01,2013-06-02 18:57:00,
2013-06-02 19:58:00,69.1,39.6,30.00,North,0,0.0,0.0,34,0.00,,,85.23,VWS V14.01,2013-06-02 18:58:00,
2013-06-02 19:59:00,68.7,39.2,29.99,NNE,22,0.0,0.0,34,0.00,,,85.23,VWS V14.01,2013-06-02 18:59:00,
2013-06-02 20:00:00,68.7,40.0,29.99,NNE,22,0.0,0.0,35,0.00,,,85.23,VWS V14.01,2013-06-02 19:00:00,
2013-06-02 20:01:00,68.5,39.8,29.99,North,0,0.0,4.3,35,0.00,,,85.23,VWS V14.01,2013-06-02 19:01:00,
2013-06-02 20:02:00,68.2,39.5,29.99,NNE,22,6.5,6.5,35,0.00,,,85.23,VWS V14.01,2013-06-02 19:02:00,
2013-06-02 20:03:00,68.0,39.3,30.00,NNE,22,2.5,6.5,35,0.00,,,85.23,VWS V14.01,2013-06-02 19:03:00,
2013-06-02 20:04:00,67.8,39.2,30.00,NNE,22,0.0,2.5,35,0.00,,,85.23,VWS V14.01,2013-06-02 19:04:00,
2013-06-02 20:05:00,67.6,39.7,30.00,North,0,0.0,0.0,36,0.00,,,85.23,VWS V14.01,2013-06-02 19:05:00,
2013-06-02 20:06:00,67.3,39.5,30.00,North,0,0.0,0.0,36,0.00,,,85.23,VWS V14.01,2013-06-02 19:06:00,
2013-06-02 20:07:00,66.9,39.1,30.00,NNE,22,0.0,0.0,36,0.00,,,85.23,VWS V14.01,2013-06-02 19:07:00,
2013-06-02 20:08:00,66.6,38.8,30.00,North,0,0.0,0.0,36,0.00,,,85.23,VWS V14.01,2013-06-02 19:08:00,
2013-06-02 20:09:00,66.4,39.4,30.00,North,0,0.0,0.0,37,0.00,,,85.23,VWS V14.01,2013-06-02 19:09:00,
2013-06-02 20:10:00,66.0,39.0,30.00,North,0,0.7,4.9,37,0.00,,,85.23,VWS V14.01,2013-06-02 19:10:00,
2013-06-02 20:11:00,66.0,39.0,30.00,NNE,22,1.3,5.4,37,0.00,,,85.23,VWS V14.01,2013-06-02 19:11:00,
2013-06-02 20:12:00,65.8,38.8,30.00,NNE,22,5.4,5.4,37,0.00,,,85.23,VWS V14.01,2013-06-02 19:12:00,
2013-06-02 20:13:00,65.5,39.2,30.01,NNE,22,6.9,6.9,38,0.00,,,85.23,VWS V14.01,2013-06-02 19:13:00,
2013-06-02 20:14:00,65.5,39.2,30.00,NNE,22,4.0,6.9,38,0.00,,,85.23,VWS V14.01,2013-06-02 19:14:00,
2013-06-02 20:15:00,65.1,38.9,30.00,NE,45,0.0,4.9,38,0.00,,,85.23,VWS V14.01,2013-06-02 19:15:00,
2013-06-02 20:16:00,64.9,38.7,30.01,NNE,22,0.0,4.0,38,0.00,,,85.23,VWS V14.01,2013-06-02 19:16:00,
2013-06-02 20:17:00,64.8,38.6,30.00,NNE,22,1.8,2.5,38,0.00,,,85.23,VWS V14.01,2013-06-02 19:17:00,
2013-06-02 20:18:00,64.6,39.1,30.00,NNE,22,6.5,6.5,39,0.00,,,85.23,VWS V14.01,2013-06-02 19:18:00,
2013-06-02 20:19:00,64.6,39.1,30.00,NNE,22,8.7,8.7,39,0.00,,,85.23,VWS V14.01,2013-06-02 19:19:00,
2013-06-02 20:20:00,64.6,39.1,30.00,North,0,3.6,8.7,39,0.00,,,85.23,VWS V14.01,2013-06-02 19:20:00,
2013-06-02 20:21:00,64.6,39.8,30.00,North,0,0.0,6.9,40,0.00,,,85.23,VWS V14.01,2013-06-02 19:21:00,
2013-06-02 20:22:00,64.8,39.9,30.00,North,0,8.1,8.1,40,0.00,,,85.23,VWS V14.01,2013-06-02 19:22:00,
2013-06-02 20:23:00,64.8,39.9,30.00,NNW,337,3.8,8.1,40,0.00,,,85.23,VWS V14.01,2013-06-02 19:23:00,
2013-06-02 20:24:00,64.8,39.9,30.00,North,0,6.9,7.2,40,0.00,,,85.23,VWS V14.01,2013-06-02 19:24:00,
2013-06-02 20:25:00,64.8,39.9,30.00,North,0,4.7,6.9,40,0.00,,,85.23,VWS V14.01,2013-06-02 19:25:00,
2013-06-02 20:26:00,64.9,40.0,30.00,North,0,1.6,4.7,40,0.00,,,85.23,VWS V14.01,2013-06-02 19:26:00,
2013-06-02 20:27:00,64.9,40.0,30.00,NNE,22,3.1,3.1,40,0.00,,,85.23,VWS V14.01,2013-06-02 19:27:00,
2013-06-02 20:28:00,64.9,40.0,30.00,North,0,2.9,4.9,40,0.00,,,85.23,VWS V14.01,2013-06-02 19:28:00,
2013-06-02 20:29:00,64.9,40.0,30.00,NE,45,2.2,4.9,40,0.00,,,85.23,VWS V14.01,2013-06-02 19:29:00,
2013-06-02 20:30:00,64.9,40.0,30.01,NE,45,4.3,4.5,40,0.00,,,85.23,VWS V14.01,2013-06-02 19:30:00,
2013-06-02 20:31:00,64.9,40.0,30.00,NNW,337,0.0,4.3,40,0.00,,,85.23,VWS V14.01,2013-06-02 19:31:00,
2013-06-02 20:32:00,64.8,39.9,30.01,NE,45,0.0,3.6,40,0.00,,,85.23,VWS V14.01,2013-06-02 19:32:00,
2013-06-02 20:33:00,64.8,39.9,30.01,NNE,22,0.0,11.0,40,0.00,,,85.23,VWS V14.01,2013-06-02 19:33:00,
2013-06-02 20:34:00,64.8,39.9,30.01,NE,45,5.8,5.8,40,0.00,,,85.23,VWS V14.01,2013-06-02 19:34:00,
2013-06-02 20:35:00,64.6,39.8,30.01,North,0,5.1,7.2,40,0.00,,,85.23,VWS V14.01,2013-06-02 19:35:00,
2013-06-02 20:36:00,64.4,39.6,30.01,NNE,22,3.4,5.1,40,0.00,,,85.23,VWS V14.01,2013-06-02 19:36:00,
2013-06-02 20:37:00,64.2,40.0,30.01,NNE,22,6.7,8.3,41,0.00,,,85.23,VWS V14.01,2013-06-02 19:37:00,
2013-06-02 20:38:00,64.2,40.0,30.01,NE,45,3.8,8.9,41,0.00,,,85.23,VWS V14.01,2013-06-02 19:38:00,
2013-06-02 20:39:00,64.0,39.8,30.01,NNE,22,7.2,7.4,41,0.00,,,85.23,VWS V14.01,2013-06-02 19:39:00,
2013-06-02 20:40:00,63.9,39.8,30.01,NNE,22,0.0,7.2,41,0.00,,,85.23,VWS V14.01,2013-06-02 19:40:00,
2013-06-02 20:41:00,63.7,39.6,30.01,NNE,22,0.0,0.0,41,0.00,,,85.23,VWS V14.01,2013-06-02 19:41:00,
2013-06-02 20:42:00,63.5,39.4,30.01,North,0,0.0,3.4,41,0.00,,,85.23,VWS V14.01,2013-06-02 19:42:00,
2013-06-02 20:43:00,63.3,39.2,30.01,NNE,22,3.8,4.3,41,0.00,,,85.23,VWS V14.01,2013-06-02 19:43:00,
2013-06-02 20:44:00,63.3,39.2,30.01,NNE,22,0.0,3.8,41,0.00,,,85.23,VWS V14.01,2013-06-02 19:44:00,
2013-06-02 20:45:00,63.1,39.7,30.01,North,0,0.0,0.0,42,0.00,,,85.23,VWS V14.01,2013-06-02 19:45:00,
2013-06-02 20:46:00,63.0,39.6,30.01,NNE,22,0.0,0.0,42,0.00,,,85.23,VWS V14.01,2013-06-02 19:46:00,
2013-06-02 20:47:00,62.8,39.4,30.02,North,0,0.0,0.0,42,0.00,,,85.23,VWS V14.01,2013-06-02 19:47:00,
2013-06-02 20:48:00,62.6,39.2,30.02,NNE,22,0.0,0.0,42,0.00,,,85.23,VWS V14.01,2013-06-02 19:48:00,
2013-06-02 20:49:00,62.4,39.0,30.02,NNE,22,0.0,0.0,42,0.00,,,85.23,VWS V14.01,2013-06-02 19:49:00,
2013-06-02 20:50:00,62.2,38.8,30.01,North,0,0.0,0.0,42,0.00,,,85.23,VWS V14.01,2013-06-02 19:50:00,
2013-06-02 20:51:00,61.9,39.2,30.01,NNE,22,0.0,0.0,43,0.00,,,85.23,VWS V14.01,2013-06-02 19:51:00,
2013-06-02 20:52:00,61.7,39.0,30.01,NNE,22,0.0,0.0,43,0.00,,,85.23,VWS V14.01,2013-06-02 19:52:00,
2013-06-02 20:53:00,61.5,38.8,30.01,NNE,22,0.0,0.0,43,0.00,,,85.23,VWS V14.01,2013-06-02 19:53:00,
2013-06-02 20:54:00,61.3,38.6,30.01,NNE,22,0.0,0.0,43,0.00,,,85.23,VWS V14.01,2013-06-02 19:54:00,
2013-06-02 20:55:00,61.0,38.4,30.01,NNE,22,0.0,0.0,43,0.00,,,85.23,VWS V14.01,2013-06-02 19:55:00,
2013-06-02 20:56:00,61.0,39.0,30.01,North,0,0.0,0.0,44,0.00,,,85.23,VWS V14.01,2013-06-02 19:56:00,
2013-06-02 20:57:00,60.6,38.6,30.01,NNE,22,0.0,0.0,44,0.00,,,85.23,VWS V14.01,2013-06-02 19:57:00,
2013-06-02 20:58:00,60.4,38.4,30.01,NE,45,0.0,0.0,44,0.00,,,85.23,VWS V14.01,2013-06-02 19:58:00,
2013-06-02 20:59:00,60.3,38.9,30.01,NE,45,0.0,0.0,45,0.00,,,85.23,VWS V14.01,2013-06-02 19:59:00,
2013-06-02 21:00:00,60.1,38.7,30.01,NE,45,0.0,0.0,45,0.00,,,85.23,VWS V14.01,2013-06-02 20:00:00,
2013-06-02 21:01:00,60.1,39.3,30.01,NE,45,0.0,0.0,46,0.00,,,85.23,VWS V14.01,2013-06-02 20:01:00,
2013-06-02 21:02:00,59.9,39.1,30.01,NE,45,0.0,0.0,46,0.00,,,85.23,VWS V14.01,2013-06-02 20:02:00,
2013-06-02 21:03:00,59.7,39.5,30.01,NE,45,0.0,0.0,47,0.00,,,85.23,VWS V14.01,2013-06-02 20:03:00,
2013-06-02 21:04:00,59.5,39.3,30.01,NE,45,0.0,0.0,47,0.00,,,85.23,VWS V14.01,2013-06-02 20:04:00,
2013-06-02 21:05:00,59.4,39.7,30.01,NE,45,0.0,0.0,48,0.00,,,85.23,VWS V14.01,2013-06-02 20:05:00,
2013-06-02 21:06:00,59.4,39.2,30.02,NE,45,0.0,0.0,47,0.00,,,85.23,VWS V14.01,2013-06-02 20:06:00,
2013-06-02 21:07:00,59.0,39.4,30.02,NE,45,0.0,0.0,48,0.00,,,85.23,VWS V14.01,2013-06-02 20:07:00,
2013-06-02 21:08:00,58.8,39.2,30.02,NE,45,0.0,0.0,48,0.00,,,85.23,VWS V14.01,2013-06-02 20:08:00,
2013-06-02 21:09:00,58.8,39.2,30.02,NE,45,0.0,0.0,48,0.00,,,85.23,VWS V14.01,2013-06-02 20:09:00,
2013-06-02 21:10:00,58.8,39.7,30.02,NE,45,0.0,0.0,49,0.00,,,85.23,VWS V14.01,2013-06-02 20:10:00,
2013-06-02 21:11:00,58.8,39.7,30.02,NE,45,0.0,0.0,49,0.00,,,85.23,VWS V14.01,2013-06-02 20:11:00,
2013-06-02 21:12:00,58.8,39.7,30.02,NE,45,4.3,4.3,49,0.00,,,85.23,VWS V14.01,2013-06-02 20:12:00,
2013-06-02 21:13:00,58.8,39.7,30.02,NE,45,0.0,4.3,49,0.00,,,85.23,VWS V14.01,2013-06-02 20:13:00,
2013-06-02 21:14:00,58.6,39.5,30.02,NE,45,0.0,0.0,49,0.00,,,85.23,VWS V14.01,2013-06-02 20:14:00,
2013-06-02 21:15:00,58.6,39.5,30.02,NE,45,7.6,7.6,49,0.00,,,85.23,VWS V14.01,2013-06-02 20:15:00,
2013-06-02 21:16:00,58.3,39.8,30.02,NE,45,0.0,7.6,50,0.00,,,85.23,VWS V14.01,2013-06-02 20:16:00,
2013-06-02 21:17:00,58.3,39.8,30.02,NE,45,0.0,0.0,50,0.00,,,85.23,VWS V14.01,2013-06-02 20:17:00,
2013-06-02 21:18:00,58.1,39.6,30.02,NE,45,0.0,0.0,50,0.00,,,85.23,VWS V14.01,2013-06-02 20:18:00,
2013-06-02 21:19:00,58.1,39.6,30.02,NE,45,0.0,0.0,50,0.00,,,85.23,VWS V14.01,2013-06-02 20:19:00,
2013-06-02 21:20:00,57.9,39.4,30.02,NE,45,0.0,0.0,50,0.00,,,85.23,VWS V14.01,2013-06-02 20:20:00,
2013-06-02 21:21:00,57.9,39.4,30.02,NE,45,0.0,0.0,50,0.00,,,85.23,VWS V14.01,2013-06-02 20:21:00,
2013-06-02 21:22:00,57.9,39.4,30.02,NE,45,0.0,0.0,50,0.00,,,85.23,VWS V14.01,2013-06-02 20:22:00,
2013-06-02 21:23:00,57.7,39.2,30.03,NNE,22,0.0,0.0,50,0.00,,,85.23,VWS V14.01,2013-06-02 20:23:00,
2013-06-02 21:24:00,57.7,39.2,30.03,NNE,22,0.0,0.0,50,0.00,,,85.23,VWS V14.01,2013-06-02 20:24:00,
2013-06-02 21:25:00,57.6,39.6,30.03,NE,45,0.0,0.0,51,0.00,,,85.23,VWS V14.01,2013-06-02 20:25:00,
2013-06-02 21:26:00,57.4,39.4,30.02,NE,45,0.0,0.0,51,0.00,,,85.23,VWS V14.01,2013-06-02 20:26:00,
2013-06-02 21:27:00,57.4,39.4,30.02,NE,45,0.0,0.0,51,0.00,,,85.23,VWS V14.01,2013-06-02 20:27:00,
2013-06-02 21:28:00,57.4,39.4,30.03,NE,45,0.0,0.0,51,0.00,,,85.23,VWS V14.01,2013-06-02 20:28:00,
2013-06-02 21:29:00,57.2,39.2,30.03,NE,45,0.0,0.0,51,0.00,,,85.23,VWS V14.01,2013-06-02 20:29:00,
2013-06-02 21:30:00,57.0,39.6,30.02,NE,45,0.0,0.0,52,0.00,,,85.23,VWS V14.01,2013-06-02 20:30:00,
2013-06-02 21:31:00,57.0,39.1,30.02,NE,45,0.0,0.0,51,0.00,,,85.23,VWS V14.01,2013-06-02 20:31:00,
2013-06-02 21:32:00,57.0,39.6,30.02,NE,45,0.0,0.0,52,0.00,,,85.23,VWS V14.01,2013-06-02 20:32:00,
2013-06-02 21:33:00,57.0,39.6,30.02,NE,45,0.0,0.0,52,0.00,,,85.23,VWS V14.01,2013-06-02 20:33:00,
2013-06-02 21:34:00,57.0,39.6,30.02,NNE,22,0.0,0.0,52,0.00,,,85.23,VWS V14.01,2013-06-02 20:34:00,
2013-06-02 21:35:00,56.8,39.4,30.02,NE,45,0.0,0.0,52,0.00,,,85.23,VWS V14.01,2013-06-02 20:35:00,
2013-06-02 21:36:00,56.8,39.4,30.02,NE,45,0.0,0.0,52,0.00,,,85.23,VWS V14.01,2013-06-02 20:36:00,
2013-06-02 21:37:00,56.8,39.4,30.03,NE,45,0.0,0.0,52,0.00,,,85.23,VWS V14.01,2013-06-02 20:37:00,
2013-06-02 21:38:00,56.8,39.9,30.03,NE,45,0.0,0.0,53,0.00,,,85.23,VWS V14.01,2013-06-02 20:38:00,
2013-06-02 21:39:00,56.8,39.4,30.03,NE,45,0.0,0.0,52,0.00,,,85.23,VWS V14.01,2013-06-02 20:39:00,
2013-06-02 21:40:00,56.7,40.3,30.03,North,0,0.0,9.8,54,0.00,,,85.23,VWS V14.01,2013-06-02 20:40:00,
2013-06-02 21:41:00,56.7,39.8,30.03,NE,45,0.0,2.2,53,0.00,,,85.23,VWS V14.01,2013-06-02 20:41:00,
2013-06-02 21:42:00,56.5,39.6,30.03,NE,45,3.8,3.8,53,0.00,,,85.23,VWS V14.01,2013-06-02 20:42:00,
2013-06-02 21:43:00,56.5,40.5,30.03,NE,45,0.0,4.3,55,0.00,,,85.23,VWS V14.01,2013-06-02 20:43:00,
2013-06-02 21:44:00,56.5,40.5,30.03,NE,45,2.0,2.0,55,0.00,,,85.23,VWS V14.01,2013-06-02 20:44:00,
2013-06-02 21:45:00,56.5,41.0,30.03,NE,45,0.0,2.9,56,0.00,,,85.23,VWS V14.01,2013-06-02 20:45:00,
2013-06-02 21:46:00,56.5,41.5,30.03,NE,45,2.5,2.5,57,0.00,,,85.23,VWS V14.01,2013-06-02 20:46:00,
2013-06-02 21:47:00,56.5,41.5,30.02,NE,45,4.7,6.0,57,0.00,,,85.23,VWS V14.01,2013-06-02 20:47:00,
2013-06-02 21:48:00,56.5,42.4,30.02,NE,45,0.0,5.1,59,0.00,,,85.23,VWS V14.01,2013-06-02 20:48:00,
2013-06-02 21:49:00,56.5,42.8,30.03,NNE,22,0.0,4.5,60,0.00,,,85.23,VWS V14.01,2013-06-02 20:49:00,
2013-06-02 21:50:00,56.3,42.6,30.03,NNE,22,0.0,0.0,60,0.00,,,85.23,VWS V14.01,2013-06-02 20:50:00,
2013-06-02 21:51:00,56.3,43.5,30.03,NE,45,4.0,6.9,62,0.00,,,85.23,VWS V14.01,2013-06-02 20:51:00,
2013-06-02 21:52:00,56.1,43.3,30.03,NE,45,2.2,4.9,62,0.00,,,85.23,VWS V14.01,2013-06-02 20:52:00,
2013-06-02 21:53:00,56.1,43.7,30.03,NNE,22,7.8,7.8,63,0.00,,,85.23,VWS V14.01,2013-06-02 20:53:00,
2013-06-02 21:54:00,56.1,43.7,30.03,NE,45,6.3,7.8,63,0.00,,,85.23,VWS V14.01,2013-06-02 20:54:00,
2013-06-02 21:55:00,56.1,43.7,30.03,NE,45,0.0,6.3,63,0.00,,,85.23,VWS V14.01,2013-06-02 20:55:00,
2013-06-02 21:56:00,55.9,43.5,30.03,NNE,22,0.0,0.0,63,0.00,,,85.23,VWS V14.01,2013-06-02 20:56:00,
2013-06-02 21:57:00,55.9,43.9,30.03,NE,45,0.0,9.6,64,0.00,,,85.23,VWS V14.01,2013-06-02 20:57:00,
2013-06-02 21:58:00,55.9,43.9,30.03,NNE,22,0.0,0.0,64,0.00,,,85.23,VWS V14.01,2013-06-02 20:58:00,
2013-06-02 21:59:00,55.9,43.9,30.03,NNE,22,0.0,0.0,64,0.00,,,85.23,VWS V14.01,2013-06-02 20:59:00,
2013-06-02 22:00:00,55.8,43.8,30.03,NNE,22,0.0,0.0,64,0.00,,,85.23,VWS V14.01,2013-06-02 21:00:00,
2013-06-02 22:01:00,55.8,44.2,30.03,NE,45,0.0,0.0,65,0.00,,,85.23,VWS V14.01,2013-06-02 21:01:00,
2013-06-02 22:02:00,55.8,44.2,30.03,NNE,22,0.0,0.0,65,0.00,,,85.23,VWS V14.01,2013-06-02 21:02:00,
2013-06-02 22:03:00,55.6,44.0,30.03,NNE,22,0.0,0.0,65,0.00,,,85.23,VWS V14.01,2013-06-02 21:03:00,
2013-06-02 22:04:00,55.6,44.0,30.03,NNE,22,0.0,0.0,65,0.00,,,85.23,VWS V14.01,2013-06-02 21:04:00,
2013-06-02 22:05:00,55.6,44.0,30.03,South,180,0.0,0.0,65,0.00,,,85.23,VWS V14.01,2013-06-02 21:05:00,
2013-06-02 22:06:00,55.4,43.8,30.03,NNE,22,4.7,4.7,65,0.00,,,85.23,VWS V14.01,2013-06-02 21:06:00,
2013-06-02 22:07:00,55.4,44.2,30.03,South,180,8.5,8.5,66,0.00,,,85.23,VWS V14.01,2013-06-02 21:07:00,
2013-06-02 22:08:00,55.2,44.0,30.03,South,180,2.9,8.5,66,0.00,,,85.23,VWS V14.01,2013-06-02 21:08:00,
2013-06-02 22:09:00,55.2,44.0,30.03,NE,45,7.2,7.2,66,0.00,,,85.23,VWS V14.01,2013-06-02 21:09:00,
2013-06-02 22:10:00,55.2,44.5,30.03,NNE,22,4.0,7.2,67,0.00,,,85.23,VWS V14.01,2013-06-02 21:10:00,
2013-06-02 22:11:00,55.2,44.5,30.03,NE,45,5.1,6.9,67,0.00,,,85.23,VWS V14.01,2013-06-02 21:11:00,
2013-06-02 22:12:00,55.2,44.0,30.03,NNE,22,5.1,5.1,66,0.00,,,85.23,VWS V14.01,2013-06-02 21:12:00,
2013-06-02 22:13:00,55.2,44.5,30.03,NNE,22,7.2,7.2,67,0.00,,,85.23,VWS V14.01,2013-06-02 21:13:00,
2013-06-02 22:14:00,55.2,44.5,30.04,South,180,2.2,7.2,67,0.00,,,85.23,VWS V14.01,2013-06-02 21:14:00,
2013-06-02 22:15:00,55.0,44.3,30.03,SSE,157,0.0,2.9,67,0.00,,,85.23,VWS V14.01,2013-06-02 21:15:00,
2013-06-02 22:16:00,55.0,44.3,30.03,NE,45,3.6,3.6,67,0.00,,,85.23,VWS V14.01,2013-06-02 21:16:00,
2013-06-02 22:17:00,55.0,44.3,30.03,NNE,22,0.0,3.8,67,0.00,,,85.23,VWS V14.01,2013-06-02 21:17:00,
2013-06-02 22:18:00,55.0,44.3,30.03,NE,45,4.5,4.5,67,0.00,,,85.23,VWS V14.01,2013-06-02 21:18:00,
2013-06-02 22:19:00,54.9,44.2,30.03,NE,45,0.0,4.5,67,0.00,,,85.23,VWS V14.01,2013-06-02 21:19:00,
2013-06-02 22:20:00,54.7,43.6,30.03,NE,45,0.0,0.0,66,0.00,,,85.23,VWS V14.01,2013-06-02 21:20:00,
2013-06-02 22:21:00,54.7,43.6,30.03,NE,45,0.0,0.0,66,0.00,,,85.23,VWS V14.01,2013-06-02 21:21:00,
2013-06-02 22:22:00,54.5,43.4,30.03,NNE,22,0.0,0.0,66,0.00,,,85.23,VWS V14.01,2013-06-02 21:22:00,
2013-06-02 22:23:00,54.5,43.4,30.04,NE,45,0.0,0.0,66,0.00,,,85.23,VWS V14.01,2013-06-02 21:23:00,
2013-06-02 22:24:00,54.3,43.2,30.04,NE,45,0.0,0.0,66,0.00,,,85.23,VWS V14.01,2013-06-02 21:24:00,
2013-06-02 22:25:00,54.3,43.2,30.03,South,180,0.0,0.0,66,0.00,,,85.23,VWS V14.01,2013-06-02 21:25:00,
2013-06-02 22:26:00,54.3,43.6,30.04,NNE,22,0.0,4.3,67,0.00,,,85.23,VWS V14.01,2013-06-02 21:26:00,
2013-06-02 22:27:00,54.3,43.6,30.03,NE,45,0.0,0.2,67,0.00,,,85.23,VWS V14.01,2013-06-02 21:27:00,
2013-06-02 22:28:00,54.1,43.4,30.03,NE,45,0.0,1.8,67,0.00,,,85.23,VWS V14.01,2013-06-02 21:28:00,
2013-06-02 22:29:00,54.1,43.4,30.03,NNE,22,2.5,3.4,67,0.00,,,85.23,VWS V14.01,2013-06-02 21:29:00,
2013-06-02 22:30:00,54.1,43.8,30.03,NE,45,6.0,6.3,68,0.00,,,85.23,VWS V14.01,2013-06-02 21:30:00,
2013-06-02 22:31:00,54.1,43.8,30.03,NE,45,5.1,6.0,68,0.00,,,85.23,VWS V14.01,2013-06-02 21:31:00,
2013-06-02 22:32:00,54.0,43.7,30.03,NNE,22,0.9,5.1,68,0.00,,,85.23,VWS V14.01,2013-06-02 21:32:00,
2013-06-02 22:33:00,54.0,43.7,30.03,NE,45,0.0,0.9,68,0.00,,,85.23,VWS V14.01,2013-06-02 21:33:00,
2013-06-02 22:34:00,54.0,43.7,30.03,NE,45,0.0,0.0,68,0.00,,,85.23,VWS V14.01,2013-06-02 21:34:00,
2013-06-02 22:35:00,53.8,43.5,30.04,NE,45,0.0,0.0,68,0.00,,,85.23,VWS V14.01,2013-06-02 21:35:00,
2013-06-02 22:36:00,53.8,43.5,30.04,NNE,22,0.7,4.0,68,0.00,,,85.23,VWS V14.01,2013-06-02 21:36:00,
2013-06-02 22:37:00,53.8,43.5,30.04,NNE,22,0.0,0.7,68,0.00,,,85.23,VWS V14.01,2013-06-02 21:37:00,
2013-06-02 22:38:00,53.8,43.5,30.04,NNE,22,0.7,2.2,68,0.00,,,85.23,VWS V14.01,2013-06-02 21:38:00,
2013-06-02 22:39:00,53.8,43.5,30.03,NE,45,0.0,5.8,68,0.00,,,85.23,VWS V14.01,2013-06-02 21:39:00,
2013-06-02 22:40:00,53.8,43.5,30.04,NE,45,0.0,2.9,68,0.00,,,85.23,VWS V14.01,2013-06-02 21:40:00,
2013-06-02 22:41:00,53.8,43.5,30.04,NE,45,3.6,3.6,68,0.00,,,85.23,VWS V14.01,2013-06-02 21:41:00,
2013-06-02 22:42:00,53.6,43.3,30.04,NE,45,2.2,3.6,68,0.00,,,85.23,VWS V14.01,2013-06-02 21:42:00,
2013-06-02 22:43:00,53.4,43.1,30.04,NE,45,0.0,3.1,68,0.00,,,85.23,VWS V14.01,2013-06-02 21:43:00,
2013-06-02 22:44:00,53.4,43.1,30.04,NE,45,0.0,0.0,68,0.00,,,85.23,VWS V14.01,2013-06-02 21:44:00,
2013-06-02 22:45:00,53.4,43.1,30.03,NE,45,0.0,3.6,68,0.00,,,85.23,VWS V14.01,2013-06-02 21:45:00,
2013-06-02 22:46:00,53.4,43.1,30.04,NE,45,1.1,4.0,68,0.00,,,85.23,VWS V14.01,2013-06-02 21:46:00,
2013-06-02 22:47:00,53.4,43.1,30.04,SSE,157,4.5,4.5,68,0.00,,,85.23,VWS V14.01,2013-06-02 21:47:00,
2013-06-02 22:48:00,53.2,42.9,30.04,NE,45,2.7,4.5,68,0.00,,,85.23,VWS V14.01,2013-06-02 21:48:00,
2013-06-02 22:49:00,53.2,42.9,30.04,NE,45,2.2,4.3,68,0.00,,,85.23,VWS V14.01,2013-06-02 21:49:00,
2013-06-02 22:50:00,53.2,42.9,30.04,NE,45,0.0,2.2,68,0.00,,,85.23,VWS V14.01,2013-06-02 21:50:00,
2013-06-02 22:51:00,53.2,42.9,30.04,South,180,0.0,0.0,68,0.00,,,85.23,VWS V14.01,2013-06-02 21:51:00,
2013-06-02 22:52:00,53.2,42.9,30.04,South,180,4.3,4.3,68,0.00,,,85.23,VWS V14.01,2013-06-02 21:52:00,
2013-06-02 22:53:00,53.2,43.3,30.04,NE,45,3.6,4.3,69,0.00,,,85.23,VWS V14.01,2013-06-02 21:53:00,
2013-06-02 22:54:00,53.2,43.3,30.04,NE,45,0.0,4.0,69,0.00,,,85.23,VWS V14.01,2013-06-02 21:54:00,
2013-06-02 22:55:00,53.2,43.3,30.03,NNE,22,0.0,4.0,69,0.00,,,85.23,VWS V14.01,2013-06-02 21:55:00,
2013-06-02 22:56:00,53.1,43.2,30.04,NNE,22,0.0,0.0,69,0.00,,,85.23,VWS V14.01,2013-06-02 21:56:00,
2013-06-02 22:57:00,52.9,42.6,30.04,NNE,22,0.0,0.0,68,0.00,,,85.23,VWS V14.01,2013-06-02 21:57:00,
2013-06-02 22:58:00,52.9,43.0,30.04,NE,45,0.0,0.0,69,0.00,,,85.23,VWS V14.01,2013-06-02 21:58:00,
2013-06-02 22:59:00,52.9,43.0,30.04,NE,45,0.0,3.4,69,0.00,,,85.23,VWS V14.01,2013-06-02 21:59:00,
2013-06-02 23:00:00,52.9,43.0,30.04,NE,45,0.0,0.0,69,0.00,,,85.23,VWS V14.01,2013-06-02 22:00:00,
2013-06-02 23:01:00,52.9,43.0,30.04,NE,45,0.0,0.0,69,0.00,,,85.23,VWS V14.01,2013-06-02 22:01:00,
2013-06-02 23:02:00,52.9,43.0,30.04,NE,45,0.0,0.0,69,0.00,,,85.23,VWS V14.01,2013-06-02 22:02:00,
2013-06-02 23:03:00,52.7,42.8,30.04,NE,45,0.0,0.0,69,0.00,,,85.23,VWS V14.01,2013-06-02 22:03:00,
2013-06-02 23:04:00,52.7,42.8,30.04,NE,45,0.0,0.0,69,0.00,,,85.23,VWS V14.01,2013-06-02 22:04:00,
2013-06-02 23:05:00,52.7,42.8,30.04,NE,45,0.0,0.0,69,0.00,,,85.23,VWS V14.01,2013-06-02 22:05:00,
2013-06-02 23:06:00,52.5,42.6,30.05,NE,45,0.0,0.0,69,0.00,,,85.23,VWS V14.01,2013-06-02 22:06:00,
2013-06-02 23:07:00,52.5,42.6,30.04,NE,45,0.0,0.0,69,0.00,,,85.23,VWS V14.01,2013-06-02 22:07:00,
2013-06-02 23:08:00,52.5,42.6,30.04,NE,45,0.0,0.0,69,0.00,,,85.23,VWS V14.01,2013-06-02 22:08:00,
2013-06-02 23:09:00,52.3,42.5,30.04,NE,45,0.0,0.0,69,0.00,,,85.23,VWS V14.01,2013-06-02 22:09:00,
2013-06-02 23:10:00,52.3,42.8,30.04,NE,45,0.0,0.0,70,0.00,,,85.23,VWS V14.01,2013-06-02 22:10:00,
2013-06-02 23:11:00,52.3,42.5,30.04,NE,45,0.0,0.0,69,0.00,,,85.23,VWS V14.01,2013-06-02 22:11:00,
2013-06-02 23:12:00,52.3,42.5,30.04,NE,45,0.0,0.0,69,0.00,,,85.23,VWS V14.01,2013-06-02 22:12:00,
2013-06-02 23:13:00,52.2,42.3,30.04,NE,45,0.0,0.0,69,0.00,,,85.23,VWS V14.01,2013-06-02 22:13:00,
2013-06-02 23:14:00,52.0,42.2,30.04,NE,45,0.0,0.0,69,0.00,,,85.23,VWS V14.01,2013-06-02 22:14:00,
2013-06-02 23:15:00,52.0,42.2,30.04,NE,45,0.0,0.0,69,0.00,,,85.23,VWS V14.01,2013-06-02 22:15:00,
2013-06-02 23:16:00,52.0,42.2,30.04,NE,45,0.0,0.0,69,0.00,,,85.23,VWS V14.01,2013-06-02 22:16:00,
2013-06-02 23:17:00,51.8,42.3,30.04,NE,45,2.7,4.0,70,0.00,,,85.23,VWS V14.01,2013-06-02 22:17:00,
2013-06-02 23:18:00,51.8,42.3,30.04,NE,45,0.0,2.7,70,0.00,,,85.23,VWS V14.01,2013-06-02 22:18:00,
2013-06-02 23:19:00,51.8,42.3,30.04,NE,45,0.0,0.0,70,0.00,,,85.23,VWS V14.01,2013-06-02 22:19:00,
2013-06-02 23:20:00,51.8,42.3,30.04,NE,45,0.0,0.0,70,0.00,,,85.23,VWS V14.01,2013-06-02 22:20:00,
2013-06-02 23:21:00,51.8,42.3,30.04,NE,45,0.0,0.0,70,0.00,,,85.23,VWS V14.01,2013-06-02 22:21:00,
2013-06-02 23:22:00,51.6,42.2,30.04,NE,45,0.0,0.0,70,0.00,,,85.23,VWS V14.01,2013-06-02 22:22:00,
2013-06-02 23:23:00,51.6,42.2,30.04,NE,45,0.0,0.0,70,0.00,,,85.23,VWS V14.01,2013-06-02 22:23:00,
2013-06-02 23:24:00,51.6,42.2,30.05,NE,45,0.0,0.0,70,0.00,,,85.23,VWS V14.01,2013-06-02 22:24:00,
2013-06-02 23:25:00,51.6,42.5,30.05,NE,45,0.0,0.0,71,0.00,,,85.23,VWS V14.01,2013-06-02 22:25:00,
2013-06-02 23:26:00,51.6,42.5,30.05,NNE,22,0.0,0.0,71,0.00,,,85.23,VWS V14.01,2013-06-02 22:26:00,
2013-06-02 23:27:00,51.6,42.5,30.05,NE,45,0.0,0.0,71,0.00,,,85.23,VWS V14.01,2013-06-02 22:27:00,
2013-06-02 23:28:00,51.6,42.5,30.04,NE,45,0.0,0.0,71,0.00,,,85.23,VWS V14.01,2013-06-02 22:28:00,
2013-06-02 23:29:00,51.6,42.5,30.04,NE,45,0.0,0.0,71,0.00,,,85.23,VWS V14.01,2013-06-02 22:29:00,
2013-06-02 23:30:00,51.6,42.9,30.04,NE,45,0.0,0.0,72,0.00,,,85.23,VWS V14.01,2013-06-02 22:30:00,
2013-06-02 23:31:00,51.4,42.3,30.04,NE,45,0.0,0.0,71,0.00,,,85.23,VWS V14.01,2013-06-02 22:31:00,
2013-06-02 23:32:00,51.6,42.9,30.04,NE,45,0.0,0.0,72,0.00,,,85.23,VWS V14.01,2013-06-02 22:32:00,
2013-06-02 23:33:00,51.4,42.7,30.05,NE,45,0.0,0.0,72,0.00,,,85.23,VWS V14.01,2013-06-02 22:33:00,
2013-06-02 23:34:00,51.4,42.3,30.04,NE,45,0.0,0.0,71,0.00,,,85.23,VWS V14.01,2013-06-02 22:34:00,
2013-06-02 23:35:00,51.4,42.3,30.04,NE,45,0.0,0.0,71,0.00,,,85.23,VWS V14.01,2013-06-02 22:35:00,
2013-06-02 23:36:00,51.4,42.7,30.04,NNE,22,0.0,0.0,72,0.00,,,85.23,VWS V14.01,2013-06-02 22:36:00,
2013-06-02 23:37:00,51.4,42.7,30.04,NNE,22,0.0,0.0,72,0.00,,,85.23,VWS V14.01,2013-06-02 22:37:00,
2013-06-02 23:38:00,51.4,42.7,30.04,NNE,22,0.0,0.0,72,0.00,,,85.23,VWS V14.01,2013-06-02 22:38:00,
2013-06-02 23:39:00,51.4,42.7,30.04,NNE,22,0.0,0.0,72,0.00,,,85.23,VWS V14.01,2013-06-02 22:39:00,
2013-06-02 23:40:00,51.3,42.6,30.05,NNE,22,0.0,0.0,72,0.00,,,85.23,VWS V14.01,2013-06-02 22:40:00,
2013-06-02 23:41:00,51.1,42.4,30.04,NNE,22,0.0,0.0,72,0.00,,,85.23,VWS V14.01,2013-06-02 22:41:00,
2013-06-02 23:42:00,51.1,42.4,30.04,NNE,22,0.0,0.0,72,0.00,,,85.23,VWS V14.01,2013-06-02 22:42:00,
2013-06-02 23:43:00,51.1,42.4,30.04,NNE,22,0.0,0.0,72,0.00,,,85.23,VWS V14.01,2013-06-02 22:43:00,
2013-06-02 23:44:00,51.1,42.4,30.04,NNE,22,0.0,0.0,72,0.00,,,85.23,VWS V14.01,2013-06-02 22:44:00,
2013-06-02 23:45:00,51.1,42.4,30.04,NNE,22,0.0,0.0,72,0.00,,,85.23,VWS V14.01,2013-06-02 22:45:00,
2013-06-02 23:46:00,50.9,42.2,30.04,NNE,22,0.0,0.0,72,0.00,,,85.23,VWS V14.01,2013-06-02 22:46:00,
2013-06-02 23:47:00,50.9,42.2,30.04,NNE,22,0.0,0.0,72,0.00,,,85.23,VWS V14.01,2013-06-02 22:47:00,
2013-06-02 23:48:00,50.9,42.2,30.04,NNE,22,0.0,0.0,72,0.00,,,85.23,VWS V14.01,2013-06-02 22:48:00,
2013-06-02 23:49:00,50.7,42.4,30.04,NNE,22,0.0,0.0,73,0.00,,,85.23,VWS V14.01,2013-06-02 22:49:00,
2013-06-02 23:50:00,50.9,42.6,30.04,NNE,22,0.0,0.0,73,0.00,,,85.23,VWS V14.01,2013-06-02 22:50:00,
2013-06-02 23:51:00,50.7,42.4,30.04,NNE,22,0.0,0.0,73,0.00,,,85.23,VWS V14.01,2013-06-02 22:51:00,
2013-06-02 23:52:00,50.7,42.4,30.04,NNE,22,0.0,0.0,73,0.00,,,85.23,VWS V14.01,2013-06-02 22:52:00,
2013-06-02 23:53:00,50.7,42.4,30.04,NNE,22,0.0,0.0,73,0.00,,,85.23,VWS V14.01,2013-06-02 22:53:00,
2013-06-02 23:54:00,50.7,42.4,30.04,NNE,22,0.0,0.0,73,0.00,,,85.23,VWS V14.01,2013-06-02 22:54:00,
2013-06-02 23:55:00,50.7,42.4,30.04,NNE,22,0.0,0.0,73,0.00,,,85.23,VWS V14.01,2013-06-02 22:55:00,
2013-06-02 23:56:00,50.5,42.2,30.05,NNE,22,0.0,0.0,73,0.00,,,85.23,VWS V14.01,2013-06-02 22:56:00,
2013-06-02 23:57:00,50.5,42.2,30.05,NNE,22,0.0,0.0,73,0.00,,,85.23,VWS V14.01,2013-06-02 22:57:00,
2013-06-02 23:58:00,50.4,42.1,30.04,NNE,22,0.0,0.0,73,0.00,,,85.23,VWS V14.01,2013-06-02 22:58:00,
2013-06-02 23:59:00,50.2,41.9,30.04,NNE,22,0.0,0.0,73,0.00,,,85.23,VWS V14.01,2013-06-02 22:59:00,